[[{"header":{"parameterUnit":"m.s-1","parameterCategory":1,"la1":30.6,"la2":29.2853,"lo1":-89.7004,"lo2":-87.6739,"dy":0.0162,"dx":0.0183,"nx":112,"ny":82,"refTime":"2024-02-24T06:00:00:Z","depth":0,"parameterNumber":2,"parameterNumberName":"U-component_of_WINDS"},"data":[0.0,0.0,0.0,0.0,0.0,0.0,0.0,0.0,0.0,0.0,0.0,0.0,0.0,0.0,0.0,0.0,0.0,0.0,0.0,0.0,0.0,0.0,0.0,0.0,0.0,0.0,0.0,0.0,0.0,0.0,0.0,0.0,0.0,0.0,0.0,0.0,0.0,0.0,0.0,0.0,0.0,0.0,0.0,0.0,0.0,0.0,0.0,0.0,0.0,0.0,0.0,0.0,0.0,0.0,0.0,0.0,0.0,0.0,0.0,0.0,0.0,0.0,0.0,0.0,0.0,0.0,0.0,0.0,0.0,0.0,0.0,0.0,0.0,0.0,0.0,0.0,0.0,0.0,0.0,0.0,0.0,0.0,0.0,0.0,0.0,0.0,0.0,0.0,0.0,0.0,5.7685,5.7497,5.6627,5.5604,5.455,5.4414,5.416,5.3551,0.0,0.0,0.0,0.0,0.0,0.0,0.0,0.0,0.0,0.0,0.0,0.0,0.0,0.0,0.0,0.0,0.0,0.0,0.0,0.0,0.0,0.0,0.0,0.0,0.0,0.0,0.0,0.0,0.0,0.0,0.0,0.0,0.0,0.0,0.0,0.0,0.0,0.0,0.0,0.0,0.0,0.0,0.0,0.0,0.0,0.0,0.0,0.0,0.0,0.0,0.0,0.0,0.0,0.0,0.0,0.0,0.0,0.0,0.0,0.0,0.0,0.0,0.0,0.0,0.0,0.0,0.0,0.0,0.0,0.0,0.0,0.0,0.0,0.0,0.0,0.0,0.0,0.0,0.0,0.0,0.0,0.0,0.0,0.0,0.0,0.0,0.0,0.0,0.0,0.0,0.0,0.0,0.0,0.0,0.0,0.0,0.0,0.0,0.0,0.0,0.0,0.0,0.0,0.0,5.6653,5.5867,5.548,5.4887,5.3955,5.372,5.3619,5.3518,0.0,0.0,0.0,0.0,0.0,0.0,0.0,0.0,0.0,0.0,0.0,0.0,0.0,0.0,0.0,0.0,0.0,0.0,0.0,0.0,0.0,0.0,0.0,0.0,0.0,0.0,0.0,0.0,0.0,0.0,0.0,0.0,0.0,0.0,0.0,0.0,0.0,0.0,0.0,0.0,0.0,0.0,0.0,0.0,0.0,0.0,0.0,0.0,0.0,0.0,0.0,0.0,0.0,0.0,0.0,0.0,0.0,0.0,0.0,0.0,0.0,0.0,0.0,0.0,0.0,0.0,0.0,0.0,0.0,0.0,0.0,0.0,0.0,0.0,0.0,0.0,0.0,0.0,0.0,0.0,0.0,0.0,0.0,0.0,0.0,0.0,0.0,0.0,0.0,0.0,0.0,0.0,0.0,0.0,0.0,0.0,0.0,0.0,0.0,0.0,0.0,0.0,0.0,5.615,5.5809,5.4857,5.4624,5.429,5.3734,5.3551,5.3501,5.3501,5.3501,0.0,0.0,0.0,0.0,0.0,0.0,0.0,0.0,0.0,0.0,0.0,0.0,0.0,0.0,0.0,0.0,0.0,0.0,0.0,0.0,0.0,0.0,0.0,0.0,0.0,0.0,0.0,0.0,0.0,0.0,0.0,0.0,0.0,0.0,0.0,0.0,0.0,0.0,0.0,0.0,0.0,0.0,0.0,0.0,0.0,0.0,0.0,0.0,0.0,0.0,0.0,0.0,0.0,0.0,0.0,0.0,0.0,0.0,0.0,0.0,0.0,0.0,0.0,0.0,0.0,0.0,0.0,0.0,0.0,0.0,0.0,0.0,0.0,0.0,0.0,0.0,0.0,0.0,0.0,0.0,0.0,0.0,0.0,0.0,0.0,0.0,0.0,0.0,0.0,0.0,0.0,0.0,0.0,0.0,0.0,0.0,0.0,0.0,0.0,0.0,0.0,0.0,5.5357,5.5068,5.4372,5.411,5.3915,5.3717,5.3534,5.3416,5.3416,5.3416,0.0,0.0,0.0,0.0,0.0,0.0,0.0,0.0,0.0,0.0,0.0,0.0,0.0,0.0,0.0,0.0,0.0,0.0,0.0,0.0,0.0,0.0,0.0,0.0,0.0,0.0,0.0,0.0,0.0,0.0,0.0,0.0,0.0,0.0,0.0,0.0,0.0,0.0,0.0,0.0,0.0,0.0,0.0,0.0,0.0,0.0,0.0,0.0,0.0,0.0,0.0,0.0,0.0,0.0,0.0,0.0,0.0,0.0,0.0,0.0,0.0,0.0,0.0,0.0,0.0,0.0,0.0,0.0,0.0,0.0,0.0,0.0,0.0,0.0,0.0,0.0,0.0,0.0,0.0,0.0,0.0,0.0,0.0,0.0,0.0,0.0,0.0,0.0,0.0,0.0,0.0,0.0,0.0,0.0,0.0,0.0,0.0,0.0,0.0,0.0,0.0,0.0,5.4581,5.4563,5.4512,5.4175,5.3915,5.3717,5.3382,5.3247,5.3247,5.3247,0.0,0.0,0.0,0.0,0.0,0.0,0.0,0.0,0.0,0.0,0.0,0.0,0.0,0.0,0.0,0.0,0.0,0.0,0.0,0.0,0.0,0.0,0.0,0.0,0.0,0.0,0.0,0.0,0.0,0.0,0.0,0.0,0.0,0.0,0.0,0.0,0.0,0.0,0.0,0.0,0.0,0.0,0.0,0.0,0.0,0.0,0.0,0.0,0.0,0.0,0.0,0.0,0.0,0.0,0.0,0.0,0.0,0.0,0.0,0.0,0.0,0.0,0.0,0.0,0.0,0.0,0.0,0.0,0.0,0.0,0.0,0.0,0.0,0.0,0.0,0.0,0.0,0.0,0.0,0.0,0.0,0.0,0.0,0.0,0.0,0.0,0.0,0.0,0.0,0.0,0.0,0.0,0.0,0.0,0.0,0.0,0.0,0.0,0.0,0.0,0.0,0.0,5.4512,5.4448,0.0,5.4045,5.3717,5.35,5.3247,5.3041,5.3041,0.0,0.0,0.0,0.0,0.0,0.0,0.0,0.0,0.0,0.0,0.0,0.0,0.0,0.0,0.0,0.0,0.0,0.0,0.0,0.0,0.0,0.0,0.0,0.0,0.0,0.0,0.0,0.0,0.0,0.0,0.0,0.0,0.0,0.0,0.0,0.0,0.0,0.0,0.0,0.0,0.0,0.0,0.0,0.0,0.0,0.0,0.0,0.0,0.0,0.0,0.0,0.0,0.0,0.0,0.0,0.0,0.0,0.0,0.0,0.0,0.0,0.0,0.0,0.0,0.0,0.0,0.0,0.0,0.0,0.0,0.0,0.0,0.0,0.0,0.0,0.0,0.0,0.0,0.0,0.0,0.0,0.0,0.0,0.0,0.0,0.0,0.0,0.0,0.0,0.0,0.0,0.0,0.0,0.0,0.0,0.0,0.0,0.0,0.0,0.0,0.0,0.0,5.4512,5.4431,5.4367,0.0,5.3766,5.3433,5.323,5.2886,5.2607,5.2607,0.0,0.0,0.0,0.0,0.0,0.0,0.0,0.0,0.0,0.0,0.0,0.0,0.0,0.0,0.0,0.0,0.0,0.0,0.0,0.0,0.0,0.0,0.0,0.0,0.0,0.0,0.0,0.0,0.0,0.0,0.0,0.0,0.0,0.0,0.0,0.0,0.0,0.0,0.0,0.0,0.0,0.0,0.0,0.0,0.0,0.0,0.0,0.0,0.0,0.0,0.0,0.0,0.0,0.0,0.0,0.0,0.0,0.0,0.0,0.0,0.0,0.0,0.0,0.0,0.0,0.0,0.0,0.0,0.0,0.0,0.0,0.0,0.0,0.0,0.0,0.0,0.0,0.0,0.0,0.0,0.0,0.0,0.0,0.0,0.0,0.0,0.0,0.0,0.0,0.0,0.0,0.0,0.0,0.0,0.0,0.0,0.0,0.0,0.0,0.0,0.0,0.0,5.4512,5.4303,5.4175,5.4158,5.3567,5.311,5.2903,5.2324,5.1964,0.0,0.0,0.0,0.0,0.0,0.0,0.0,0.0,0.0,0.0,0.0,0.0,0.0,0.0,0.0,0.0,0.0,0.0,0.0,0.0,0.0,0.0,0.0,0.0,0.0,0.0,0.0,0.0,0.0,0.0,0.0,0.0,0.0,0.0,0.0,0.0,0.0,0.0,0.0,0.0,0.0,0.0,0.0,0.0,0.0,0.0,0.0,0.0,0.0,0.0,0.0,0.0,0.0,0.0,0.0,0.0,0.0,0.0,0.0,0.0,0.0,0.0,0.0,0.0,0.0,0.0,0.0,0.0,0.0,0.0,0.0,0.0,0.0,0.0,0.0,0.0,0.0,0.0,0.0,0.0,0.0,0.0,0.0,0.0,0.0,0.0,0.0,0.0,0.0,0.0,0.0,0.0,0.0,0.0,0.0,0.0,0.0,0.0,0.0,0.0,0.0,0.0,0.0,5.4303,5.4175,5.3915,5.3517,5.3093,5.2677,5.2324,5.2053,5.1778,5.1631,0.0,0.0,0.0,0.0,0.0,0.0,0.0,0.0,0.0,0.0,0.0,0.0,0.0,0.0,0.0,0.0,0.0,0.0,0.0,0.0,0.0,0.0,0.0,0.0,0.0,0.0,0.0,0.0,0.0,0.0,0.0,0.0,0.0,0.0,0.0,0.0,0.0,0.0,0.0,0.0,0.0,0.0,0.0,0.0,0.0,0.0,0.0,0.0,0.0,0.0,0.0,0.0,0.0,0.0,0.0,0.0,0.0,0.0,0.0,0.0,0.0,0.0,0.0,0.0,0.0,0.0,0.0,0.0,0.0,0.0,0.0,0.0,0.0,0.0,0.0,0.0,0.0,0.0,0.0,0.0,0.0,0.0,0.0,0.0,0.0,0.0,0.0,0.0,0.0,0.0,0.0,0.0,0.0,0.0,0.0,0.0,0.0,0.0,0.0,0.0,0.0,0.0,5.4175,5.3849,5.3517,5.311,5.2607,5.2164,5.1875,5.1688,5.1483,5.1275,0.0,0.0,0.0,0.0,0.0,0.0,0.0,0.0,0.0,0.0,0.0,0.0,0.0,0.0,0.0,0.0,0.0,0.0,0.0,0.0,0.0,0.0,0.0,0.0,0.0,0.0,0.0,0.0,0.0,0.0,0.0,0.0,0.0,0.0,0.0,0.0,0.0,0.0,0.0,0.0,0.0,0.0,0.0,0.0,0.0,0.0,0.0,0.0,0.0,0.0,0.0,0.0,0.0,0.0,0.0,0.0,0.0,0.0,0.0,0.0,0.0,0.0,0.0,0.0,0.0,0.0,0.0,0.0,0.0,0.0,0.0,0.0,0.0,0.0,0.0,0.0,0.0,0.0,0.0,0.0,0.0,0.0,0.0,0.0,0.0,0.0,0.0,0.0,0.0,0.0,0.0,0.0,0.0,0.0,0.0,0.0,0.0,0.0,0.0,0.0,0.0,0.0,5.398,5.345,5.3041,5.2834,5.2197,5.1762,5.1639,5.1376,5.1124,5.0912,0.0,0.0,0.0,0.0,0.0,0.0,0.0,0.0,0.0,0.0,0.0,0.0,0.0,0.0,0.0,0.0,0.0,0.0,0.0,0.0,0.0,0.0,0.0,0.0,0.0,0.0,0.0,0.0,0.0,0.0,0.0,0.0,0.0,0.0,0.0,0.0,0.0,0.0,0.0,0.0,0.0,0.0,0.0,0.0,0.0,0.0,0.0,0.0,0.0,0.0,0.0,0.0,0.0,0.0,0.0,0.0,0.0,0.0,0.0,0.0,6.1122,0.0,0.0,0.0,0.0,0.0,0.0,0.0,0.0,0.0,0.0,0.0,0.0,0.0,0.0,0.0,0.0,0.0,0.0,0.0,0.0,0.0,0.0,0.0,0.0,0.0,0.0,0.0,0.0,0.0,0.0,0.0,0.0,0.0,0.0,0.0,0.0,0.0,0.0,0.0,0.0,0.0,5.36,5.3076,5.252,5.2004,5.1688,5.1483,5.1317,5.1258,5.1032,5.0666,5.048,0.0,0.0,0.0,0.0,0.0,0.0,0.0,0.0,0.0,0.0,0.0,0.0,0.0,0.0,0.0,0.0,0.0,0.0,0.0,0.0,0.0,0.0,0.0,0.0,0.0,0.0,0.0,0.0,0.0,0.0,0.0,0.0,0.0,0.0,0.0,0.0,0.0,0.0,0.0,0.0,0.0,0.0,0.0,0.0,0.0,0.0,0.0,0.0,0.0,0.0,0.0,0.0,0.0,0.0,0.0,0.0,0.0,0.0,0.0,0.0,6.0477,0.0,0.0,0.0,0.0,0.0,0.0,0.0,0.0,0.0,0.0,0.0,0.0,0.0,0.0,0.0,0.0,0.0,0.0,0.0,0.0,0.0,0.0,0.0,0.0,0.0,0.0,0.0,0.0,0.0,0.0,0.0,0.0,0.0,0.0,0.0,0.0,0.0,0.0,0.0,0.0,5.3213,5.2661,5.2092,5.1672,5.1483,5.1333,5.1183,5.1124,5.088,5.048,5.0073,0.0,0.0,0.0,0.0,0.0,0.0,0.0,0.0,0.0,0.0,0.0,0.0,0.0,0.0,0.0,0.0,0.0,0.0,0.0,0.0,0.0,0.0,0.0,0.0,0.0,0.0,0.0,0.0,0.0,0.0,0.0,0.0,0.0,0.0,0.0,0.0,0.0,0.0,0.0,0.0,0.0,0.0,0.0,0.0,0.0,0.0,0.0,0.0,0.0,0.0,0.0,0.0,0.0,6.029,6.0135,6.0043,5.9814,5.9748,5.9814,5.999,6.0072,5.9896,5.9436,0.0,0.0,0.0,0.0,0.0,0.0,0.0,0.0,0.0,0.0,0.0,0.0,0.0,0.0,0.0,0.0,0.0,0.0,0.0,0.0,0.0,0.0,0.0,0.0,5.2972,5.323,0.0,0.0,0.0,0.0,0.0,0.0,0.0,0.0,0.0,0.0,0.0,0.0,5.2972,5.2395,5.1908,5.1499,5.135,5.1183,5.1183,5.0956,5.0634,5.0136,4.9661,4.9097,0.0,0.0,0.0,0.0,0.0,0.0,0.0,0.0,0.0,0.0,0.0,0.0,0.0,0.0,0.0,0.0,0.0,0.0,0.0,0.0,0.0,0.0,0.0,0.0,0.0,0.0,0.0,0.0,0.0,0.0,0.0,0.0,5.8781,5.8596,0.0,0.0,0.0,0.0,0.0,0.0,0.0,0.0,0.0,0.0,0.0,0.0,0.0,5.825,5.8688,5.9147,5.9505,5.9908,5.9844,5.9814,5.9669,5.9669,5.9603,5.9603,5.952,0.0,5.9369,5.9166,0.0,0.0,0.0,0.0,0.0,0.0,0.0,0.0,0.0,0.0,0.0,0.0,0.0,0.0,0.0,0.0,0.0,0.0,0.0,0.0,0.0,0.0,5.2624,5.2624,5.2537,5.2537,0.0,5.3433,5.3766,5.3766,5.3766,0.0,0.0,0.0,0.0,0.0,0.0,0.0,5.2903,5.2428,5.1957,5.1499,5.1499,5.135,5.0988,5.0711,5.0292,4.9757,4.9097,4.8438,4.7749,4.7091,0.0,0.0,0.0,0.0,0.0,0.0,0.0,0.0,0.0,0.0,0.0,0.0,0.0,0.0,0.0,0.0,0.0,0.0,0.0,0.0,0.0,0.0,0.0,0.0,0.0,0.0,0.0,0.0,0.0,5.8721,5.8505,5.8462,5.8331,5.8305,0.0,0.0,0.0,0.0,0.0,0.0,0.0,0.0,0.0,5.7054,5.7496,5.7825,5.7963,5.8668,5.9126,5.9334,5.9334,5.9351,5.9234,5.9234,5.9234,5.9234,5.9166,5.9166,5.9081,5.9012,5.9012,5.9012,0.0,0.0,0.0,0.0,5.6098,5.5063,5.4649,5.4512,0.0,5.4239,0.0,0.0,0.0,0.0,0.0,0.0,0.0,0.0,0.0,0.0,5.2499,5.2499,5.2357,5.2214,5.2428,5.2553,5.2747,0.0,5.3076,5.3145,5.323,0.0,0.0,0.0,0.0,5.2903,5.2607,5.2285,5.1957,5.1499,5.1499,5.1275,5.0711,5.0386,4.99,4.9275,4.8438,4.7764,4.7249,4.658,4.5866,0.0,0.0,0.0,0.0,0.0,0.0,0.0,0.0,0.0,0.0,0.0,0.0,0.0,0.0,0.0,0.0,0.0,0.0,0.0,0.0,0.0,0.0,0.0,0.0,0.0,0.0,0.0,0.0,5.8462,5.8349,5.8242,5.8152,5.8133,0.0,0.0,0.0,0.0,0.0,0.0,5.7504,5.7307,5.7003,5.66,5.7384,5.777,5.7693,5.8629,5.9207,5.9284,5.9217,5.9199,5.9199,5.9081,5.9081,5.9081,5.9012,5.9012,5.9012,5.9012,5.9012,5.9012,5.9012,5.8564,5.7823,5.7064,5.6305,5.5512,5.477,5.4512,5.4448,5.4239,5.398,5.3634,5.3332,0.0,0.0,0.0,0.0,5.2764,5.2624,5.2499,5.2373,5.2373,5.2247,5.2102,5.203,5.1868,5.1851,0.0,5.2466,5.2537,5.2677,0.0,0.0,0.0,0.0,5.2694,5.2395,5.2214,5.1957,5.1573,5.1499,5.1183,5.0448,4.9995,4.9437,4.8769,4.7919,4.7249,4.6741,4.6046,4.523,4.4555,0.0,0.0,0.0,0.0,0.0,0.0,0.0,0.0,0.0,0.0,0.0,0.0,0.0,0.0,0.0,0.0,0.0,0.0,0.0,0.0,0.0,0.0,0.0,0.0,0.0,0.0,0.0,0.0,0.0,5.7839,5.7839,0.0,0.0,0.0,0.0,5.7649,5.7601,5.7504,5.7239,5.7206,5.7003,5.66,5.792,5.8494,5.816,5.9558,6.0164,6.0025,5.9879,5.9731,5.9731,5.9436,5.9301,5.9234,5.9081,5.9012,5.9012,5.9012,5.9012,5.9012,5.9012,5.8564,5.7823,5.7064,5.6305,5.5512,5.477,5.4512,5.4448,5.4127,5.3517,5.2903,5.2731,5.2644,0.0,0.0,5.2607,5.2624,5.2624,5.2499,5.2373,5.2373,5.2247,5.203,5.1868,5.1647,5.1573,0.0,5.2013,5.2158,5.2324,0.0,5.2694,5.2903,5.2764,5.264,5.2553,5.2302,5.203,5.1778,5.1408,5.094,5.0276,4.9661,4.9031,4.837,4.7437,4.6741,4.621,4.5336,4.4583,4.4087,4.3026,0.0,0.0,0.0,0.0,0.0,0.0,0.0,0.0,0.0,0.0,0.0,0.0,0.0,0.0,0.0,0.0,0.0,0.0,0.0,0.0,0.0,0.0,0.0,0.0,0.0,0.0,0.0,0.0,5.7792,5.7745,0.0,5.7601,5.7504,5.7486,5.7486,5.7388,5.7257,5.6951,5.6951,5.6975,5.7041,5.8053,5.868,5.8817,5.9796,6.0262,6.0199,6.0072,6.0008,6.0118,5.9796,5.9617,5.9617,5.9301,5.9166,5.9166,5.9081,5.9012,5.9012,5.9012,5.8857,5.853,5.7788,5.7029,5.6271,5.5495,5.4908,5.4448,5.398,5.3382,5.2834,5.2677,5.2412,5.2285,5.2412,5.2499,5.2445,5.2445,5.2445,5.2373,5.2373,5.2247,5.2102,5.203,5.1868,5.1704,5.1778,5.1868,5.1924,5.2142,5.2357,5.2445,5.2373,5.2302,5.223,5.2142,5.1868,5.1557,5.121,5.0832,5.0214,4.9405,4.8934,4.8453,4.788,4.7106,4.6403,4.5776,4.4847,4.3899,4.3026,4.215,4.1188,0.0,0.0,0.0,0.0,0.0,0.0,0.0,0.0,0.0,0.0,0.0,0.0,0.0,0.0,0.0,0.0,0.0,0.0,0.0,0.0,0.0,0.0,0.0,0.0,0.0,0.0,5.7857,5.7697,5.7601,5.7486,5.7455,5.7388,5.7338,5.7338,5.7239,5.7087,5.6899,5.6847,5.7101,5.7507,5.831,5.8997,5.9603,6.0367,6.0757,6.08,6.0574,6.0574,6.0661,6.0227,6.0054,6.0054,5.9617,5.9502,5.9436,5.9217,5.9081,5.9081,5.9012,5.9012,5.8926,5.8185,5.7443,5.665,5.5598,5.4844,5.4303,5.3832,5.3366,5.2972,5.2624,5.234,5.2158,5.2302,5.239,5.2373,5.2373,5.2373,5.2373,5.2373,5.2318,5.2175,5.2102,5.203,5.1868,5.1868,5.1868,5.1941,5.2013,5.2175,5.2247,5.1957,5.1884,5.1794,5.1524,5.1317,5.1,5.057,5.012,4.9566,4.8852,4.8453,4.8049,4.7639,4.6844,4.6135,4.5504,4.4355,4.3314,4.236,4.1076,3.9801,3.8655,0.0,0.0,0.0,0.0,0.0,0.0,0.0,0.0,0.0,0.0,0.0,0.0,0.0,0.0,0.0,0.0,0.0,0.0,0.0,0.0,0.0,0.0,0.0,5.7997,5.7886,5.7697,5.7437,5.7406,5.7338,5.7188,5.7188,5.7188,5.7188,5.7188,5.7138,5.7003,5.7021,5.7347,5.7999,5.8808,5.9617,6.0408,6.1199,6.169,6.1802,6.1501,6.1408,6.1505,6.0921,6.0635,6.0574,6.0054,5.9796,5.9796,5.9418,5.9319,5.9301,5.9081,5.9012,5.8926,5.8202,5.746,5.6581,5.5046,5.4367,5.4158,5.3849,5.3517,5.311,5.252,5.2307,5.2252,5.2158,5.2247,5.2373,5.2373,5.2373,5.2373,5.2373,5.2373,5.2302,5.2175,5.2102,5.2102,5.2102,5.2102,5.203,5.1851,5.1941,5.1957,5.1573,5.1499,0.0,5.08,5.0586,5.0276,4.9868,4.9501,4.9113,4.862,4.8202,4.788,4.7639,4.6741,4.5941,4.5504,4.3979,4.2819,4.2052,3.9701,3.8051,3.7194,0.0,0.0,0.0,0.0,0.0,0.0,0.0,0.0,0.0,0.0,0.0,0.0,0.0,0.0,0.0,0.0,0.0,0.0,0.0,0.0,0.0,5.8042,5.795,5.7857,5.7649,5.7486,5.7406,5.7289,5.7239,5.7188,5.7188,5.7188,5.7188,5.7188,5.7138,5.7003,5.7544,5.8195,5.8844,5.9635,6.0444,6.1253,6.1469,6.1746,6.1932,6.1728,6.1766,6.1969,6.16,6.1315,6.1216,6.0722,6.037,6.0118,5.9796,5.9485,5.9301,5.9081,5.9012,5.8995,5.8788,5.7892,5.6581,5.5046,5.4431,5.4367,5.4045,5.3783,5.3433,5.2886,5.2624,5.2483,5.2373,5.239,5.2373,5.2373,5.2373,5.2373,5.2373,5.2373,5.2302,5.2175,5.2102,5.203,5.1941,5.1868,5.1941,5.2013,5.1794,5.1483,5.1059,5.0832,0.0,4.9979,4.9741,4.9421,4.9015,4.862,4.8218,4.788,4.7639,4.7467,4.7381,4.6668,4.5927,4.5278,4.3559,4.1741,3.9789,3.8329,3.7069,0.0,0.0,0.0,0.0,0.0,0.0,0.0,0.0,0.0,0.0,0.0,0.0,0.0,0.0,0.0,0.0,0.0,0.0,0.0,0.0,0.0,0.0,5.7839,5.7697,5.7649,5.7504,5.7388,5.7338,5.7257,5.7188,5.7188,5.7188,5.7188,5.7188,5.7188,5.7156,5.7105,5.7864,5.8625,5.9313,6.0124,6.0935,6.1746,6.1746,6.1895,6.2096,6.1987,6.2096,6.2257,6.2005,6.1841,6.1786,6.1372,6.1022,6.0679,6.029,5.9844,0.0,0.0,0.0,0.0,0.0,5.7805,5.6615,5.5391,5.477,5.4448,5.4175,5.398,5.3717,5.3179,5.2903,5.2711,5.2445,5.2373,5.2373,5.2373,5.2373,5.2373,5.2373,5.2318,5.2247,5.2013,5.1884,5.1794,5.1524,5.1466,0.0,5.1573,5.1408,5.1,5.0509,5.0276,4.99,4.9259,4.9113,4.8769,4.8202,4.7964,4.7709,4.7467,4.7396,0.0,0.0,0.0,4.5461,4.4045,4.2709,0.0,0.0,0.0,3.6948,3.5915,0.0,0.0,0.0,3.3269,3.2656,0.0,0.0,0.0,0.0,0.0,0.0,0.0,0.0,0.0,0.0,0.0,0.0,0.0,0.0,0.0,0.0,5.7649,5.7388,5.7388,5.7406,5.7338,5.7188,5.7188,5.7188,5.7188,5.7188,5.7188,5.7188,5.7188,5.7243,5.7333,0.0,0.0,0.0,0.0,6.1299,6.2005,6.2023,6.206,6.2203,6.2203,6.231,6.2415,6.231,6.2257,6.2257,6.1896,6.16,6.1332,6.0747,6.0272,5.9731,5.9436,5.9166,5.8926,5.8185,5.7443,5.6684,5.5891,0.0,0.0,5.4303,5.4093,5.3849,5.3315,5.3041,5.2764,5.2516,5.2373,5.2373,5.2373,5.2373,5.2373,5.2373,5.2247,5.203,5.1778,5.1557,5.1333,5.1043,5.0864,5.082,5.082,5.0771,5.0509,4.9916,4.9693,4.9275,4.862,4.8537,4.8286,4.7624,0.0,0.0,4.7309,4.7309,4.7207,4.6916,4.6106,4.4712,4.2555,4.1703,4.0621,3.9195,3.8104,3.7147,3.6235,3.5259,3.4543,3.3977,3.2958,3.224,0.0,0.0,0.0,0.0,0.0,0.0,0.0,0.0,0.0,0.0,0.0,0.0,0.0,0.0,0.0,5.7553,5.7437,5.7338,5.7239,5.7239,5.7257,5.7188,5.7188,5.7188,5.7188,5.7188,5.7188,5.7188,5.7188,5.7478,5.813,5.8927,5.9742,6.0557,6.1371,6.186,6.2023,6.2023,6.206,6.2203,0.0,0.0,6.2552,6.2654,6.2603,6.25,6.2344,6.2005,6.16,6.1122,6.0415,5.9586,5.9234,5.9012,5.8926,5.8185,5.7443,5.6684,5.6038,5.526,5.4448,5.4269,5.4011,5.3651,5.311,5.2834,0.0,5.2445,5.2373,5.2373,5.2373,5.2373,5.2373,5.2373,5.2247,5.203,5.1647,5.1226,5.08,5.0432,5.0214,5.0089,5.0089,5.0073,4.9979,4.9677,4.9372,4.8898,4.8453,4.837,4.8118,4.7624,4.7624,4.7553,4.7309,4.7309,4.7207,4.6916,4.5642,4.4167,4.2555,4.1333,4.005,3.8599,3.7528,3.6479,3.5478,3.4981,3.4347,3.3481,3.2958,3.2443,0.0,0.0,0.0,0.0,0.0,0.0,0.0,0.0,0.0,0.0,0.0,5.7792,5.7697,0.0,5.7553,5.7388,5.7338,5.7307,5.7206,5.7188,5.7188,5.7188,5.7188,5.7188,5.7188,5.7188,5.7188,5.7188,5.7569,5.7985,5.8383,5.9542,6.0394,6.0792,6.1589,6.2023,6.2023,6.2023,6.2005,6.2114,6.2257,6.2362,6.25,6.2654,6.2705,6.2705,6.2603,6.2344,6.1896,6.114,6.037,5.97,5.9369,5.9166,5.8978,5.8599,5.7803,5.685,5.6534,5.5652,5.4637,5.4431,5.4028,5.3634,5.3179,5.2834,5.257,5.2445,5.2373,5.2445,5.2499,5.2445,5.2373,5.2357,5.2086,5.1647,5.1092,5.0679,5.0198,4.9821,4.9757,4.9757,4.9757,4.9757,4.9677,4.9517,4.9225,4.8816,4.837,4.8286,4.8202,4.7794,4.7709,4.7538,4.7467,4.7121,4.6756,4.6373,4.5201,4.4007,4.2763,4.124,3.9881,3.8617,3.756,3.6525,3.562,3.5428,3.4932,3.4052,3.3755,3.2935,0.0,0.0,0.0,0.0,0.0,0.0,0.0,5.796,5.7745,5.7745,5.7601,5.7534,5.7534,5.7437,5.7338,5.7338,5.7289,5.7188,5.7188,5.7188,5.7188,5.7188,5.7188,5.7188,5.7188,5.7188,5.7261,5.7424,5.8039,5.8546,5.8854,6.0104,6.0883,6.1045,6.1679,6.2023,6.2023,6.2023,6.2023,6.2023,6.2168,6.2257,6.2415,6.2552,6.2654,6.2805,6.2755,6.25,6.2024,6.1099,6.037,5.9879,5.9669,5.9386,5.9098,5.9098,5.8265,5.7079,5.7079,5.6091,5.4797,5.4575,5.411,5.3567,5.3247,5.2834,5.257,5.2445,5.2445,5.2445,5.257,5.2428,5.2302,5.2252,5.1835,5.1258,5.0602,5.0136,4.9757,4.9356,4.9437,4.9517,4.9597,4.9597,4.9517,4.9356,4.9144,4.8831,4.8469,4.837,4.8286,4.8049,4.7794,4.7624,4.7553,4.6946,4.6403,4.5837,4.494,4.394,4.2984,4.1329,3.9862,3.8787,3.764,3.6714,3.6015,3.6015,3.562,3.4835,3.4628,3.3633,6.1079,6.0425,5.9692,5.8945,5.8553,5.8231,0.0,5.7631,5.7437,5.7437,5.7338,5.7239,5.7239,5.7239,5.7239,5.7239,5.7206,5.7188,5.7188,5.7188,5.7188,5.7188,5.7188,5.7188,5.7188,5.7188,5.7496,5.8202,5.8347,5.9017,6.0466,6.072,6.1136,6.186,6.1969,6.2023,6.2023,6.2023,6.2023,6.2023,6.2168,6.2257,6.2415,6.2552,6.2654,6.2805,6.2654,6.2273,6.1712,6.1198,6.06,6.0025,5.9735,5.9537,5.9537,5.9537,5.8563,5.7289,5.7398,5.6279,5.4797,5.4575,5.4028,5.3399,5.3041,5.2711,5.2445,5.257,5.2499,5.2445,5.257,5.2373,5.2102,5.1924,5.1557,5.1016,5.037,5.0058,4.9757,4.9356,4.9356,4.9356,4.9597,4.9597,4.9597,4.9597,4.9225,4.8996,4.8914,4.8718,4.8453,4.8301,4.8049,4.7794,4.7396,4.6858,4.6403,4.5837,4.494,4.394,4.2984,4.104,3.9638,3.8787,3.7438,3.6515,3.6015,3.6015,3.5716,3.5126,3.5126,3.4213,6.0831,6.0151,5.9575,5.8784,5.8338,5.8024,5.7631,5.7388,5.7289,5.7289,5.7239,5.7188,5.7188,5.7188,5.7188,0.0,5.7188,5.7188,5.7188,5.7188,5.7369,5.784,5.7895,5.7895,5.7895,5.7895,5.8239,5.9054,5.9542,6.0104,6.0774,6.1245,6.1661,6.2005,6.2023,6.2023,6.2023,6.2023,6.2023,6.2023,6.206,6.2203,6.2415,6.2467,6.2347,6.2071,6.1446,6.0993,6.0575,6.0102,5.9532,5.8968,5.8737,5.8629,5.8625,5.9338,5.8676,5.7398,5.7461,5.6262,5.4683,5.4414,5.3881,5.323,5.2972,5.2711,5.257,5.2711,5.264,5.2499,5.2607,5.2269,5.1851,5.1582,5.1135,5.0618,5.0152,4.9836,4.9597,4.9356,4.9356,4.9517,4.9757,4.9931,5.001,5.001,4.9613,4.9291,4.8996,4.8898,4.8718,4.837,4.8133,4.788,4.7467,4.6946,4.6403,4.5837,4.494,4.394,4.2984,4.1069,3.9682,3.9091,3.7685,3.6734,3.6452,3.6452,3.6263,3.5883,3.5883,3.5488,6.0585,5.9962,5.9505,5.8766,5.8338,5.795,5.7601,5.7406,5.7257,5.7289,5.7239,5.7188,5.7257,5.7239,5.7261,5.7496,5.7532,5.7605,5.7822,5.7858,5.8076,5.8655,5.8728,5.8818,5.9054,5.8854,5.9072,5.9868,6.0484,6.0919,6.1136,6.1697,6.2023,6.2023,6.2023,6.2023,6.2023,6.2023,6.2023,6.2023,6.1788,6.1841,6.2068,6.1901,6.1634,6.1227,6.0494,6.0008,5.9701,5.9276,5.878,5.8255,5.8136,5.8114,5.829,5.8887,5.8363,5.7333,5.7254,5.6133,5.4648,5.4269,5.3749,5.3179,5.2972,5.2764,5.2694,5.2903,5.2764,5.2553,5.252,5.2109,5.154,5.1268,5.0816,5.0308,4.9916,4.9757,4.9597,4.9517,4.9597,4.9852,5.0089,5.0246,5.034,5.034,5.001,4.9613,4.9144,4.898,4.8733,4.837,4.8202,4.7964,4.7639,4.7019,4.6403,4.5747,4.4862,4.394,4.279,4.1069,3.9777,3.9201,3.7887,3.7108,3.6815,3.6815,3.6722,3.6546,3.6546,3.6452,6.043,5.9981,5.954,5.8928,5.8492,5.8133,5.7857,5.7601,5.7437,5.7553,5.7388,5.7239,5.7356,5.7307,5.746,5.8239,5.8365,5.8637,5.9416,5.9542,5.9542,5.9561,5.9561,5.9868,0.0,6.0031,5.9905,6.072,6.0792,6.1154,6.1933,6.2005,6.2023,6.2023,6.2023,6.2023,6.2023,6.2023,6.2023,6.2005,6.1334,6.1093,6.1211,6.0695,6.0456,6.0438,6.0256,5.9939,5.9597,5.924,5.8798,5.8308,5.8308,5.863,5.9073,5.8351,5.7593,5.6923,5.6691,5.5802,5.4648,5.4175,5.3717,5.3366,5.2972,5.2903,5.2903,5.311,5.2747,5.2307,5.2307,5.1745,5.1092,5.0602,5.0386,5.0184,4.9677,4.9757,4.9916,4.9916,5.0089,5.034,5.0573,5.0589,5.0496,5.034,5.0262,5.001,4.9356,4.8867,4.8537,4.8286,4.8286,4.8118,4.7624,4.7193,4.6476,4.5595,4.4769,4.3846,4.2609,4.1164,4.005,3.9201,3.8075,3.732,3.7108,3.7108,3.7108,3.7108,3.7108,3.7108,6.0349,5.9981,5.9624,5.9082,5.8661,5.8338,5.8033,5.7821,5.7697,5.7857,5.8087,5.8305,5.8452,5.8773,5.9179,5.9452,5.9438,5.9529,5.9699,5.9735,5.9901,6.0339,6.0412,0.0,0.0,0.0,0.0,6.1553,6.1607,6.1734,6.2005,6.2023,6.2023,6.2023,6.2023,6.2023,6.2023,6.2114,6.1842,6.1316,6.0759,6.051,6.0523,5.9883,5.9564,5.9432,5.8738,5.8305,5.8003,5.7673,5.737,5.7071,5.7455,5.7752,5.7889,5.7524,5.7217,5.6887,5.6571,5.5618,5.4494,5.411,5.3651,5.3247,5.311,5.311,5.3127,5.3348,5.2972,5.2449,5.2148,5.1524,5.088,5.048,5.0324,5.0262,5.0089,5.0246,5.034,5.034,5.0418,5.0589,5.0743,5.082,5.0743,5.0496,5.0089,4.9693,4.9356,4.9047,4.88,4.8537,4.837,4.8202,4.788,4.7264,4.6476,4.5595,4.4783,4.3846,4.2511,4.1539,4.0529,3.9655,3.8922,3.8332,3.7848,3.7664,3.7664,3.7664,3.7492,3.7505,6.0284,6.0,5.9677,5.9327,5.8945,5.8693,5.8826,5.8637,5.8612,5.9042,5.9338,5.9564,5.963,5.9938,6.0231,6.0473,6.046,6.0468,6.0656,6.0641,6.084,6.128,6.128,6.1533,0.0,0.0,0.0,6.1969,6.2023,6.2023,6.2023,6.2023,6.2023,6.2023,6.2023,6.2005,6.206,6.215,6.1711,6.0723,6.0053,5.9621,5.9377,5.8912,5.8626,5.8542,5.7771,5.7338,5.7105,5.6847,5.6761,5.6791,5.7234,5.7534,5.769,5.7251,5.7046,5.6775,5.6134,5.5206,5.4303,5.3898,5.3584,5.3264,5.3247,5.3264,5.3332,5.3433,5.3058,5.2503,5.2131,5.1524,5.0896,5.0496,5.0418,5.0418,5.0418,5.0512,5.0589,5.0666,5.0743,5.0743,5.0972,5.0988,5.0836,5.0743,5.0262,4.9757,4.9437,4.9144,4.8914,4.8718,4.8537,4.8286,4.8049,4.7351,4.6476,4.5384,4.4662,4.3751,4.2511,4.1726,4.092,4.005,3.9494,3.8912,3.8304,3.8122,3.8031,3.8031,3.7782,3.7703,6.0246,5.9994,5.9772,5.9707,5.9403,5.936,6.0126,6.005,6.0042,6.097,6.1,6.0903,6.0903,0.0,6.075,6.1372,6.135,6.1488,6.2094,6.2203,6.2203,0.0,0.0,0.0,0.0,0.0,0.0,6.2005,0.0,6.2023,6.2023,6.2023,6.2023,6.2023,6.2023,6.206,6.2203,6.2112,6.1433,6.0133,5.9329,5.8608,5.7997,5.7839,5.7792,5.7745,5.7338,5.7105,5.6951,5.6742,5.692,5.7356,5.7558,5.8021,5.8383,5.7428,5.6988,5.6705,5.5375,5.4648,5.4124,5.3617,5.3467,5.3433,5.3264,5.3348,5.3501,5.3501,5.3041,5.2503,5.2131,5.1582,5.1108,5.0743,5.0589,5.0589,5.0589,5.0589,5.0666,5.0896,5.0912,5.0972,5.1183,5.1048,5.0912,5.0912,5.0589,5.0089,4.9677,4.9291,4.8996,4.8996,4.8718,4.8453,4.8049,4.7366,4.6373,4.5173,4.4476,4.356,4.2609,4.2043,4.126,4.04,3.9894,3.932,3.8732,3.8408,3.82,3.8213,3.7979,3.79,6.0178,6.0431,6.0743,6.0679,6.094,6.13,6.1469,6.1314,6.1232,6.1555,6.1875,6.2092,6.2048,6.2299,0.0,6.2475,6.2343,0.0,6.222,6.2203,0.0,6.2203,0.0,6.2257,6.2362,6.2415,0.0,0.0,6.231,6.2257,6.215,6.215,6.2096,6.2005,6.2023,6.206,6.2203,6.1211,6.0316,5.9472,5.8647,5.8152,5.7997,5.7839,5.7697,5.7504,5.7188,5.6899,5.6742,5.719,5.74,5.7558,5.8203,5.8485,5.8516,5.7388,5.6733,5.6309,5.4908,5.4316,5.4124,5.3766,5.3534,5.3501,5.3433,5.3433,5.3501,5.3501,5.3195,5.2747,5.2307,5.1786,5.1285,5.0896,5.082,5.082,5.082,5.0972,5.1032,5.1108,5.1108,5.1108,5.1183,5.1048,5.0912,5.0912,5.0589,5.0184,4.9836,4.9452,4.9144,4.8996,4.8718,4.8453,4.8049,4.7553,4.6668,4.5475,4.4862,4.4129,4.3177,4.3095,4.2806,4.2109,4.1507,4.0918,4.0357,3.9433,3.8845,3.8498,3.8226,3.8057,6.1191,6.1405,6.1667,6.1618,6.1892,6.2219,6.2578,6.2523,6.2503,6.286,6.3174,6.3289,6.3121,6.3267,6.326,0.0,0.0,0.0,6.2042,6.1987,6.206,0.0,6.215,0.0,6.2467,6.2552,6.257,0.0,6.2467,6.2362,6.2203,6.2203,6.215,6.2005,6.206,6.1986,6.1834,6.0432,5.9553,5.9208,5.8382,5.795,5.7904,5.7697,5.7486,5.7289,0.0,5.6742,5.6653,5.7295,5.7578,5.765,5.8417,5.8392,5.7921,5.707,5.6282,5.5531,5.4471,5.4076,5.3946,5.3717,5.3551,5.3501,5.3551,5.3551,5.3501,5.3551,5.3264,5.2834,5.252,5.202,5.1524,5.1199,5.1124,5.1048,5.1048,5.1108,5.1183,5.1183,5.1183,5.1183,5.1183,5.1124,5.1048,5.1048,5.065,5.034,5.0262,4.9757,4.9356,4.9144,4.8898,4.8635,4.8133,4.7609,4.6901,4.6002,4.5398,4.4769,4.4087,4.4167,4.3953,4.3336,4.2656,4.1965,4.1276,4.0021,3.9292,3.8859,3.8395,3.8122,6.2534,6.253,6.2576,6.2576,6.2602,6.2851,6.3532,6.365,6.3747,6.4312,6.4444,6.4326,6.4,6.3761,6.3465,6.2904,0.0,6.2257,6.1858,6.1802,6.184,6.1932,6.2096,6.2238,6.25,6.2654,6.2773,6.2773,6.2519,6.2362,6.2257,6.2257,6.2113,6.186,6.1896,6.1652,6.1103,5.981,5.9171,5.9043,5.8345,5.7886,5.7745,5.7504,5.7289,5.7156,5.6742,0.0,5.6797,5.7348,5.7705,5.7848,5.8289,5.7921,5.7011,5.6533,5.5654,5.4586,5.4175,5.3849,5.3651,5.3551,5.3501,5.3551,5.3717,5.3668,5.3551,5.3651,5.3298,5.2834,5.259,5.2181,5.1778,5.1573,5.135,5.1183,5.1183,5.1183,5.1183,5.1183,5.1183,5.1183,5.1183,5.1183,5.1183,5.1183,5.088,5.0589,5.0589,5.001,4.9517,4.9356,4.9144,4.8816,4.837,4.7664,4.7118,4.6579,4.6002,4.5566,4.5341,4.5264,4.5096,4.455,4.3595,4.2718,4.199,4.0562,3.9719,3.9394,3.8652,3.8291,6.2534,6.2947,6.3391,6.3391,6.3906,6.4474,6.4626,6.4664,6.4647,6.4632,6.4596,6.452,6.4284,6.3995,6.3602,6.3051,6.2654,6.2238,6.1858,6.169,6.169,0.0,6.1932,6.2096,6.2238,6.2415,0.0,0.0,0.0,6.2362,6.2362,6.2362,6.2018,6.1206,6.0671,6.0076,5.9438,5.926,5.8877,5.8217,5.7959,5.7745,5.7649,5.7356,5.7105,5.6847,5.6689,0.0,5.7585,5.758,5.8083,5.8675,5.7726,5.7193,5.6729,5.5497,5.4689,5.4269,5.4045,5.3849,5.3717,5.3651,5.3651,5.3717,5.3915,5.3783,5.3651,5.35,5.3179,5.2834,5.2449,5.2036,5.1778,5.1573,5.135,5.1183,5.1183,5.1183,5.1183,5.1183,5.1183,5.1183,5.1183,5.1183,5.1183,5.1183,5.088,5.0589,5.0589,5.001,4.9517,4.9356,4.9144,4.8816,4.837,4.8034,4.7679,4.7103,4.6799,4.655,4.6226,4.6284,4.6255,4.6152,4.4807,4.3892,4.3603,4.1938,4.0688,3.9908,3.953,3.91,6.3778,6.4013,6.4282,6.4282,6.4604,6.4907,6.4907,6.4907,6.4853,6.4689,6.4615,6.452,6.4244,6.4019,6.3698,6.3139,6.2718,6.2344,6.1804,6.1541,6.1444,6.1559,6.1654,6.1859,6.2078,6.2203,6.231,6.2415,0.0,6.2362,6.231,6.1927,6.1527,6.1126,6.0076,5.9353,5.9113,5.8739,5.8335,5.7886,5.7745,5.7601,5.7388,5.7087,5.6899,5.6689,5.6653,0.0,5.71,5.7511,5.7598,5.7338,5.7051,5.6452,5.561,5.4769,5.4269,5.4093,5.3898,5.3849,5.3849,5.3915,5.3915,5.3915,5.4045,5.3898,5.37,5.3567,5.323,5.2834,5.2537,5.2214,5.1868,5.1721,5.1408,5.1183,5.1183,5.1183,5.1183,5.1183,5.1183,5.1183,5.1183,5.1183,5.1183,5.1183,5.088,5.0589,5.0589,5.0089,4.9597,4.9356,4.921,4.8965,4.8537,4.8286,4.8034,4.7749,4.7593,4.7437,4.7321,4.7351,4.7115,4.6584,4.5461,4.4457,4.3866,4.24,4.1367,4.0702,4.0229,3.9706,6.4924,6.4907,6.4907,6.4907,6.4907,6.4907,6.4907,6.4872,6.4817,6.4634,6.4558,6.4443,6.4184,6.4,6.3749,0.0,6.2947,6.2515,6.1987,6.1636,6.1426,6.1368,6.1466,0.0,6.1877,6.2042,0.0,6.231,0.0,0.0,6.1949,6.1186,6.0729,6.0701,5.9396,5.8809,5.8904,5.8262,5.7904,5.7697,5.7601,5.7388,5.7105,5.6847,5.6689,5.66,5.6546,0.0,0.0,5.7225,5.6914,5.6144,5.6335,5.5645,5.4586,5.4269,5.4093,5.3915,5.3849,5.3915,5.4045,5.4239,5.4175,5.4045,5.4239,5.4028,5.3766,5.3783,5.3366,5.2956,5.2747,5.2483,5.2158,5.1851,5.1557,5.1258,5.1183,5.1183,5.1183,5.1183,5.1183,5.1183,5.1183,5.1183,5.1183,5.1183,5.088,5.0589,5.0589,5.0168,4.9773,4.9356,4.9275,4.9113,4.862,4.8453,4.837,4.837,4.8218,4.8133,4.8133,4.8133,4.7646,4.6698,4.58,4.4893,4.3826,4.2737,4.2005,4.1549,4.0916,4.056,6.4924,6.4907,6.4907,6.4907,6.4907,6.4907,6.4907,6.4798,6.4707,6.4634,6.4443,6.4324,6.4284,6.4061,0.0,0.0,0.0,6.2929,6.2585,6.2185,6.1804,6.1505,0.0,0.0,6.1633,6.1746,0.0,0.0,0.0,0.0,6.1131,6.035,5.9638,5.906,5.8329,5.792,5.7902,5.7847,5.7697,5.7455,5.7289,5.7105,5.6847,5.6707,5.66,5.66,5.6492,0.0,0.0,5.6573,5.6454,5.6816,5.541,5.4637,5.4252,5.4093,5.3915,5.3783,5.4028,5.4175,5.4222,5.4431,5.4367,5.4239,5.4431,5.4303,5.4093,5.398,5.3683,5.3332,5.3111,5.2784,5.2466,5.1924,5.1647,5.1424,5.1258,5.1183,5.1183,5.1183,5.1183,5.1183,5.1183,5.1183,5.1183,5.1183,5.088,5.0589,5.0589,5.0168,4.9773,4.9356,4.9275,4.9113,4.862,4.8604,4.8537,4.8537,4.8537,4.8521,4.8521,4.837,4.7897,4.6978,4.6079,4.5154,4.4221,4.3307,4.2659,4.2184,4.199,4.1645,6.4907,6.4907,6.4907,6.4907,6.4907,6.4907,6.4907,6.4798,6.467,6.4501,6.4385,6.4244,6.4102,6.3958,0.0,0.0,0.0,0.0,6.2886,6.2482,6.2132,6.1859,6.1636,0.0,0.0,0.0,6.1746,0.0,0.0,0.0,6.035,6.0038,5.9593,5.8939,5.8278,5.7839,5.7697,5.7697,5.7486,5.7156,5.7036,5.6847,5.6707,5.6653,5.6546,5.651,5.66,0.0,0.0,5.6156,5.5789,5.5541,5.4752,5.4269,5.4028,5.3898,5.3915,5.4028,5.4158,5.4303,5.4431,5.4655,5.4655,5.4575,5.4655,5.462,5.4477,5.4367,5.4093,5.3798,5.3533,5.2991,5.252,5.2181,5.1924,5.1647,5.1557,5.1499,5.135,5.135,5.1258,5.1183,5.1183,5.1183,5.1183,5.1183,5.088,5.0589,5.0589,5.0089,4.9597,4.9356,4.9275,4.9113,4.862,4.862,4.862,4.862,4.862,4.862,4.862,4.8537,4.7865,4.6631,4.6113,4.5218,4.3908,4.3464,4.2996,4.2739,4.2511,4.2266,6.4836,6.4836,6.4836,6.4836,6.4781,6.4745,6.4745,6.4633,6.4463,6.4287,6.4143,6.3977,6.3786,6.368,0.0,0.0,0.0,6.3307,6.3147,6.2787,6.2449,6.2132,0.0,6.1692,0.0,6.1746,0.0,0.0,0.0,0.0,5.998,5.9739,5.9346,5.8688,5.8197,5.7792,5.7534,5.7437,5.7239,5.6899,5.676,5.6653,5.66,5.66,5.66,5.6546,5.6635,0.0,0.0,5.5689,5.5199,5.4523,5.4188,5.4011,5.3915,5.3849,5.3963,5.4239,5.4239,5.4367,5.4512,5.4717,5.4842,5.4904,5.4965,5.4869,5.479,5.4728,5.4603,5.4333,5.3946,5.3416,5.287,5.2449,5.2181,5.198,5.1908,5.1778,5.1704,5.1631,5.1557,5.1408,5.1333,5.1258,5.1258,5.1124,5.082,5.0589,5.0512,5.001,4.9517,4.9356,4.9291,4.9047,4.862,4.862,4.862,4.862,4.862,4.862,4.862,4.862,4.7891,4.6314,4.6138,4.5323,4.3769,4.3503,4.3344,4.317,4.301,4.2769,6.4596,6.4596,6.4596,6.4596,6.4501,6.4405,6.4405,6.4265,6.4061,6.3939,6.3636,6.34,6.34,6.3194,0.0,0.0,0.0,0.0,6.34,6.3051,6.2705,0.0,0.0,6.1932,6.1802,0.0,0.0,0.0,0.0,0.0,6.0243,5.931,5.8507,5.7828,5.781,5.7697,5.7388,5.7138,5.6899,5.66,5.6437,5.6492,5.66,5.66,5.6689,0.0,0.0,0.0,0.0,5.5277,5.471,5.4188,5.3832,5.37,5.3717,5.3915,5.411,5.4239,5.4448,5.4512,5.4512,5.4717,5.4886,5.5053,5.5389,5.5252,5.5035,5.5139,5.5096,5.4852,5.4316,5.3946,5.35,5.28,5.259,5.2449,5.2092,5.2164,5.2236,5.202,5.1964,5.1908,5.1573,5.1499,5.135,5.0972,5.0743,5.0512,5.034,4.9931,4.9517,4.9356,4.9144,4.8898,4.862,4.862,4.862,4.862,4.862,4.862,4.862,4.862,4.7891,4.6314,4.6284,4.5547,4.3988,4.3754,4.369,4.369,4.3423,4.325,6.3519,6.3914,6.4308,6.4265,6.4225,6.4125,6.3963,6.3792,6.3643,6.34,6.3102,6.2898,6.2836,6.2686,0.0,0.0,0.0,0.0,0.0,0.0,0.0,6.2397,6.215,6.195,0.0,0.0,0.0,0.0,0.0,0.0,6.0095,5.9242,5.844,5.7667,5.7583,5.7307,5.6847,5.6847,5.6689,5.6346,5.6401,5.6492,5.66,5.66,5.66,0.0,0.0,0.0,0.0,5.4807,5.435,5.3832,5.3766,5.3766,5.3915,5.411,5.4239,5.4431,5.4512,5.4575,5.4717,5.4886,5.5053,5.5156,5.5448,5.549,5.5472,5.5514,5.5336,5.5018,5.4648,5.4205,5.3783,5.3281,5.3145,5.306,5.2886,5.287,5.2784,5.2677,5.252,5.2307,5.2109,5.1891,5.1762,5.1557,5.1124,5.0666,5.0292,4.9741,4.9291,4.9144,4.8883,4.8702,4.862,4.862,4.862,4.862,4.862,4.862,4.862,4.862,4.7907,4.6539,4.6364,4.5627,4.4205,4.3988,4.3832,4.369,4.3423,4.3329,6.2062,6.2734,6.3369,6.332,6.3438,6.3554,6.3354,6.3215,6.3025,6.2781,6.2581,6.2394,6.2291,6.2185,0.0,0.0,0.0,0.0,0.0,0.0,0.0,6.1943,0.0,0.0,0.0,0.0,0.0,0.0,0.0,0.0,5.9401,5.8518,5.7764,5.7138,5.7138,5.6933,5.651,5.6528,5.6455,5.6197,5.6346,5.6492,5.66,5.6653,5.6528,0.0,0.0,0.0,0.0,5.4431,5.4045,5.3601,5.3651,5.3849,5.398,5.4175,5.4303,5.4512,5.4512,5.4637,5.4842,5.4948,5.5156,5.5396,5.5549,5.5607,5.5724,5.5666,5.5472,5.5217,5.4913,5.4477,5.411,5.3717,5.3634,5.355,5.3433,5.3433,5.3416,5.323,5.3093,5.2939,5.2644,5.2449,5.2252,5.1891,5.145,5.0924,5.0354,4.9821,4.9452,4.9144,4.8883,4.8718,4.862,4.862,4.862,4.862,4.862,4.862,4.862,4.862,4.7973,4.6619,4.6444,4.5769,4.4435,4.4143,4.391,4.369,4.3423,4.3329,0.0,6.1172,6.1855,6.1855,6.2162,6.248,6.248,6.2314,0.0,6.2022,6.186,6.177,6.1622,6.1528,0.0,0.0,0.0,0.0,0.0,6.2284,0.0,0.0,6.0773,0.0,0.0,0.0,0.0,0.0,0.0,0.0,5.8365,5.7366,5.6617,5.6257,5.6564,5.6564,5.6257,5.6217,5.6197,5.6197,5.6346,5.651,5.66,5.6689,5.651,0.0,0.0,0.0,0.0,5.411,5.38,5.3501,5.3668,5.3849,5.4045,5.4175,5.4367,5.4512,5.4512,5.4637,5.4842,5.5009,5.5294,5.5648,5.5648,5.5706,5.5724,5.5566,5.5507,5.5371,5.5053,5.4745,5.4448,5.411,5.4045,5.398,5.3766,5.3915,5.398,5.3766,5.3717,5.3617,5.3247,5.3076,5.2747,5.2131,5.1769,5.1252,5.0586,5.0136,4.9757,4.9356,4.9144,4.8898,4.862,4.862,4.862,4.862,4.862,4.862,4.862,4.862,4.7973,4.6619,4.6511,4.5834,4.4572,4.4205,4.391,4.3769,4.3423,4.3329,5.7746,0.0,6.0444,6.0327,6.0423,6.0449,0.0,6.0122,6.0087,5.9944,5.9798,5.9705,5.965,5.9611,0.0,0.0,0.0,0.0,6.0264,0.0,0.0,5.9957,5.9887,0.0,0.0,0.0,0.0,0.0,0.0,5.8175,5.7963,5.6976,5.6274,5.6014,5.607,5.607,5.6014,5.6123,5.6235,5.6346,5.6401,5.6546,5.6742,5.631,5.5996,0.0,0.0,0.0,5.411,5.3849,5.3717,5.3651,5.3849,5.4045,5.4175,5.4367,5.4448,5.4512,5.4512,5.47,5.5009,5.5312,5.5354,5.5319,5.5319,5.5572,5.5822,5.5706,5.5472,5.5217,5.5053,5.4745,5.4448,5.4239,5.4239,5.4303,5.411,5.4239,5.4303,5.411,5.4093,5.4028,5.3832,5.3634,5.3366,5.2956,5.2433,5.1786,5.1043,5.0509,4.99,4.9356,4.9144,4.8898,4.862,4.862,4.862,4.862,4.862,4.862,4.862,4.862,4.7973,4.6619,4.5572,4.4895,4.4572,4.4358,4.422,4.4127,4.3754,4.3596,5.6689,5.7834,5.9069,5.8965,5.9202,5.942,5.9276,5.9167,5.9039,5.902,5.8908,5.8852,5.8852,5.8852,0.0,0.0,5.924,0.0,0.0,0.0,5.947,5.909,0.0,0.0,0.0,0.0,0.0,0.0,0.0,5.7154,5.6822,5.6301,5.5918,5.5706,5.5706,5.5764,5.5822,5.6067,5.6253,5.629,5.6401,5.6383,5.6347,5.594,5.5578,0.0,0.0,0.0,5.3849,5.37,5.37,5.3717,5.398,5.411,5.4222,5.4448,5.4575,5.4655,5.4655,5.4824,5.5053,5.5294,5.5234,5.5096,5.5096,5.5277,5.5455,5.5413,5.5217,5.5096,5.5053,5.4824,5.4592,5.4512,5.4512,5.4448,5.4367,5.4431,5.4448,5.4367,5.4367,5.4303,5.4239,5.4045,5.3849,5.3584,5.3025,5.2307,5.1623,5.0908,5.023,4.9517,4.9291,4.8965,4.862,4.862,4.862,4.862,4.862,4.8537,4.8453,4.8537,4.7973,4.6619,4.5264,4.4572,4.4572,4.4435,4.4281,4.4281,4.391,4.369,5.6455,5.7029,5.7765,5.7765,5.8159,5.8606,5.8606,5.8494,5.8363,5.8363,5.8306,5.8324,5.8324,5.8324,0.0,0.0,0.0,0.0,5.913,5.9182,5.8929,5.826,0.0,0.0,0.0,0.0,0.0,0.0,0.0,5.5954,5.5648,5.5648,5.5666,5.5507,5.5507,5.5566,5.5666,5.5954,5.6141,5.6197,5.6235,5.6162,5.5844,5.556,5.5147,5.4568,0.0,0.0,5.37,5.37,5.3717,5.3766,5.4093,5.4239,5.4239,5.4448,5.4655,5.478,5.4842,5.4886,5.5053,5.5139,5.5096,5.4992,5.4992,5.493,5.493,5.493,5.493,5.4992,5.4992,5.4886,5.4717,5.4717,5.4637,5.4512,5.4512,5.4512,5.4512,5.4512,5.4512,5.4512,5.4512,5.4367,5.4175,5.4045,5.345,5.2731,5.2148,5.1376,5.0573,4.9757,4.9437,4.9113,4.862,4.862,4.862,4.8537,4.8537,4.8453,4.8286,4.8254,4.7773,4.6619,4.5264,4.4572,4.4572,4.4435,4.4358,4.4358,4.3988,4.3769,5.6455,5.6545,5.6634,5.6634,5.6723,5.6812,5.6812,5.6757,5.6757,5.6757,5.6647,5.6609,0.0,5.6609,5.6664,0.0,0.0,5.7154,0.0,0.0,0.0,0.0,0.0,0.0,0.0,0.0,0.0,0.0,0.0,5.549,5.5319,5.5531,5.5666,5.5507,5.5607,5.5607,5.5507,5.5666,5.5897,5.6197,5.5954,5.5729,5.5601,5.5104,5.4631,5.4252,0.0,5.3766,5.37,5.37,5.3832,5.4093,5.4175,5.4303,5.4448,5.4512,5.4655,5.4842,5.4948,5.4992,5.4992,5.5035,5.4948,5.4842,5.4842,5.47,5.4575,5.4575,5.47,5.4842,5.4842,5.4717,5.4575,5.4575,5.4512,5.4512,5.4512,5.4512,5.4512,5.4512,5.4512,5.4512,5.4512,5.4431,5.4367,5.4063,5.3617,5.3043,5.2378,5.1565,5.0755,4.9916,4.9517,4.9113,4.862,4.862,4.8537,4.837,4.837,4.8286,4.8286,4.7283,4.6659,4.6603,4.5264,4.4572,4.4572,4.4572,4.4572,4.4587,4.4281,4.4127,5.6401,5.6401,5.6401,5.6401,5.6401,5.6401,5.629,5.629,5.6235,5.6162,5.6106,5.6049,0.0,0.0,5.6106,5.6235,0.0,5.66,0.0,0.0,0.0,0.0,0.0,0.0,0.0,0.0,0.0,0.0,0.0,0.0,5.5182,5.5514,5.559,5.5354,5.5396,5.5336,5.5053,5.5053,5.5294,5.5631,5.5396,5.5217,5.5,5.4523,5.4158,5.3881,0.0,5.3668,5.3717,5.3849,5.398,5.4222,5.4303,5.4448,5.4512,5.4637,5.4717,5.4842,5.493,5.493,5.4886,5.4886,5.478,5.4655,5.4655,5.4575,5.4512,5.4512,5.4575,5.4655,5.4655,5.4575,5.4512,5.4512,5.4512,5.4512,5.4512,5.4512,5.4512,5.4512,5.4512,5.4512,5.4512,5.4431,5.4303,5.411,5.3634,5.3076,5.252,5.1623,5.0816,4.9995,4.9517,4.9113,4.862,4.8537,4.837,4.8286,4.8218,4.8218,4.8301,4.7002,4.6364,4.6603,4.5264,4.4572,4.4572,4.4572,4.4572,4.4587,4.4358,4.4281,5.6346,5.6346,5.6346,5.629,5.629,5.629,5.6179,5.6141,5.6011,5.5861,5.5804,0.0,0.0,5.5729,0.0,5.5879,5.6049,0.0,0.0,0.0,0.0,0.0,0.0,0.0,0.0,0.0,0.0,0.0,0.0,0.0,5.5277,5.5514,5.559,5.5277,5.5199,5.5018,5.4665,5.4494,5.4603,5.5018,5.4913,5.4665,5.4385,5.4045,5.3849,5.3651,5.3551,5.3601,5.3766,5.398,5.411,5.4303,5.4448,5.4512,5.4512,5.4717,5.4797,5.478,5.4886,5.4904,5.478,5.4717,5.4655,5.4512,5.4512,5.4512,5.4512,5.4512,5.4512,5.4512,5.4512,5.4512,5.4512,5.4512,5.4512,5.4512,5.4512,5.4512,5.4512,5.4512,5.4512,5.4512,5.4448,5.4303,5.4158,5.4028,5.35,5.2956,5.2433,5.1639,5.0755,4.9916,4.9517,4.9113,4.8537,4.837,4.8202,4.8202,4.8049,4.8133,4.8286,4.7002,4.6364,4.6603,4.5264,4.4572,4.4572,4.4572,4.4572,4.4572,4.4435,4.4358,5.6253,5.6197,5.6123,5.5839,5.6011,5.6179,5.5993,5.5822,5.5724,5.5531,5.5396,5.5259,0.0,5.5156,5.5053,5.5113,5.5217,0.0,0.0,0.0,0.0,0.0,0.0,0.0,0.0,0.0,0.0,0.0,0.0,0.0,5.5448,5.5607,5.5607,5.5507,5.5191,5.4869,5.4512,5.4175,5.4175,5.4575,5.4333,5.4205,5.4045,5.3849,5.3668,5.3501,5.3668,5.3783,5.398,5.411,5.4303,5.4512,5.4512,5.4512,5.4512,5.4717,5.4797,5.4797,5.478,5.4797,5.478,5.4575,5.4512,5.4512,5.4512,5.4512,5.4512,5.4512,5.4512,5.4512,5.4512,5.4512,5.4512,5.4512,5.4512,5.4512,5.4512,5.4512,5.4512,5.4512,5.4512,5.4448,5.4239,5.4222,5.4028,5.3567,5.3162,5.2607,5.1858,5.1242,5.0573,4.9677,4.9437,4.9031,4.837,4.8133,4.8049,4.8049,4.8049,4.8133,4.8286,4.7002,4.6364,4.6603,4.5264,4.4572,4.4572,4.4572,4.4572,4.4572,4.4587,4.4511,5.5954,5.5804,5.5671,5.5437,5.5242,5.5104,5.5319,5.5199,5.5035,5.493,5.4913,5.4957,5.5035,0.0,5.479,5.479,0.0,0.0,0.0,0.0,0.0,0.0,0.0,0.0,0.0,0.0,0.0,0.0,0.0,0.0,5.5607,5.5764,5.5706,5.5507,5.5191,5.479,5.435,5.3963,5.3866,5.3883,5.3915,5.3849,5.3685,5.3618,5.3551,5.3501,5.3668,5.3849,5.398,5.4158,5.4303,5.4512,5.4512,5.4512,5.4512,5.4592,5.4575,5.4575,5.4575,5.4717,5.4797,5.4717,5.4762,5.4807,5.4807,5.4807,5.4807,5.4717,5.4717,5.4655,5.4512,5.4512,5.4512,5.4512,5.4367,5.4303,5.4303,5.4239,5.4175,5.4175,5.4175,5.4175,5.411,5.3963,5.3766,5.3433,5.3025,5.2449,5.1786,5.1242,5.0589,4.9677,4.9194,4.8702,4.8286,4.8202,4.8218,4.8218,4.8049,4.8133,4.8286,4.715,4.6508,4.6603,4.5264,4.4572,4.4572,4.4572,4.4572,4.4572,4.4572,4.4572,5.5724,5.5496,5.5284,5.4939,5.4551,5.4235,5.446,5.4477,5.4477,5.4367,5.4431,5.454,5.4665,0.0,0.0,0.0,0.0,0.0,0.0,0.0,0.0,0.0,0.0,0.0,0.0,0.0,0.0,0.0,0.0,0.0,0.0,5.5861,5.5822,5.5607,5.5294,5.4834,5.4379,5.3946,5.3734,5.3551,5.3601,5.3618,5.3501,5.3501,5.3501,5.3551,5.3734,5.3915,5.4045,5.4239,5.4367,5.4512,5.4575,5.4575,5.4575,5.462,5.4683,5.4683,5.4683,5.4762,5.4948,5.4948,5.5053,5.5217,5.5174,5.5174,5.5156,5.4992,5.4948,5.4886,5.4637,5.4575,5.4512,5.4431,5.4303,5.4158,5.4175,5.4045,5.398,5.398,5.398,5.398,5.3915,5.3783,5.3584,5.3298,5.28,5.2291,5.1639,5.1,5.0324,4.9533,4.8949,4.8537,4.8286,4.8286,4.8286,4.8286,4.8202,4.8202,4.837,4.7231,4.6603,4.6603,4.5264,4.4572,4.4572,4.4572,4.4572,4.4572,4.4572,4.4572,5.5625,5.5354,5.5,5.4379,5.3946,5.3634,5.3433,5.3717,5.398,5.3997,5.398,5.398,5.398,5.3849,0.0,0.0,0.0,0.0,0.0,0.0,0.0,0.0,0.0,0.0,0.0,0.0,0.0,0.0,0.0,0.0,0.0,5.5993,5.5901,5.5901,5.5437,5.5061,5.471,5.4222,5.3915,5.37,5.3551,5.3501,5.3501,5.3501,5.3551,5.37,5.3915,5.4045,5.4239,5.4431,5.4512,5.4512,5.4717,5.4797,5.4842,5.493,5.4992,5.4992,5.4992,5.5096,5.5199,5.5199,5.5437,5.5671,5.5531,5.5572,5.5613,5.5319,5.5199,5.5139,5.4886,5.4637,5.4448,5.4239,5.4222,5.4175,5.4045,5.3997,5.3997,5.3997,5.3997,5.3915,5.3717,5.37,5.3517,5.2972,5.2537,5.2004,5.1194,5.0586,4.99,4.9078,4.88,4.8537,4.8286,4.8286,4.8286,4.8286,4.8286,4.837,4.862,4.7311,4.6603,4.6603,4.5264,4.4572,4.4572,4.4572,4.4572,4.4572,4.4572,4.4572,5.4948,5.4557,5.4222,5.3749,0.0,5.2956,5.3179,5.3382,5.3517,5.3717,5.3783,5.3849,5.398,5.3849,0.0,0.0,0.0,0.0,0.0,0.0,0.0,0.0,0.0,0.0,0.0,0.0,0.0,0.0,0.0,0.0,0.0,5.6123,5.6162,5.6273,5.5804,5.5437,5.5224,5.4693,5.4286,5.3915,5.3734,5.3601,5.3501,5.3618,5.3651,5.3717,5.4045,5.4158,5.4239,5.4575,5.4717,5.4717,5.4886,5.4948,5.4948,5.5096,5.5139,5.5199,5.5378,5.5555,5.5729,5.5922,5.6108,5.631,5.631,5.631,5.6237,5.5786,5.5671,5.5572,5.5053,5.4869,5.4745,5.4286,5.4028,5.3832,5.3783,5.3734,5.3618,5.3618,5.3618,5.3618,5.3551,5.3551,5.3484,5.3195,5.2747,5.2164,5.1092,5.0386,4.9836,4.9452,4.9144,4.8816,4.8816,4.8635,4.8537,4.8537,4.8537,4.8537,4.862,4.7472,4.6825,4.6825,4.5663,4.5055,4.5055,4.4889,4.4799,4.4799,4.4648,4.4648,5.4637,5.4175,0.0,5.3433,5.2972,5.2694,5.2972,0.0,0.0,0.0,5.3601,5.3668,5.38,5.3668,0.0,0.0,0.0,0.0,0.0,0.0,0.0,0.0,0.0,0.0,0.0,0.0,0.0,0.0,0.0,0.0,0.0,5.6346,5.6401,5.651,5.6217,5.5957,5.5733,5.5266,5.4861,5.446,5.4205,5.4045,5.3883,5.3783,5.3849,5.4045,5.435,5.454,5.454,5.4869,5.493,5.5009,5.5277,5.5336,5.5396,5.5671,5.5786,5.5769,5.6035,5.6219,5.6347,5.6546,5.6724,5.6847,5.6794,5.6742,5.6689,5.631,5.6199,5.6032,5.5514,5.5217,5.4913,5.4286,5.398,5.3783,5.3668,5.3551,5.3501,5.3501,5.3501,5.3501,5.3501,5.3501,5.3416,5.3264,5.2731,5.2004,5.1092,5.0464,4.9995,4.9757,4.9452,4.9225,4.9225,4.8965,4.8785,4.8867,4.88,4.8785,4.8867,4.7632,4.6904,4.6982,4.5815,4.522,4.522,4.5055,4.5039,4.5039,4.4889,4.5029,5.4374,5.3943,5.3499,5.323,5.2834,0.0,5.2834,5.3195,5.3501,5.3518,0.0,5.3501,5.3501,5.3501,0.0,0.0,0.0,0.0,0.0,0.0,0.0,0.0,0.0,0.0,0.0,0.0,0.0,0.0,0.0,0.0,0.0,5.6546,5.66,5.6653,5.6635,5.6564,5.6366,5.5943,5.5543,5.5301,5.4939,5.4728,5.4557,5.4028,5.4093,5.4557,5.493,5.5053,5.5053,5.5199,5.5242,5.5319,5.5786,5.5957,5.6032,5.6474,5.6653,5.6635,5.674,5.6897,5.7054,5.7036,5.7156,5.7188,5.7105,5.7054,5.7003,5.6689,5.6653,5.6546,5.6032,5.5613,5.5079,5.4286,5.4045,5.3866,5.3568,5.3501,5.3501,5.3501,5.3501,5.3501,5.3501,5.3501,5.3416,5.3264,5.259,5.1842,5.1252,5.0892,5.0448,5.0073,4.9836,4.9677,4.9677,4.9291,4.9144,4.9356,4.9225,4.9144,4.9437,4.7791,4.706,4.7216,4.5906,4.5294,4.5278,4.5294,4.5294,4.5294,4.5294,4.5637,5.2711,5.2487,0.0,5.2614,5.2694,5.2624,5.2624,5.2989,5.3332,5.3501,5.3501,5.3501,5.3501,5.3501,0.0,0.0,0.0,0.0,0.0,0.0,0.0,0.0,0.0,0.0,0.0,0.0,0.0,0.0,0.0,0.0,5.6546,5.66,5.6742,5.7054,5.6951,5.6933,5.7036,5.6564,5.6166,0.0,5.5426,5.5266,5.5308,5.4738,5.471,5.5079,5.5277,5.5413,5.5413,5.5631,5.5729,5.5786,5.6255,5.642,5.6474,5.6794,5.6899,5.6951,5.7188,5.7289,5.7338,5.7455,5.7486,5.7504,5.7338,5.7289,5.7239,5.7003,5.6899,5.6776,5.6237,5.5996,5.5711,5.4772,5.4158,5.3717,5.3568,5.3501,5.3501,5.3501,5.3501,5.3501,5.3501,5.3501,5.3416,5.3264,5.2886,5.2537,5.2092,5.1712,5.1343,5.1102,5.0586,5.0292,5.0292,4.9916,4.9677,4.9757,4.9773,4.9836,5.0214,4.8402,4.7448,4.7678,4.6355,4.5792,4.6064,4.5792,4.5719,4.592,4.5776,4.6196,5.1626,0.0,0.0,5.1422,0.0,5.1453,5.1506,5.178,5.2068,5.2286,5.2926,5.3501,5.3501,0.0,0.0,0.0,0.0,0.0,0.0,0.0,0.0,0.0,0.0,0.0,0.0,0.0,0.0,0.0,0.0,5.6437,5.66,5.6794,5.6984,5.7188,5.7257,5.7289,5.7388,5.7069,5.6827,5.6599,5.6294,5.6166,5.6093,5.5618,5.5478,5.5653,5.5901,5.6032,5.6032,5.6292,5.6456,5.6456,5.6829,5.6984,5.7003,5.7289,5.7388,5.7388,5.7601,5.7649,5.7601,5.7697,5.7601,5.7486,5.7388,5.7356,5.7307,5.7156,5.7105,5.6984,5.6617,5.6384,5.6052,5.542,5.4648,5.398,5.3668,5.3568,5.3501,5.3501,5.3501,5.3501,5.3501,5.3501,5.3433,5.3348,5.3195,5.2903,5.2607,5.2307,5.2076,5.1842,5.1475,5.1252,5.1252,5.0739,5.0586,5.0739,5.0509,5.0442,5.0542,4.9064,4.819,4.8206,4.678,4.6207,4.6458,4.6333,4.6404,4.6598,4.692,4.7523,5.0673,0.0,5.0358,5.0204,5.0204,0.0,5.0341,5.056,5.0793,5.0991,5.21,5.3112,0.0,0.0,0.0,0.0,0.0,0.0,0.0,0.0,0.0,0.0,0.0,0.0,0.0,0.0,0.0,0.0,0.0,5.66,5.6653,5.7003,5.7188,5.7257,5.7504,5.7649,5.7649,5.7553,5.7388,5.7289,5.7156,5.7018,5.6827,5.6528,5.6329,5.6274,5.6582,5.6689,5.6742,5.6951,5.7054,5.7105,5.7338,5.7455,5.7504,5.7697,5.7792,5.7792,5.7904,5.7839,5.7745,5.7745,5.7601,5.7406,5.7388,5.7307,5.7188,5.7188,5.7188,5.7156,5.7036,5.6706,5.6329,5.6014,5.5319,5.4557,5.3898,5.3668,5.3501,5.3501,5.3501,5.3501,5.3501,5.3501,5.3501,5.3501,5.3348,5.3195,5.3041,5.2817,5.2661,5.2449,5.2219,5.2131,5.2131,5.1623,5.1417,5.1786,5.1327,5.1002,5.0719,4.9746,4.9092,4.8819,4.7187,4.6528,4.6791,4.6945,4.7131,4.7449,4.8259,4.905,4.9342,0.0,5.0204,0.0,5.0323,5.0358,0.0,0.0,5.0974,0.0,5.1256,0.0,0.0,0.0,0.0,0.0,0.0,0.0,0.0,0.0,0.0,0.0,0.0,0.0,0.0,0.0,0.0,0.0,5.66,5.6689,5.6933,5.7105,5.7307,5.7553,5.7697,5.7839,5.795,5.7792,5.7745,5.7697,5.7601,5.7437,5.7289,5.7388,5.7239,5.6881,5.7036,5.7087,5.7138,5.7289,5.7356,5.7388,5.7649,5.7745,5.7745,5.7792,5.7792,5.7792,5.7697,5.7649,5.7601,5.7486,5.7455,5.7388,5.7239,5.7188,5.7188,5.7188,5.7188,5.7156,5.7036,5.6933,5.6776,5.6237,5.5901,5.542,5.4379,5.3898,5.3668,5.3501,5.3501,5.3501,5.3501,5.3501,5.3501,5.3501,5.3501,5.3433,5.3433,5.3264,5.311,5.311,5.2731,5.2503,5.2503,5.2307,5.2164,5.2236,5.2148,5.1905,5.1403,5.0433,4.9738,4.9244,4.7626,4.7082,4.7555,4.7421,4.7867,4.8845,4.8944,4.9841,4.8562,4.8895,4.9094,0.0,4.9259,4.9324,4.9324,0.0,4.9856,4.9856,0.0,0.0,0.0,0.0,0.0,0.0,0.0,0.0,0.0,0.0,0.0,0.0,0.0,0.0,0.0,0.0,0.0,0.0,5.5972,5.6361,5.7069,5.7289,5.7486,5.7697,5.7839,5.795,5.7997,5.795,5.7904,5.7904,5.7399,5.7133,5.7068,5.6658,5.6791,5.732,5.6982,5.6879,5.6842,5.6546,5.6666,5.7086,5.718,5.7454,5.7792,5.7792,5.7745,5.7697,5.7601,5.7553,5.7504,5.7388,5.7356,5.7307,5.7206,5.7188,5.7188,5.7188,5.7188,5.7206,5.7156,5.7054,5.6933,5.6671,5.6292,5.5826,5.5129,5.4488,5.3898,5.3551,5.3501,5.3501,5.3501,5.3501,5.3501,5.3501,5.3501,5.3501,5.3501,5.3416,5.3348,5.3348,5.3195,5.311,5.311,5.2886,5.2817,5.2989,5.2764,5.223,5.1363,5.0794,5.0009,4.9067,4.8002,4.7638,4.7968,4.8431,4.8944,4.9573,5.0491,5.1279,0.0,0.0,4.8356,4.8547,4.8673,4.8736,0.0,0.0,4.9185,0.0,0.0,0.0,0.0,0.0,0.0,0.0,0.0,0.0,0.0,0.0,0.0,0.0,0.0,0.0,0.0,0.0,0.0,0.0,5.5302,5.5757,5.6604,5.6885,5.7094,5.7188,5.7327,5.7391,5.7391,5.7391,5.7391,5.7373,5.6785,5.651,5.6473,5.5868,5.6145,5.7058,5.6566,5.6356,5.6301,5.5805,5.5941,5.651,5.6685,5.7061,5.7517,5.7624,5.7649,5.7534,5.7486,5.7437,5.7356,5.7356,5.7289,5.7188,5.7188,5.7188,5.7188,5.7188,5.7188,5.7188,5.7188,5.7156,5.7036,5.7003,5.6671,5.6146,5.5484,5.4738,5.4011,5.3618,5.3501,5.3501,5.3501,5.3501,5.3501,5.3501,5.3501,5.3501,5.3501,5.3501,5.3501,5.3501,5.3501,5.3501,5.3501,5.3348,5.3348,5.3501,5.3212,5.2522,5.1268,5.1039,5.0368,4.9215,4.8849,4.864,4.864,4.9337,4.9936,5.0534,5.1727,5.2418,0.0,4.8356,0.0,4.8877,4.9046,0.0,0.0,0.0,0.0,0.0,0.0,0.0,0.0,0.0,0.0,0.0,0.0,0.0,0.0,0.0,0.0,0.0,0.0,0.0,0.0,0.0,0.0,0.0,5.4791,5.4907,5.5087,5.5386,5.5523,5.5523,5.5658,5.5702,5.5702,5.5702,5.5702,5.5702,5.5666,5.5647,5.5647,5.5611,5.5629,5.5702,5.5666,5.5647,5.5647,5.5592,5.5611,5.5739,5.6356,5.6639,5.6721,5.7213,5.7406,5.7388,5.7239,5.7206,5.7188,5.7188,5.7206,5.7188,5.7188,5.7188,5.7188,5.7188,5.7188,5.7188,5.7188,5.7188,5.7156,5.7054,5.7003,5.6546,5.5061,5.435,5.398,5.3717,5.3618,5.3501,5.3501,5.3501,5.3501,5.3501,5.3501,5.3501,5.3501,5.3501,5.3501,5.3501,5.3501,5.3501,5.3501,5.3501,5.3501,5.3501,5.3501,5.2824,5.1285,5.1346,5.1116,5.0351,5.0407,5.0238,4.9846,4.988,5.0652,5.2198,5.2266,5.2706,0.0,0.0,0.0,4.9598,4.9866,5.004,5.0159,5.0289,0.0,0.0,0.0,0.0,0.0,0.0,0.0,0.0,0.0,0.0,0.0,0.0,0.0,0.0,0.0,0.0,0.0,0.0,0.0,0.0,0.0,5.4462,5.5222,5.535,5.544,5.5548,5.5574,5.5592,5.5592,5.5592,5.5592,5.5574,5.5078,5.4821,5.4803,5.4308,5.4069,5.4069,5.4069,5.4344,5.4785,5.4166,5.4257,5.4763,5.5414,5.5942,5.6441,5.7146,5.7356,5.7239,5.7206,5.7188,5.7188,5.7188,5.7188,5.7188,5.7188,5.7188,5.7188,5.7188,5.7188,5.7188,5.7188,5.7239,5.7307,5.7257,5.7054,5.6617,5.5751,5.5,5.435,5.398,5.3866,5.38,5.3668,5.3601,5.3601,5.3601,5.3551,5.3501,5.3501,5.3501,5.3501,5.3501,5.3501,5.3501,5.3501,5.3501,5.3501,5.3501,5.3501,5.3111,5.2126,5.214,5.1928,5.1304,5.135,5.1208,5.0909,5.14,5.1874,5.2317,5.2841,5.323,4.9195,0.0,0.0,0.0,5.0567,5.0785,5.0893,0.0,0.0,0.0,0.0,0.0,0.0,0.0,0.0,0.0,0.0,0.0,0.0,0.0,0.0,0.0,0.0,0.0,0.0,0.0,0.0,0.0,0.0,0.0,5.4642,5.4723,5.4723,5.4785,5.4785,5.4785,5.4785,5.4785,5.4785,5.4785,5.4252,5.4014,5.3977,5.3445,5.3164,5.3146,5.3146,5.3457,5.3897,5.3262,5.3266,5.3807,5.4793,5.5429,5.5916,5.6908,5.7206,5.7138,5.7138,5.7138,5.7138,5.7206,5.7188,5.7188,5.7188,5.7188,5.7188,5.7188,5.7188,5.7188,5.7257,5.7356,5.7455,5.7455,5.7188,5.6829,5.6402,5.5537,5.4665,5.4239,5.4045,5.398,5.3849,5.3783,5.3783,5.3783,5.3668,5.3551,5.3551,5.3501,5.3501,5.3501,5.3501,5.3501,5.3501,5.3501,5.3501,5.3551,5.3551,5.3279,5.2711,5.2742,5.2631,5.2244,5.2306,5.2381,5.2431,5.2558,5.2666,5.2755,5.3247,5.3501,0.0,0.0,0.0,0.0,0.0,0.0,5.1799,0.0,5.1897,0.0,0.0,0.0,0.0,0.0,0.0,0.0,0.0,0.0,0.0,0.0,0.0,0.0,0.0,0.0,0.0,0.0,0.0,0.0,5.344,5.344,5.33,5.33,5.3277,5.3206,5.3206,5.3206,5.3206,5.3206,5.3206,5.3206,5.3206,5.3206,5.3206,5.3206,5.3103,5.298,5.298,5.2999,5.2999,5.2999,5.2893,5.2925,5.4436,5.5007,5.5159,5.6508,5.7003,5.7003,5.7003,5.7003,5.7036,5.7156,5.7188,5.7188,5.7188,5.7188,5.7188,5.7188,5.7188,5.7257,5.7406,5.7504,5.7601,5.7601,5.7406,5.7156,5.6847,5.5901,5.493,5.4557,5.4239,5.4045,5.398,5.3997,5.3997,5.3997,5.3849,5.3717,5.3717,5.3618,5.3501,5.3501,5.3501,5.3501,5.3501,5.3501,5.3551,5.37,5.3717,5.346,5.2955,5.3078,5.3124,5.3124,5.3346,5.3725,5.4239,5.3198,5.302,5.3717,5.3551,5.3501,5.0605,0.0,0.0,0.0,0.0,0.0,5.2518,5.2499,5.2545,0.0,0.0,0.0,0.0,0.0,0.0,0.0,0.0,0.0,0.0,0.0,0.0,0.0,0.0,0.0,0.0,0.0,0.0,0.0,5.3833,5.3757,5.3757,5.3542,5.34,5.3295,5.323,5.3206,5.3206,5.3206,5.3206,5.3206,5.3206,5.3164,5.306,5.306,5.2999,5.2868,5.2868,5.2806,5.2698,5.2698,5.2698,5.2817,5.4332,5.4937,5.5118,5.6476,5.7003,5.7003,5.7003,5.7003,5.7036,5.7156,5.7188,5.7188,5.7188,5.7188,5.7188,5.7188,5.7257,5.7406,5.7649,5.7697,5.7745,5.7857,5.7697,5.7406,5.7036,5.6329,5.5613,5.4974,5.47,5.4512,5.4175,5.4158,5.4158,5.4158,5.4045,5.3915,5.3915,5.3849,5.38,5.3651,5.3651,5.3618,5.3501,5.3618,5.3651,5.3717,5.3849,5.3878,5.3866,5.3866,5.3977,5.4121,5.4201,5.4305,5.4448,5.3969,5.384,5.3915,5.3717,5.3651,5.1414,5.1843,5.2253,5.2714,0.0,0.0,5.3157,5.3217,5.3258,0.0,0.0,0.0,0.0,0.0,0.0,0.0,0.0,0.0,0.0,0.0,0.0,0.0,0.0,0.0,0.0,5.4303,5.4337,5.4318,5.4214,5.4125,5.4017,5.3813,5.3621,5.3521,5.3336,5.323,5.323,5.3206,5.3206,5.3206,5.3146,5.306,5.2999,5.2937,5.285,5.2717,5.2717,5.2672,5.2536,5.2536,5.2536,5.2699,5.432,5.484,5.4972,5.6374,5.6899,5.6847,5.6899,5.6899,5.6951,5.7138,5.7188,5.7188,5.7188,5.7188,5.7188,5.7257,5.7388,5.7601,5.7745,5.7839,5.7886,5.7997,5.7857,5.7601,5.7239,5.6776,5.6108,5.5259,5.4948,5.4717,5.4367,5.4303,5.4303,5.4303,5.4175,5.411,5.411,5.4045,5.398,5.3849,5.3849,5.3783,5.3751,5.3783,5.3849,5.3915,5.4045,5.4175,5.4303,5.4303,5.4367,5.4512,5.4512,5.4512,5.4512,5.4303,5.411,5.398,5.3849,5.3783,5.2065,5.2526,5.2938,5.3388,5.3604,0.0,5.3758,5.3814,5.3889,5.3926,0.0,0.0,0.0,0.0,0.0,0.0,0.0,0.0,0.0,0.0,0.0,0.0,0.0,0.0,5.4538,5.4622,5.4673,5.4571,5.4538,5.4472,5.4249,5.4054,5.3907,5.3851,5.3502,5.3341,5.3341,5.3272,5.3206,5.3206,5.3042,5.2999,5.2937,5.285,5.2698,5.2608,5.2545,5.2536,5.2498,5.2452,5.2498,5.2661,5.4273,5.4773,5.4769,5.6271,5.6689,5.6653,5.6742,5.6794,5.6847,5.7105,5.7188,5.7188,5.7188,5.7188,5.7239,5.7388,5.7601,5.7792,5.7792,5.7904,5.7997,5.7997,5.7904,5.7745,5.7504,5.7105,5.6564,5.5478,5.5035,5.478,5.4575,5.4512,5.4512,5.4512,5.4367,5.4222,5.4222,5.411,5.4045,5.4045,5.4045,5.398,5.398,5.398,5.4045,5.4158,5.4239,5.4303,5.4512,5.4512,5.4512,5.4512,5.4512,5.4512,5.4512,5.4303,5.4175,5.4045,5.4045,5.3915,0.0,5.3351,0.0,0.0,0.0,0.0,5.4277,5.4277,5.4277,0.0,0.0,0.0,0.0,0.0,0.0,0.0,0.0,0.0,0.0,0.0,0.0,0.0,0.0,0.0,5.4717,5.4767,5.4799,5.481,5.478,5.4654,5.4453,5.4281,5.4161,5.4055,5.3832,5.366,5.3545,5.3381,5.3254,5.3188,5.3042,5.2893,5.2698,5.2635,5.2581,5.2526,5.2387,5.234,5.2311,5.2198,5.2293,5.2643,5.4074,5.4639,5.4769,5.6114,5.6689,5.6742,5.6794,5.6899,5.7003,5.7156,5.7188,5.7188,5.7188,5.7307,5.7388,5.7649,5.7745,5.7839,5.795,5.7997,5.7997,5.7997,5.7997,5.7904,5.7601,5.7356,5.6881,5.6108,5.5478,5.5035,5.478,5.4592,5.4512,5.4512,5.4448,5.4448,5.4448,5.4448,5.4303,5.4175,5.4175,5.411,5.398,5.411,5.4175,5.4222,5.4367,5.4448,5.4512,5.4512,5.4512,5.4512,5.4512,5.4512,5.4512,5.4448,5.4448,5.4385,5.4239,5.411,0.0,0.0,0.0,5.4623,0.0,0.0,0.0,5.4809,5.4809,5.4819,0.0,0.0,0.0,0.0,0.0,0.0,0.0,0.0,0.0,0.0,0.0,0.0,0.0,0.0,5.4901,5.4901,5.4901,5.4901,5.489,5.481,5.4698,5.4533,5.4416,5.4334,5.4072,5.3907,5.3833,5.3542,5.3359,5.3254,5.3023,5.2787,5.259,5.2581,5.2526,5.2405,5.2311,5.2264,5.2216,5.215,5.2198,5.2455,5.3909,5.4471,5.4568,5.6062,5.6635,5.6689,5.6794,5.6899,5.7036,5.7156,5.7188,5.7188,5.7289,5.7455,5.7649,5.7745,5.7857,5.7904,5.7997,5.7997,5.7997,5.7997,5.7997,5.795,5.7745,5.7553,5.7188,5.6564,5.5996,5.5496,5.4904,5.4717,5.4655,5.4512,5.4512,5.4512,5.4512,5.4512,5.4431,5.4367,5.4367,5.4303,5.4257,5.4303,5.4367,5.4367,5.4431,5.4512,5.4512,5.4512,5.4512,5.4512,5.4512,5.4512,5.4512,5.4512,5.4512,5.4512,5.4367,5.4239,0.0,0.0,0.0,0.0,0.0,5.5231,0.0,0.0,0.0,0.0,0.0,0.0,0.0,0.0,0.0,0.0,0.0,0.0,0.0,0.0,0.0,0.0,0.0,0.0,0.0,5.5028,5.4971,5.4901,5.4901,5.4901,5.4901,5.4742,5.4629,5.4648,5.4352,5.4179,5.4163,5.3794,5.3481,5.3341,5.3023,5.2806,5.259,5.2554,5.2434,5.2358,5.2264,5.2198,5.2102,5.2036,5.2036,5.2197,5.3742,5.432,5.4397,5.5955,5.66,5.6653,5.6742,5.6899,5.7054,5.7138,5.7206,5.7257,5.7455,5.7649,5.781,5.7839,5.7904,5.7997,5.7997,5.7997,5.7997,5.7997,5.7997,5.7997,5.7839,5.7745,5.7504,5.7003,5.651,5.5957,5.5053,5.4842,5.4717,5.4512,5.4512,5.4512,5.4512,5.4512,5.4512,5.4512,5.4512,5.4512,5.4512,5.4512,5.4512,5.4512,5.4512,5.4512,5.4512,5.4512,5.4512,5.4512,5.4512,5.4512,5.4512,5.4512,5.4512,5.4512,5.4512,5.4303,0.0,0.0,0.0,0.0,5.5504,0.0,0.0,0.0,5.5728,5.573,0.0,0.0,0.0,0.0,0.0,0.0,0.0,0.0,0.0,0.0,0.0,0.0,0.0,0.0,0.0,5.5066,5.4971,5.4901,5.4901,5.4901,5.4901,5.4871,5.4841,5.4767,5.4616,5.4486,5.4356,5.4036,5.3737,5.3481,5.3254,5.2937,5.259,5.259,5.2536,5.2452,5.2246,5.2084,5.2084,5.184,5.174,5.1901,5.354,5.4217,5.4363,5.5848,5.66,5.6794,5.6794,5.6951,5.7188,5.7206,5.7289,5.7437,5.7697,5.7792,5.7839,5.795,5.7997,5.7997,5.7997,5.7997,5.7997,5.7997,5.7997,5.7997,5.7997,5.7886,5.7649,5.7257,5.6951,5.6402,5.5319,5.4948,5.4717,5.4512,5.4512,5.4512,5.4512,5.4512,5.4512,5.4512,5.4512,5.4512,5.4512,5.4512,5.4512,5.4512,5.4512,5.4512,5.4512,5.4512,5.4512,5.4512,5.4512,5.4512,5.4512,5.4512,5.4512,5.4512,5.4512,5.4367,0.0,0.0,0.0,0.0,0.0,0.0,5.5941,0.0,5.6024,0.0,0.0,0.0,0.0,0.0,0.0,0.0,5.6136,0.0,0.0,0.0,0.0,0.0,0.0,0.0,0.0,0.0,0.0,0.0,5.4901,5.4901,5.4901,5.4901,5.4871,5.486,5.478,5.4686,5.4641,5.4249,5.3981,5.3776,5.3502,5.3175,5.2882,5.2831,5.2717,5.2536,5.2387,5.2322,5.2257,5.2036,5.1987,5.2197,5.3692,5.4217,5.4258,5.5902,5.6653,5.6794,5.6899,5.7054,5.7188,5.7289,5.7455,5.7649,5.7745,5.7839,5.795,5.7997,5.7997,5.7997,5.7997,5.7997,5.7997,5.7997,5.7997,5.7997,5.7997,5.795,5.7792,5.7504,5.7206,5.6776,5.5978,5.5378,5.493,5.4717,5.4575,5.4512,5.4512,5.4512,5.4512,5.4512,5.4512,5.4512,5.4512,5.4512,5.4512,5.4512,5.4512,5.4512,5.4512,5.4512,5.4512,5.4512,5.4512,5.4512,5.4512,5.4512,5.4512,5.4512,5.4512,5.4367,5.5047,0.0,0.0,0.0,0.0,0.0,0.0,0.0,0.0,0.0,0.0,0.0,0.0,0.0,0.0,0.0,0.0,5.6285,0.0,0.0,0.0,0.0,0.0,0.0,0.0,0.0,0.0,5.4941,5.4901,5.4901,5.4901,5.4901,5.4901,5.4901,5.486,5.4829,5.4799,5.4453,5.4212,5.4052,5.3813,5.3502,5.3198,5.3091,5.2962,5.2725,5.2599,5.2536,5.2563,5.2351,5.2322,5.256,5.4038,5.4503,5.4499,5.6096,5.6794,5.7003,5.7105,5.7206,5.7338,5.7455,5.7649,5.7792,5.7839,5.7932,5.7997,5.7997,5.7997,5.7997,5.7997,5.7997,5.7997,5.7997,5.7997,5.7997,5.7997,5.7997,5.795,5.7697,5.7455,5.7138,5.6635,5.5922,5.5259,5.4948,5.4807,5.4683,5.462,5.4637,5.4637,5.4637,5.4575,5.4575,5.4575,5.4512,5.4512,5.4512,5.4512,5.4512,5.4512,5.4512,5.4512,5.4512,5.4512,5.4512,5.4575,5.4575,5.4575,5.462,5.4557,5.4431,0.0,0.0,0.0,5.5789,0.0,0.0,0.0,0.0,5.6333,0.0,0.0,0.0,0.0,0.0,0.0,5.6406,0.0,0.0,0.0,0.0,0.0,0.0,0.0,0.0,0.0,0.0,5.5149,5.5,5.4931,5.4901,5.4901,5.4901,5.4901,5.4901,5.4901,5.489,5.4799,5.4648,5.4468,5.4179,5.4127,5.387,5.3481,5.3359,5.3198,5.3054,5.2725,5.2743,5.2937,5.2698,5.2654,5.2925,5.4528,5.5148,5.5301,5.6559,5.7138,5.7388,5.7406,5.7486,5.7601,5.7745,5.7792,5.7839,5.795,5.7997,5.7997,5.7997,5.7997,5.7997,5.7997,5.7997,5.7997,5.7997,5.7997,5.7997,5.7997,5.7997,5.795,5.7792,5.7697,5.7504,5.7239,5.6438,5.5729,5.5259,5.5199,5.5139,5.4992,5.4992,5.4992,5.4992,5.4886,5.4797,5.4797,5.4575,5.4512,5.4512,5.4512,5.4512,5.4512,5.4512,5.4512,5.4512,5.4512,5.4592,5.4797,5.4797,5.4842,5.4992,5.462,5.4512,0.0,0.0,5.5596,5.5767,0.0,0.0,0.0,0.0,0.0,0.0,0.0,0.0,0.0,0.0,0.0,5.6483,5.6437,0.0,0.0,0.0,0.0,0.0,0.0,0.0,0.0,0.0,0.0,5.5066,5.4941,5.4901,5.4901,5.4901,5.4901,5.4901,5.4901,5.4871,5.489,5.478,5.4654,5.4524,5.439,5.4163,5.3907,5.3775,5.3641,5.3542,5.3345,5.3363,5.3521,5.3222,5.3222,5.347,5.5024,5.5736,5.6005,5.718,5.7613,5.7649,5.7649,5.7745,5.7857,5.7792,5.7839,5.795,5.7997,5.7997,5.7997,5.7997,5.7997,5.7997,5.8106,5.8152,5.8133,5.8242,5.8242,5.8242,5.8242,5.8242,5.8242,5.8197,5.8106,5.795,5.7745,5.7419,5.6897,5.6035,5.5769,5.5613,5.5496,5.5378,5.5242,5.5139,5.4992,5.4948,5.4948,5.478,5.4717,5.4717,5.4575,5.4512,5.4512,5.4512,5.4512,5.4512,5.4512,5.4592,5.4797,5.4797,5.4886,5.5139,5.5035,5.4957,5.5,5.5255,0.0,5.5684,5.5903,0.0,5.6174,0.0,0.0,0.0,0.0,0.0,0.0,0.0,0.0,5.6488,5.6461,0.0,0.0,5.6417,0.0,0.0,0.0,0.0,0.0,0.0,5.5307,5.5149,5.5028,5.4931,0.0,0.0,5.4901,5.4901,5.4901,5.4901,5.4901,5.486,5.4799,5.4692,5.4576,5.4409,5.4146,5.4036,5.3963,5.3907,5.3737,5.3775,5.3907,5.3662,5.3662,5.3981,5.5559,5.6269,5.6572,5.774,5.8131,5.8168,5.8115,5.8115,5.807,5.7997,5.795,5.7997,5.7997,5.7997,5.7997,5.8042,5.8088,5.8088,5.8242,5.8286,5.8286,5.8393,5.8393,5.8393,5.8393,5.8393,5.8393,5.8393,5.8349,5.8242,5.8152,5.8042,5.7631,5.6775,5.6474,5.6329,5.6146,5.5922,5.5751,5.5578,5.5437,5.5277,5.5096,5.4948,5.4842,5.478,5.4655,5.4575,5.4512,5.4512,5.4512,5.4512,5.4512,5.4637,5.4886,5.4948,5.5156,5.5537,5.5555,5.5613]},{"header":{"parameterUnit":"m.s-1","parameterCategory":1,"la1":30.6,"la2":29.2853,"lo1":-89.7004,"lo2":-87.6739,"dy":0.0162,"dx":0.0183,"nx":112,"ny":82,"refTime":"2024-02-24T06:00:00:Z","depth":0,"parameterNumber":3,"parameterNumberName":"V-component_of_WINDS"},"data":[0.0,0.0,0.0,0.0,0.0,0.0,0.0,0.0,0.0,0.0,0.0,0.0,0.0,0.0,0.0,0.0,0.0,0.0,0.0,0.0,0.0,0.0,0.0,0.0,0.0,0.0,0.0,0.0,0.0,0.0,0.0,0.0,0.0,0.0,0.0,0.0,0.0,0.0,0.0,0.0,0.0,0.0,0.0,0.0,0.0,0.0,0.0,0.0,0.0,0.0,0.0,0.0,0.0,0.0,0.0,0.0,0.0,0.0,0.0,0.0,0.0,0.0,0.0,0.0,0.0,0.0,0.0,0.0,0.0,0.0,0.0,0.0,0.0,0.0,0.0,0.0,0.0,0.0,0.0,0.0,0.0,0.0,0.0,0.0,0.0,0.0,0.0,0.0,0.0,0.0,-3.0671,-3.0733,-3.0906,-3.114,-3.1336,-3.1416,-3.1269,-3.0918,0.0,0.0,0.0,0.0,0.0,0.0,0.0,0.0,0.0,0.0,0.0,0.0,0.0,0.0,0.0,0.0,0.0,0.0,0.0,0.0,0.0,0.0,0.0,0.0,0.0,0.0,0.0,0.0,0.0,0.0,0.0,0.0,0.0,0.0,0.0,0.0,0.0,0.0,0.0,0.0,0.0,0.0,0.0,0.0,0.0,0.0,0.0,0.0,0.0,0.0,0.0,0.0,0.0,0.0,0.0,0.0,0.0,0.0,0.0,0.0,0.0,0.0,0.0,0.0,0.0,0.0,0.0,0.0,0.0,0.0,0.0,0.0,0.0,0.0,0.0,0.0,0.0,0.0,0.0,0.0,0.0,0.0,0.0,0.0,0.0,0.0,0.0,0.0,0.0,0.0,0.0,0.0,0.0,0.0,0.0,0.0,0.0,0.0,0.0,0.0,0.0,0.0,0.0,0.0,-3.0282,-3.0176,-3.0438,-3.0581,-3.0526,-3.0859,-3.0957,-3.0898,0.0,0.0,0.0,0.0,0.0,0.0,0.0,0.0,0.0,0.0,0.0,0.0,0.0,0.0,0.0,0.0,0.0,0.0,0.0,0.0,0.0,0.0,0.0,0.0,0.0,0.0,0.0,0.0,0.0,0.0,0.0,0.0,0.0,0.0,0.0,0.0,0.0,0.0,0.0,0.0,0.0,0.0,0.0,0.0,0.0,0.0,0.0,0.0,0.0,0.0,0.0,0.0,0.0,0.0,0.0,0.0,0.0,0.0,0.0,0.0,0.0,0.0,0.0,0.0,0.0,0.0,0.0,0.0,0.0,0.0,0.0,0.0,0.0,0.0,0.0,0.0,0.0,0.0,0.0,0.0,0.0,0.0,0.0,0.0,0.0,0.0,0.0,0.0,0.0,0.0,0.0,0.0,0.0,0.0,0.0,0.0,0.0,0.0,0.0,0.0,0.0,0.0,0.0,-2.9855,-2.9831,-2.9785,-2.9968,-3.0249,-3.0401,-3.0762,-3.0889,-3.0889,-3.0889,0.0,0.0,0.0,0.0,0.0,0.0,0.0,0.0,0.0,0.0,0.0,0.0,0.0,0.0,0.0,0.0,0.0,0.0,0.0,0.0,0.0,0.0,0.0,0.0,0.0,0.0,0.0,0.0,0.0,0.0,0.0,0.0,0.0,0.0,0.0,0.0,0.0,0.0,0.0,0.0,0.0,0.0,0.0,0.0,0.0,0.0,0.0,0.0,0.0,0.0,0.0,0.0,0.0,0.0,0.0,0.0,0.0,0.0,0.0,0.0,0.0,0.0,0.0,0.0,0.0,0.0,0.0,0.0,0.0,0.0,0.0,0.0,0.0,0.0,0.0,0.0,0.0,0.0,0.0,0.0,0.0,0.0,0.0,0.0,0.0,0.0,0.0,0.0,0.0,0.0,0.0,0.0,0.0,0.0,0.0,0.0,0.0,0.0,0.0,0.0,0.0,0.0,-2.9434,-2.9435,-2.9368,-2.9686,-3.0039,-3.0392,-3.0752,-3.0995,-3.0995,-3.0995,0.0,0.0,0.0,0.0,0.0,0.0,0.0,0.0,0.0,0.0,0.0,0.0,0.0,0.0,0.0,0.0,0.0,0.0,0.0,0.0,0.0,0.0,0.0,0.0,0.0,0.0,0.0,0.0,0.0,0.0,0.0,0.0,0.0,0.0,0.0,0.0,0.0,0.0,0.0,0.0,0.0,0.0,0.0,0.0,0.0,0.0,0.0,0.0,0.0,0.0,0.0,0.0,0.0,0.0,0.0,0.0,0.0,0.0,0.0,0.0,0.0,0.0,0.0,0.0,0.0,0.0,0.0,0.0,0.0,0.0,0.0,0.0,0.0,0.0,0.0,0.0,0.0,0.0,0.0,0.0,0.0,0.0,0.0,0.0,0.0,0.0,0.0,0.0,0.0,0.0,0.0,0.0,0.0,0.0,0.0,0.0,0.0,0.0,0.0,0.0,0.0,0.0,-2.9021,-2.9012,-2.8984,-2.9568,-3.0039,-3.0392,-3.0976,-3.1208,-3.1208,-3.1208,0.0,0.0,0.0,0.0,0.0,0.0,0.0,0.0,0.0,0.0,0.0,0.0,0.0,0.0,0.0,0.0,0.0,0.0,0.0,0.0,0.0,0.0,0.0,0.0,0.0,0.0,0.0,0.0,0.0,0.0,0.0,0.0,0.0,0.0,0.0,0.0,0.0,0.0,0.0,0.0,0.0,0.0,0.0,0.0,0.0,0.0,0.0,0.0,0.0,0.0,0.0,0.0,0.0,0.0,0.0,0.0,0.0,0.0,0.0,0.0,0.0,0.0,0.0,0.0,0.0,0.0,0.0,0.0,0.0,0.0,0.0,0.0,0.0,0.0,0.0,0.0,0.0,0.0,0.0,0.0,0.0,0.0,0.0,0.0,0.0,0.0,0.0,0.0,0.0,0.0,0.0,0.0,0.0,0.0,0.0,0.0,0.0,0.0,0.0,0.0,0.0,0.0,-2.8984,-2.9103,0.0,-2.9804,-3.0392,-3.0733,-3.1208,-3.1556,-3.1556,0.0,0.0,0.0,0.0,0.0,0.0,0.0,0.0,0.0,0.0,0.0,0.0,0.0,0.0,0.0,0.0,0.0,0.0,0.0,0.0,0.0,0.0,0.0,0.0,0.0,0.0,0.0,0.0,0.0,0.0,0.0,0.0,0.0,0.0,0.0,0.0,0.0,0.0,0.0,0.0,0.0,0.0,0.0,0.0,0.0,0.0,0.0,0.0,0.0,0.0,0.0,0.0,0.0,0.0,0.0,0.0,0.0,0.0,0.0,0.0,0.0,0.0,0.0,0.0,0.0,0.0,0.0,0.0,0.0,0.0,0.0,0.0,0.0,0.0,0.0,0.0,0.0,0.0,0.0,0.0,0.0,0.0,0.0,0.0,0.0,0.0,0.0,0.0,0.0,0.0,0.0,0.0,0.0,0.0,0.0,0.0,0.0,0.0,0.0,0.0,0.0,0.0,-2.8984,-2.9094,-2.9213,0.0,-3.0265,-3.085,-3.1199,-3.1777,-3.2238,-3.2238,0.0,0.0,0.0,0.0,0.0,0.0,0.0,0.0,0.0,0.0,0.0,0.0,0.0,0.0,0.0,0.0,0.0,0.0,0.0,0.0,0.0,0.0,0.0,0.0,0.0,0.0,0.0,0.0,0.0,0.0,0.0,0.0,0.0,0.0,0.0,0.0,0.0,0.0,0.0,0.0,0.0,0.0,0.0,0.0,0.0,0.0,0.0,0.0,0.0,0.0,0.0,0.0,0.0,0.0,0.0,0.0,0.0,0.0,0.0,0.0,0.0,0.0,0.0,0.0,0.0,0.0,0.0,0.0,0.0,0.0,0.0,0.0,0.0,0.0,0.0,0.0,0.0,0.0,0.0,0.0,0.0,0.0,0.0,0.0,0.0,0.0,0.0,0.0,0.0,0.0,0.0,0.0,0.0,0.0,0.0,0.0,0.0,0.0,0.0,0.0,0.0,0.0,-2.8984,-2.9331,-2.9568,-2.9558,-3.0616,-3.1441,-3.1787,-3.2696,-3.3264,0.0,0.0,0.0,0.0,0.0,0.0,0.0,0.0,0.0,0.0,0.0,0.0,0.0,0.0,0.0,0.0,0.0,0.0,0.0,0.0,0.0,0.0,0.0,0.0,0.0,0.0,0.0,0.0,0.0,0.0,0.0,0.0,0.0,0.0,0.0,0.0,0.0,0.0,0.0,0.0,0.0,0.0,0.0,0.0,0.0,0.0,0.0,0.0,0.0,0.0,0.0,0.0,0.0,0.0,0.0,0.0,0.0,0.0,0.0,0.0,0.0,0.0,0.0,0.0,0.0,0.0,0.0,0.0,0.0,0.0,0.0,0.0,0.0,0.0,0.0,0.0,0.0,0.0,0.0,0.0,0.0,0.0,0.0,0.0,0.0,0.0,0.0,0.0,0.0,0.0,0.0,0.0,0.0,0.0,0.0,0.0,0.0,0.0,0.0,0.0,0.0,0.0,0.0,-2.9331,-2.9568,-3.0039,-3.0743,-3.1431,-3.2123,-3.2696,-3.3161,-3.3625,-3.3851,0.0,0.0,0.0,0.0,0.0,0.0,0.0,0.0,0.0,0.0,0.0,0.0,0.0,0.0,0.0,0.0,0.0,0.0,0.0,0.0,0.0,0.0,0.0,0.0,0.0,0.0,0.0,0.0,0.0,0.0,0.0,0.0,0.0,0.0,0.0,0.0,0.0,0.0,0.0,0.0,0.0,0.0,0.0,0.0,0.0,0.0,0.0,0.0,0.0,0.0,0.0,0.0,0.0,0.0,0.0,0.0,0.0,0.0,0.0,0.0,0.0,0.0,0.0,0.0,0.0,0.0,0.0,0.0,0.0,0.0,0.0,0.0,0.0,0.0,0.0,0.0,0.0,0.0,0.0,0.0,0.0,0.0,0.0,0.0,0.0,0.0,0.0,0.0,0.0,0.0,0.0,0.0,0.0,0.0,0.0,0.0,0.0,0.0,0.0,0.0,0.0,0.0,-2.9568,-3.0157,-3.0743,-3.1441,-3.2238,-3.2913,-3.3367,-3.3727,-3.4076,-3.4423,0.0,0.0,0.0,0.0,0.0,0.0,0.0,0.0,0.0,0.0,0.0,0.0,0.0,0.0,0.0,0.0,0.0,0.0,0.0,0.0,0.0,0.0,0.0,0.0,0.0,0.0,0.0,0.0,0.0,0.0,0.0,0.0,0.0,0.0,0.0,0.0,0.0,0.0,0.0,0.0,0.0,0.0,0.0,0.0,0.0,0.0,0.0,0.0,0.0,0.0,0.0,0.0,0.0,0.0,0.0,0.0,0.0,0.0,0.0,0.0,0.0,0.0,0.0,0.0,0.0,0.0,0.0,0.0,0.0,0.0,0.0,0.0,0.0,0.0,0.0,0.0,0.0,0.0,0.0,0.0,0.0,0.0,0.0,0.0,0.0,0.0,0.0,0.0,0.0,0.0,0.0,0.0,0.0,0.0,0.0,0.0,0.0,0.0,0.0,0.0,0.0,0.0,-2.9922,-3.0859,-3.1556,-3.1903,-3.2934,-3.3614,-3.3695,-3.4166,-3.4646,-3.4991,0.0,0.0,0.0,0.0,0.0,0.0,0.0,0.0,0.0,0.0,0.0,0.0,0.0,0.0,0.0,0.0,0.0,0.0,0.0,0.0,0.0,0.0,0.0,0.0,0.0,0.0,0.0,0.0,0.0,0.0,0.0,0.0,0.0,0.0,0.0,0.0,0.0,0.0,0.0,0.0,0.0,0.0,0.0,0.0,0.0,0.0,0.0,0.0,0.0,0.0,0.0,0.0,0.0,0.0,0.0,0.0,0.0,0.0,0.0,0.0,-2.6894,0.0,0.0,0.0,0.0,0.0,0.0,0.0,0.0,0.0,0.0,0.0,0.0,0.0,0.0,0.0,0.0,0.0,0.0,0.0,0.0,0.0,0.0,0.0,0.0,0.0,0.0,0.0,0.0,0.0,0.0,0.0,0.0,0.0,0.0,0.0,0.0,0.0,0.0,0.0,0.0,0.0,-3.048,-3.1421,-3.2342,-3.313,-3.3727,-3.4076,-3.4289,-3.4412,-3.4747,-3.5312,-3.5511,0.0,0.0,0.0,0.0,0.0,0.0,0.0,0.0,0.0,0.0,0.0,0.0,0.0,0.0,0.0,0.0,0.0,0.0,0.0,0.0,0.0,0.0,0.0,0.0,0.0,0.0,0.0,0.0,0.0,0.0,0.0,0.0,0.0,0.0,0.0,0.0,0.0,0.0,0.0,0.0,0.0,0.0,0.0,0.0,0.0,0.0,0.0,0.0,0.0,0.0,0.0,0.0,0.0,0.0,0.0,0.0,0.0,0.0,0.0,0.0,-2.8362,0.0,0.0,0.0,0.0,0.0,0.0,0.0,0.0,0.0,0.0,0.0,0.0,0.0,0.0,0.0,0.0,0.0,0.0,0.0,0.0,0.0,0.0,0.0,0.0,0.0,0.0,0.0,0.0,0.0,0.0,0.0,0.0,0.0,0.0,0.0,0.0,0.0,0.0,0.0,0.0,-3.1189,-3.2113,-3.3027,-3.3717,-3.4076,-3.43,-3.4524,-3.4646,-3.4969,-3.5511,-3.6048,0.0,0.0,0.0,0.0,0.0,0.0,0.0,0.0,0.0,0.0,0.0,0.0,0.0,0.0,0.0,0.0,0.0,0.0,0.0,0.0,0.0,0.0,0.0,0.0,0.0,0.0,0.0,0.0,0.0,0.0,0.0,0.0,0.0,0.0,0.0,0.0,0.0,0.0,0.0,0.0,0.0,0.0,0.0,0.0,0.0,0.0,0.0,0.0,0.0,0.0,0.0,0.0,0.0,-2.8757,-2.9168,-2.9447,-2.9822,-2.9952,-2.9822,-2.9421,-2.9299,-2.97,-3.0611,0.0,0.0,0.0,0.0,0.0,0.0,0.0,0.0,0.0,0.0,0.0,0.0,0.0,0.0,0.0,0.0,0.0,0.0,0.0,0.0,0.0,0.0,0.0,0.0,-3.1672,-3.1199,0.0,0.0,0.0,0.0,0.0,0.0,0.0,0.0,0.0,0.0,0.0,0.0,-3.1672,-3.2581,-3.3388,-3.4086,-3.4311,-3.4524,-3.4524,-3.4858,-3.529,-3.5927,-3.658,-3.7334,0.0,0.0,0.0,0.0,0.0,0.0,0.0,0.0,0.0,0.0,0.0,0.0,0.0,0.0,0.0,0.0,0.0,0.0,0.0,0.0,0.0,0.0,0.0,0.0,0.0,0.0,0.0,0.0,0.0,0.0,0.0,0.0,-1.8816,-1.9322,0.0,0.0,0.0,0.0,0.0,0.0,0.0,0.0,0.0,0.0,0.0,0.0,0.0,-2.4576,-2.5976,-2.6955,-2.8223,-2.9543,-2.9674,-2.9822,-3.0239,-3.0239,-3.0369,-3.0369,-3.049,0.0,-3.0741,-3.1129,0.0,0.0,0.0,0.0,0.0,0.0,0.0,0.0,0.0,0.0,0.0,0.0,0.0,0.0,0.0,0.0,0.0,0.0,0.0,0.0,0.0,0.0,-3.2248,-3.2248,-3.2352,-3.2352,0.0,-3.085,-3.0265,-3.0265,-3.0265,0.0,0.0,0.0,0.0,0.0,0.0,0.0,-3.1787,-3.2602,-3.342,-3.4086,-3.4086,-3.4311,-3.488,-3.5179,-3.5708,-3.6483,-3.7334,-3.8185,-3.9013,-3.9865,0.0,0.0,0.0,0.0,0.0,0.0,0.0,0.0,0.0,0.0,0.0,0.0,0.0,0.0,0.0,0.0,0.0,0.0,0.0,0.0,0.0,0.0,0.0,0.0,0.0,0.0,0.0,0.0,0.0,-1.8938,-1.9717,-1.9845,-2.0227,-2.0361,0.0,0.0,0.0,0.0,0.0,0.0,0.0,0.0,0.0,-2.3487,-2.4554,-2.5897,-2.7647,-2.8298,-2.9318,-3.0723,-3.0723,-3.0732,-3.1,-3.1,-3.1,-3.1,-3.1129,-3.1129,-3.1249,-3.1377,-3.1377,-3.1377,0.0,0.0,0.0,0.0,-2.9828,-2.9278,-2.9058,-2.8984,0.0,-2.945,0.0,0.0,0.0,0.0,0.0,0.0,0.0,0.0,0.0,0.0,-3.2487,-3.2487,-3.2716,-3.2944,-3.2602,-3.2363,-3.2008,0.0,-3.1421,-3.1305,-3.1199,0.0,0.0,0.0,0.0,-3.1787,-3.2238,-3.283,-3.342,-3.4086,-3.4086,-3.4423,-3.5179,-3.5609,-3.6254,-3.7131,-3.8185,-3.9025,-3.9647,-4.0491,-4.1298,0.0,0.0,0.0,0.0,0.0,0.0,0.0,0.0,0.0,0.0,0.0,0.0,0.0,0.0,0.0,0.0,0.0,0.0,0.0,0.0,0.0,0.0,0.0,0.0,0.0,0.0,0.0,0.0,-1.9845,-2.0234,-2.0482,-2.0736,-2.0729,0.0,0.0,0.0,0.0,0.0,0.0,-2.2362,-2.2863,-2.3611,-2.461,-2.5399,-2.6632,-2.8295,-2.8913,-2.9681,-3.0861,-3.0991,-3.0982,-3.0982,-3.1249,-3.1249,-3.1249,-3.1377,-3.1377,-3.1377,-3.1377,-3.1377,-3.1377,-3.1377,-3.1139,-3.0745,-3.0341,-2.9938,-2.9516,-2.9122,-2.8984,-2.9103,-2.945,-2.9922,-3.0499,-3.0946,0.0,0.0,0.0,0.0,-3.2018,-3.2248,-3.2487,-3.2727,-3.2727,-3.2965,-3.3193,-3.3306,-3.3523,-3.3512,0.0,-3.2467,-3.2352,-3.2123,0.0,0.0,0.0,0.0,-3.2133,-3.2581,-3.2944,-3.342,-3.3974,-3.4086,-3.4524,-3.5488,-3.6157,-3.6916,-3.7761,-3.8804,-3.9647,-4.0275,-4.1097,-4.1993,-4.2652,0.0,0.0,0.0,0.0,0.0,0.0,0.0,0.0,0.0,0.0,0.0,0.0,0.0,0.0,0.0,0.0,0.0,0.0,0.0,0.0,0.0,0.0,0.0,0.0,0.0,0.0,0.0,0.0,0.0,-2.1481,-2.1481,0.0,0.0,0.0,0.0,-2.1985,-2.2111,-2.2362,-2.2981,-2.3113,-2.3611,-2.461,-2.5636,-2.6503,-2.7275,-2.8248,-2.902,-2.9438,-2.9691,-2.9944,-2.9944,-3.0611,-3.087,-3.1,-3.1249,-3.1377,-3.1377,-3.1377,-3.1377,-3.1377,-3.1377,-3.1139,-3.0745,-3.0341,-2.9938,-2.9516,-2.9122,-2.8984,-2.9103,-2.9695,-3.0743,-3.1787,-3.1998,-3.2102,0.0,0.0,-3.2238,-3.2248,-3.2248,-3.2487,-3.2727,-3.2727,-3.2965,-3.3306,-3.3523,-3.3861,-3.3974,0.0,-3.3296,-3.3069,-3.2696,0.0,-3.2133,-3.1787,-3.2018,-3.2258,-3.2363,-3.2841,-3.3306,-3.3625,-3.4188,-3.4847,-3.5697,-3.658,-3.7453,-3.8303,-3.9453,-4.0275,-4.0883,-4.1908,-4.2679,-4.3136,-4.4167,0.0,0.0,0.0,0.0,0.0,0.0,0.0,0.0,0.0,0.0,0.0,0.0,0.0,0.0,0.0,0.0,0.0,0.0,0.0,0.0,0.0,0.0,0.0,0.0,0.0,0.0,0.0,0.0,-2.1607,-2.1734,0.0,-2.2111,-2.2362,-2.2355,-2.2355,-2.2606,-2.2988,-2.3736,-2.3736,-2.4331,-2.5545,-2.6151,-2.6897,-2.7897,-2.8521,-2.8905,-2.9036,-2.9299,-2.943,-2.9159,-2.9813,-3.0213,-3.0213,-3.087,-3.1129,-3.1129,-3.1249,-3.1377,-3.1377,-3.1377,-3.1295,-3.1121,-3.0726,-3.0323,-2.992,-2.9507,-2.9195,-2.9103,-2.9922,-3.0976,-3.1903,-3.2123,-3.2592,-3.283,-3.2592,-3.2487,-3.2612,-3.2612,-3.2612,-3.2727,-3.2727,-3.2965,-3.3193,-3.3306,-3.3523,-3.3738,-3.3625,-3.3523,-3.3399,-3.3058,-3.2716,-3.2612,-3.2727,-3.2841,-3.2955,-3.3058,-3.3523,-3.3963,-3.4379,-3.4936,-3.5817,-3.6893,-3.7548,-3.8198,-3.8945,-3.9878,-4.0694,-4.1398,-4.2373,-4.3328,-4.4167,-4.5003,-4.5544,0.0,0.0,0.0,0.0,0.0,0.0,0.0,0.0,0.0,0.0,0.0,0.0,0.0,0.0,0.0,0.0,0.0,0.0,0.0,0.0,0.0,0.0,0.0,0.0,0.0,0.0,-2.1488,-2.1859,-2.2111,-2.2355,-2.2487,-2.2606,-2.2731,-2.2731,-2.2981,-2.3355,-2.386,-2.3984,-2.4385,-2.5604,-2.5961,-2.6576,-2.732,-2.767,-2.7849,-2.7708,-2.8246,-2.8246,-2.7965,-2.8888,-2.929,-2.929,-3.0213,-3.0482,-3.0611,-3.0991,-3.1249,-3.1249,-3.1377,-3.1377,-3.1332,-3.0937,-3.0543,-3.0121,-2.9562,-2.9315,-2.9331,-3.0147,-3.0966,-3.1672,-3.2248,-3.2706,-3.3069,-3.2841,-3.2737,-3.2727,-3.2727,-3.2727,-3.2727,-3.2727,-3.2851,-3.3079,-3.3193,-3.3306,-3.3523,-3.3523,-3.3523,-3.3409,-3.3296,-3.3079,-3.2965,-3.342,-3.3533,-3.3636,-3.3942,-3.4289,-3.4725,-3.5245,-3.5916,-3.6677,-3.7655,-3.8198,-3.8736,-3.927,-4.0185,-4.0997,-4.1696,-4.2833,-4.3885,-4.4833,-4.5619,-4.5989,-4.5863,0.0,0.0,0.0,0.0,0.0,0.0,0.0,0.0,0.0,0.0,0.0,0.0,0.0,0.0,0.0,0.0,0.0,0.0,0.0,0.0,0.0,0.0,0.0,-2.1109,-2.1355,-2.1859,-2.248,-2.2613,-2.2731,-2.3106,-2.3106,-2.3106,-2.3106,-2.3106,-2.323,-2.3611,-2.3619,-2.3901,-2.4619,-2.4962,-2.5306,-2.5642,-2.5977,-2.5869,-2.5599,-2.6264,-2.6383,-2.6107,-2.7443,-2.8114,-2.8246,-2.929,-2.9813,-2.9813,-3.0602,-3.0879,-3.087,-3.1249,-3.1377,-3.1332,-3.0947,-3.0552,-3.0085,-2.9269,-2.9213,-2.9558,-3.0157,-3.0743,-3.1441,-3.2342,-3.2685,-3.281,-3.3069,-3.2965,-3.2727,-3.2727,-3.2727,-3.2727,-3.2727,-3.2727,-3.2841,-3.3079,-3.3193,-3.3193,-3.3193,-3.3193,-3.3306,-3.3512,-3.3409,-3.342,-3.3974,-3.4086,0.0,-3.4914,-3.5256,-3.5697,-3.6231,-3.6796,-3.7346,-3.7986,-3.8514,-3.8945,-3.927,-4.0275,-4.1185,-4.1696,-4.3218,-4.434,-4.5095,-4.6075,-4.6365,-4.593,0.0,0.0,0.0,0.0,0.0,0.0,0.0,0.0,0.0,0.0,0.0,0.0,0.0,0.0,0.0,0.0,0.0,0.0,0.0,0.0,0.0,-2.0982,-2.1235,-2.1488,-2.1985,-2.2355,-2.2613,-2.2856,-2.2981,-2.3106,-2.3106,-2.3106,-2.3106,-2.3106,-2.323,-2.3611,-2.3835,-2.4254,-2.4978,-2.5314,-2.5657,-2.6,-2.6092,-2.5734,-2.518,-2.5727,-2.5584,-2.5037,-2.5831,-2.6501,-2.6777,-2.7833,-2.8633,-2.9159,-2.9813,-3.0473,-3.087,-3.1249,-3.1377,-3.1368,-3.1258,-3.0781,-3.0085,-2.9269,-2.9094,-2.9213,-2.9804,-3.0274,-3.085,-3.1777,-3.2248,-3.2477,-3.2727,-3.2737,-3.2727,-3.2727,-3.2727,-3.2727,-3.2727,-3.2727,-3.2841,-3.3079,-3.3193,-3.3306,-3.3409,-3.3523,-3.3409,-3.3296,-3.3636,-3.4076,-3.4602,-3.4936,0.0,-3.6145,-3.6472,-3.6904,-3.7441,-3.7986,-3.8526,-3.8945,-3.927,-3.9478,-3.9581,-4.0389,-4.1172,-4.1855,-4.3559,-4.4958,-4.5974,-4.6085,-4.5981,0.0,0.0,0.0,0.0,0.0,0.0,0.0,0.0,0.0,0.0,0.0,0.0,0.0,0.0,0.0,0.0,0.0,0.0,0.0,0.0,0.0,0.0,-2.1481,-2.1859,-2.1985,-2.2362,-2.2606,-2.2731,-2.2988,-2.3106,-2.3106,-2.3106,-2.3106,-2.3106,-2.3106,-2.3238,-2.3362,-2.3673,-2.4134,-2.472,-2.5058,-2.5396,-2.5734,-2.5734,-2.5322,-2.4774,-2.5044,-2.4774,-2.4367,-2.4895,-2.53,-2.5435,-2.6368,-2.7169,-2.7973,-2.8757,-2.9674,0.0,0.0,0.0,0.0,0.0,-3.0736,-3.0103,-2.9452,-2.9122,-2.9103,-2.9568,-2.9922,-3.0392,-3.1325,-3.1787,-3.2143,-3.2612,-3.2727,-3.2727,-3.2727,-3.2727,-3.2727,-3.2727,-3.2851,-3.2965,-3.3296,-3.3533,-3.3636,-3.3942,-3.4065,0.0,-3.3974,-3.4188,-3.4725,-3.5367,-3.5697,-3.6254,-3.712,-3.7346,-3.7761,-3.8514,-3.8841,-3.9154,-3.9478,-3.9594,0.0,0.0,0.0,-4.1657,-4.3095,-4.442,0.0,0.0,0.0,-4.5627,-4.5353,0.0,0.0,0.0,-4.5792,-4.6207,0.0,0.0,0.0,0.0,0.0,0.0,0.0,0.0,0.0,0.0,0.0,0.0,0.0,0.0,0.0,0.0,-2.1985,-2.2606,-2.2606,-2.2613,-2.2731,-2.3106,-2.3106,-2.3106,-2.3106,-2.3106,-2.3106,-2.3106,-2.3106,-2.3128,-2.3164,0.0,0.0,0.0,0.0,-2.4766,-2.5052,-2.5059,-2.4916,-2.4503,-2.4503,-2.4231,-2.3959,-2.4231,-2.4367,-2.4367,-2.5165,-2.5831,-2.6509,-2.7684,-2.8748,-2.9944,-3.0611,-3.1129,-3.1332,-3.0937,-3.0543,-3.014,-2.9718,0.0,0.0,-2.9331,-2.9677,-3.0157,-3.1092,-3.1556,-3.2018,-3.2498,-3.2727,-3.2727,-3.2727,-3.2727,-3.2727,-3.2727,-3.2965,-3.3306,-3.3625,-3.3963,-3.43,-3.4591,-3.4958,-3.5091,-3.5091,-3.5058,-3.5367,-3.6266,-3.6603,-3.7131,-3.7986,-3.8092,-3.8409,-3.9258,0.0,0.0,-3.9697,-3.9697,-3.9788,-4.007,-4.0971,-4.2431,-4.4648,-4.5312,-4.5712,-4.5892,-4.5612,-4.5263,-4.4947,-4.4726,-4.4814,-4.5294,-4.5992,-4.6474,0.0,0.0,0.0,0.0,0.0,0.0,0.0,0.0,0.0,0.0,0.0,0.0,0.0,0.0,0.0,-2.2237,-2.248,-2.2731,-2.2981,-2.2981,-2.2988,-2.3106,-2.3106,-2.3106,-2.3106,-2.3106,-2.3106,-2.3106,-2.3106,-2.3223,-2.3486,-2.3808,-2.4137,-2.4466,-2.4796,-2.4993,-2.5059,-2.5059,-2.4916,-2.4503,0.0,0.0,-2.3543,-2.327,-2.3406,-2.3679,-2.4088,-2.4895,-2.5831,-2.6894,-2.8493,-3.0361,-3.1,-3.1377,-3.1332,-3.0937,-3.0543,-3.014,-2.9483,-2.9074,-2.9103,-2.9313,-2.9785,-3.0509,-3.1441,-3.1903,0.0,-3.2612,-3.2727,-3.2727,-3.2727,-3.2727,-3.2727,-3.2727,-3.2965,-3.3306,-3.3861,-3.439,-3.4914,-3.5477,-3.5817,-3.6059,-3.6059,-3.6048,-3.6145,-3.6592,-3.7036,-3.7691,-3.8198,-3.8303,-3.8619,-3.9258,-3.9258,-3.9374,-3.9697,-3.9697,-3.9788,-4.007,-4.1458,-4.3026,-4.4648,-4.491,-4.5069,-4.5194,-4.4922,-4.4648,-4.4403,-4.4573,-4.4964,-4.5662,-4.5992,-4.6333,0.0,0.0,0.0,0.0,0.0,0.0,0.0,0.0,0.0,0.0,0.0,-2.1607,-2.1859,0.0,-2.2237,-2.2606,-2.2731,-2.2863,-2.3113,-2.3106,-2.3106,-2.3106,-2.3106,-2.3106,-2.3106,-2.3106,-2.3106,-2.3106,-2.3259,-2.3427,-2.3588,-2.4057,-2.4401,-2.4562,-2.4883,-2.5059,-2.5059,-2.5059,-2.5052,-2.4781,-2.4367,-2.4095,-2.3679,-2.327,-2.3133,-2.3133,-2.3406,-2.4088,-2.5165,-2.6902,-2.8633,-3.0091,-3.0741,-3.1129,-3.1359,-3.1157,-3.0573,-2.991,-2.9587,-2.9125,-2.8746,-2.9094,-2.9795,-3.0499,-3.1325,-3.1903,-3.2373,-3.2612,-3.2727,-3.2612,-3.2487,-3.2612,-3.2727,-3.2716,-3.3182,-3.3861,-3.4624,-3.5157,-3.5806,-3.6363,-3.6483,-3.6483,-3.6483,-3.6483,-3.6592,-3.6808,-3.7262,-3.7797,-3.8303,-3.8409,-3.8514,-3.905,-3.9154,-3.9362,-3.9478,-3.989,-4.0287,-4.0668,-4.1967,-4.3245,-4.4476,-4.4809,-4.488,-4.4818,-4.4564,-4.4308,-4.3988,-4.4143,-4.4511,-4.5188,-4.541,-4.5961,0.0,0.0,0.0,0.0,0.0,0.0,0.0,-2.1096,-2.1734,-2.1734,-2.2111,-2.223,-2.223,-2.248,-2.2731,-2.2731,-2.2856,-2.3106,-2.3106,-2.3106,-2.3106,-2.3106,-2.3106,-2.3106,-2.3106,-2.3106,-2.3135,-2.3201,-2.3449,-2.3654,-2.3779,-2.4284,-2.4598,-2.4664,-2.492,-2.5059,-2.5059,-2.5059,-2.5059,-2.5059,-2.4645,-2.4367,-2.3959,-2.3543,-2.327,-2.2859,-2.2996,-2.3679,-2.4902,-2.7043,-2.8633,-2.9691,-3.0239,-3.075,-3.1258,-3.1258,-3.0492,-2.9555,-2.9555,-2.9044,-2.8526,-2.8865,-2.9686,-3.0616,-3.1208,-3.1903,-3.2373,-3.2612,-3.2612,-3.2612,-3.2373,-3.2602,-3.2841,-3.281,-3.3501,-3.4412,-3.5268,-3.5927,-3.6483,-3.7024,-3.6916,-3.6808,-3.67,-3.67,-3.6808,-3.7024,-3.737,-3.7809,-3.821,-3.8303,-3.8409,-3.8736,-3.905,-3.9258,-3.9374,-4.0096,-4.0694,-4.1272,-4.2275,-4.3369,-4.4317,-4.4514,-4.4661,-4.4619,-4.4266,-4.3948,-4.369,-4.369,-4.3988,-4.4587,-4.4723,-4.5452,-0.8584,-1.1882,-1.5298,-1.8162,-1.945,-2.0335,0.0,-2.1978,-2.248,-2.248,-2.2731,-2.2981,-2.2981,-2.2981,-2.2981,-2.2981,-2.3113,-2.3106,-2.3106,-2.3106,-2.3106,-2.3106,-2.3106,-2.3106,-2.3106,-2.3106,-2.323,-2.3515,-2.3574,-2.3845,-2.443,-2.4532,-2.4701,-2.4993,-2.5037,-2.5059,-2.5059,-2.5059,-2.5059,-2.5059,-2.4645,-2.4367,-2.3959,-2.3543,-2.327,-2.2859,-2.327,-2.4217,-2.5562,-2.6769,-2.8097,-2.9438,-3.0109,-3.0499,-3.0499,-3.0499,-3.0001,-2.919,-2.8931,-2.8676,-2.8526,-2.8865,-2.9795,-3.083,-3.1556,-3.2143,-3.2612,-3.2373,-3.2487,-3.2612,-3.2373,-3.2727,-3.3193,-3.3399,-3.3963,-3.4736,-3.5598,-3.6036,-3.6483,-3.7024,-3.7024,-3.7024,-3.67,-3.67,-3.67,-3.67,-3.7262,-3.7596,-3.7702,-3.7892,-3.8198,-3.8421,-3.8736,-3.905,-3.9594,-4.0198,-4.0694,-4.1272,-4.2275,-4.3369,-4.4317,-4.401,-4.4023,-4.4619,-4.3642,-4.3325,-4.369,-4.369,-4.391,-4.4358,-4.4358,-4.4993,-1.0316,-1.3198,-1.5824,-1.8676,-2.0087,-2.0976,-2.1978,-2.2606,-2.2856,-2.2856,-2.2981,-2.3106,-2.3106,-2.3106,-2.3106,0.0,-2.3106,-2.3106,-2.3106,-2.3106,-2.3179,-2.3369,-2.3391,-2.3391,-2.3391,-2.3391,-2.353,-2.3859,-2.4057,-2.4284,-2.4554,-2.4744,-2.4913,-2.5052,-2.5059,-2.5059,-2.5059,-2.5059,-2.5059,-2.5059,-2.4916,-2.4503,-2.3959,-2.3823,-2.3311,-2.2592,-2.2821,-2.3413,-2.4474,-2.5512,-2.6817,-2.8126,-2.8648,-2.8913,-2.9229,-3.0072,-2.9736,-2.8931,-2.8806,-2.8667,-2.8618,-2.9085,-3.002,-3.1199,-3.1672,-3.2143,-3.2373,-3.2143,-3.2258,-3.2487,-3.2238,-3.282,-3.3512,-3.3818,-3.4491,-3.5279,-3.5938,-3.6375,-3.67,-3.7024,-3.7024,-3.6808,-3.6483,-3.6277,-3.6168,-3.6168,-3.6712,-3.7143,-3.7596,-3.7691,-3.7892,-3.8303,-3.8631,-3.8945,-3.9478,-4.0096,-4.0694,-4.1272,-4.2275,-4.3369,-4.4317,-4.3849,-4.3878,-4.4379,-4.3351,-4.301,-4.325,-4.325,-4.3409,-4.3723,-4.3723,-4.402,-1.1776,-1.4119,-1.6084,-1.867,-2.0087,-2.1235,-2.2111,-2.2613,-2.2988,-2.2856,-2.2981,-2.3106,-2.2988,-2.2981,-2.3135,-2.323,-2.3245,-2.3274,-2.3362,-2.3376,-2.3464,-2.3698,-2.3727,-2.3764,-2.3859,-2.3779,-2.3866,-2.4188,-2.4437,-2.4613,-2.4701,-2.4927,-2.5059,-2.5059,-2.5059,-2.5059,-2.5059,-2.5059,-2.5059,-2.5059,-2.4964,-2.4516,-2.3826,-2.3607,-2.3044,-2.2285,-2.2467,-2.3035,-2.3818,-2.4705,-2.5864,-2.7165,-2.7419,-2.7875,-2.8273,-2.936,-2.9099,-2.8274,-2.839,-2.8447,-2.86,-2.9313,-3.0255,-3.1325,-3.1672,-3.2018,-3.2133,-3.1787,-3.2018,-3.2363,-3.2342,-3.3037,-3.3952,-3.4256,-3.4925,-3.5719,-3.6266,-3.6483,-3.67,-3.6808,-3.67,-3.6386,-3.6059,-3.584,-3.5742,-3.5742,-3.6168,-3.6712,-3.737,-3.7584,-3.7904,-3.8303,-3.8514,-3.8841,-3.927,-3.9981,-4.0694,-4.1372,-4.2387,-4.3369,-4.4504,-4.3849,-4.3791,-4.4308,-4.3201,-4.2688,-4.2915,-4.2915,-4.2996,-4.317,-4.317,-4.325,-1.2157,-1.4124,-1.5954,-1.8016,-1.9571,-2.0729,-2.1488,-2.2111,-2.248,-2.2237,-2.2606,-2.2981,-2.2738,-2.2863,-2.3215,-2.353,-2.3581,-2.3691,-2.4005,-2.4057,-2.4057,-2.4064,-2.4064,-2.4188,0.0,-2.4254,-2.4203,-2.4532,-2.4562,-2.4708,-2.5022,-2.5052,-2.5059,-2.5059,-2.5059,-2.5059,-2.5059,-2.5059,-2.5059,-2.5052,-2.447,-2.3911,-2.3497,-2.2542,-2.2004,-2.1997,-2.2379,-2.3159,-2.4079,-2.4842,-2.5872,-2.7189,-2.7189,-2.7652,-2.8177,-2.7832,-2.747,-2.7151,-2.7497,-2.7974,-2.86,-2.9568,-3.0392,-3.0966,-3.1672,-3.1787,-3.1787,-3.1441,-3.2008,-3.2685,-3.2685,-3.3604,-3.4624,-3.5268,-3.5609,-3.5961,-3.6592,-3.6483,-3.6266,-3.6266,-3.6059,-3.5742,-3.5412,-3.5423,-3.5522,-3.5742,-3.5852,-3.6168,-3.7024,-3.7667,-3.8092,-3.8409,-3.8409,-3.8619,-3.9258,-3.9775,-4.058,-4.1597,-4.2484,-4.3465,-4.4705,-4.3759,-4.3516,-4.4308,-4.3036,-4.2555,-4.2688,-4.2688,-4.2688,-4.2688,-4.2688,-4.2688,-1.2553,-1.4124,-1.5559,-1.7641,-1.906,-2.0087,-2.0836,-2.1475,-2.1859,-2.1488,-2.2152,-2.2674,-2.2291,-2.2708,-2.3013,-2.312,-2.3263,-2.3299,-2.3666,-2.3681,-2.3898,-2.4379,-2.4408,0.0,0.0,0.0,0.0,-2.4869,-2.4891,-2.4942,-2.5052,-2.5059,-2.5059,-2.5059,-2.5059,-2.5059,-2.5059,-2.4781,-2.4672,-2.4463,-2.3475,-2.2925,-2.2779,-2.2092,-2.1827,-2.2073,-2.2254,-2.2674,-2.3435,-2.4184,-2.4945,-2.5859,-2.6335,-2.6624,-2.684,-2.6977,-2.6985,-2.7134,-2.7744,-2.8339,-2.8975,-2.9686,-3.0509,-3.1208,-3.1441,-3.1441,-3.145,-3.1112,-3.1672,-3.2457,-3.2903,-3.3942,-3.4969,-3.5511,-3.573,-3.5852,-3.6059,-3.584,-3.5742,-3.5742,-3.5632,-3.5423,-3.5202,-3.5091,-3.5202,-3.5522,-3.6059,-3.6603,-3.7024,-3.7465,-3.7785,-3.8092,-3.8303,-3.8514,-3.8945,-3.9659,-4.058,-4.1597,-4.2498,-4.3465,-4.4797,-4.4157,-4.3844,-4.3849,-4.3038,-4.2386,-4.2034,-4.2199,-4.2199,-4.2199,-4.2377,-4.2392,-1.2951,-1.4128,-1.5434,-1.6872,-1.8162,-1.9212,-1.9683,-2.0477,-2.09,-2.0618,-2.1305,-2.1827,-2.1704,-2.2112,-2.2669,-2.2911,-2.3057,-2.3363,-2.374,-2.3887,-2.3966,-2.4448,-2.4604,-2.4549,0.0,0.0,0.0,-2.5037,-2.5059,-2.5059,-2.5059,-2.5059,-2.5059,-2.5059,-2.5059,-2.5052,-2.4916,-2.4638,-2.4153,-2.3461,-2.2752,-2.2291,-2.2053,-2.1734,-2.1774,-2.1888,-2.2321,-2.2731,-2.3362,-2.3984,-2.468,-2.5434,-2.5782,-2.6068,-2.6291,-2.6545,-2.6753,-2.7233,-2.7835,-2.8586,-2.9331,-3.003,-3.0626,-3.1218,-3.1208,-3.1218,-3.1102,-3.1005,-3.1566,-3.2332,-3.2892,-3.3942,-3.498,-3.5522,-3.5632,-3.5632,-3.5632,-3.5533,-3.5423,-3.5312,-3.5202,-3.5202,-3.4869,-3.488,-3.5102,-3.5202,-3.5852,-3.6483,-3.6916,-3.737,-3.7702,-3.7892,-3.8092,-3.8409,-3.8736,-3.9556,-4.058,-4.1769,-4.2568,-4.356,-4.4797,-4.4357,-4.3881,-4.3516,-4.2912,-4.228,-4.1619,-4.1785,-4.1868,-4.1868,-4.2146,-4.2242,-1.3218,-1.4403,-1.5458,-1.5859,-1.7033,-1.8007,-1.8239,-1.9078,-1.9799,-1.9663,-2.0262,-2.0674,-2.0674,0.0,-2.2111,-2.2794,-2.3243,-2.3757,-2.446,-2.4503,-2.4503,0.0,0.0,0.0,0.0,0.0,0.0,-2.5052,0.0,-2.5059,-2.5059,-2.5059,-2.5059,-2.5059,-2.5059,-2.4916,-2.4503,-2.4467,-2.3736,-2.2483,-2.2182,-2.1767,-2.1109,-2.1481,-2.1607,-2.1734,-2.2731,-2.3362,-2.3736,-2.4378,-2.5194,-2.5988,-2.5777,-2.5985,-2.6607,-2.6627,-2.6877,-2.7199,-2.7911,-2.86,-2.954,-3.049,-3.0869,-3.1005,-3.1218,-3.1112,-3.0889,-3.0889,-3.1556,-3.2332,-3.2892,-3.3818,-3.4635,-3.5202,-3.5423,-3.5423,-3.5423,-3.5423,-3.5312,-3.498,-3.4991,-3.4869,-3.4524,-3.4758,-3.4991,-3.4991,-3.5423,-3.6059,-3.6592,-3.7143,-3.7596,-3.7596,-3.7892,-3.8198,-3.8736,-3.9569,-4.0668,-4.194,-4.2763,-4.3751,-4.4705,-4.4111,-4.3669,-4.3324,-4.2594,-4.1981,-4.1354,-4.1549,-4.1688,-4.1702,-4.1995,-4.2092,-1.3617,-1.4508,-1.5286,-1.5693,-1.6614,-1.7288,-1.7481,-1.8017,-1.8429,-1.8234,-1.9065,-1.9876,-2.0011,-2.0996,0.0,-2.2739,-2.3154,0.0,-2.4353,-2.4503,0.0,-2.4503,0.0,-2.4367,-2.4095,-2.3959,0.0,0.0,-2.4231,-2.4367,-2.4638,-2.4638,-2.4774,-2.5052,-2.5059,-2.4916,-2.4503,-2.3497,-2.2551,-2.1793,-2.1491,-2.1309,-2.1109,-2.1481,-2.1859,-2.2362,-2.3106,-2.386,-2.4378,-2.5015,-2.5556,-2.5777,-2.5914,-2.6192,-2.636,-2.676,-2.7365,-2.7921,-2.8736,-2.9185,-2.954,-3.0265,-3.0752,-3.0889,-3.1005,-3.1005,-3.0889,-3.0889,-3.1334,-3.2008,-3.2685,-3.347,-3.4267,-3.498,-3.5091,-3.5091,-3.5091,-3.4869,-3.4747,-3.4635,-3.4635,-3.4635,-3.4524,-3.4758,-3.4991,-3.4991,-3.5423,-3.5961,-3.6375,-3.6928,-3.737,-3.7596,-3.7892,-3.8198,-3.8736,-3.9374,-4.0389,-4.167,-4.2387,-4.3177,-4.4129,-4.3854,-4.337,-4.2851,-4.2238,-4.1639,-4.1068,-4.1013,-4.1114,-4.1465,-4.1717,-4.1897,-1.4268,-1.4884,-1.5375,-1.5649,-1.6151,-1.6672,-1.6768,-1.7192,-1.7628,-1.7728,-1.8264,-1.9048,-1.9599,-2.0557,-2.1628,0.0,0.0,0.0,-2.4909,-2.5044,-2.4916,0.0,-2.4638,0.0,-2.3823,-2.3543,-2.355,0.0,-2.3823,-2.4095,-2.4503,-2.4503,-2.4638,-2.5052,-2.4916,-2.4573,-2.3891,-2.2745,-2.197,-2.155,-2.1249,-2.1235,-2.1362,-2.1859,-2.2355,-2.2856,0.0,-2.4232,-2.4634,-2.536,-2.5635,-2.5667,-2.6009,-2.6304,-2.6396,-2.7068,-2.7755,-2.8295,-2.9268,-2.9667,-2.9903,-3.0392,-3.0762,-3.0889,-3.0762,-3.0762,-3.0889,-3.0762,-3.1218,-3.1903,-3.2342,-3.314,-3.3942,-3.4534,-3.4646,-3.4758,-3.4758,-3.4635,-3.4524,-3.4524,-3.4524,-3.4524,-3.4524,-3.4646,-3.4758,-3.4758,-3.5301,-3.5742,-3.5852,-3.6483,-3.7024,-3.737,-3.7691,-3.7998,-3.8631,-3.9245,-4.0058,-4.1058,-4.1782,-4.2484,-4.3136,-4.3026,-4.263,-4.2032,-4.1554,-4.1059,-4.0562,-4.0548,-4.0688,-4.1128,-4.1535,-4.1785,-1.4869,-1.5301,-1.5602,-1.5602,-1.5899,-1.6108,-1.6283,-1.6609,-1.7081,-1.7684,-1.7721,-1.8142,-1.9262,-2.0104,-2.1081,-2.2585,0.0,-2.4367,-2.5464,-2.5599,-2.5457,-2.518,-2.4774,-2.436,-2.3679,-2.327,-2.3003,-2.3003,-2.3686,-2.4095,-2.4367,-2.4367,-2.4624,-2.4993,-2.4537,-2.382,-2.2846,-2.2065,-2.1537,-2.149,-2.1236,-2.1355,-2.1734,-2.2362,-2.2856,-2.3238,-2.4232,0.0,-2.4696,-2.5383,-2.5541,-2.5605,-2.6104,-2.6396,-2.6736,-2.742,-2.8052,-2.8719,-2.9568,-3.0157,-3.0509,-3.0762,-3.0889,-3.0762,-3.0392,-3.0518,-3.0762,-3.0509,-3.1082,-3.1903,-3.2227,-3.2924,-3.3625,-3.3974,-3.4311,-3.4524,-3.4524,-3.4524,-3.4524,-3.4524,-3.4524,-3.4524,-3.4524,-3.4524,-3.4524,-3.4524,-3.4969,-3.5423,-3.5423,-3.6168,-3.6808,-3.7024,-3.737,-3.7797,-3.8303,-3.9117,-3.9712,-4.0313,-4.1058,-4.1571,-4.173,-4.1842,-4.1505,-4.1002,-4.0653,-4.0361,-4.0022,-4.0035,-4.0243,-4.0616,-4.1269,-4.1604,-1.4869,-1.5403,-1.5805,-1.5805,-1.6082,-1.6225,-1.6263,-1.6272,-1.6418,-1.6866,-1.7157,-1.759,-1.8433,-1.9413,-2.0665,-2.2173,-2.327,-2.436,-2.5464,-2.5869,-2.5869,0.0,-2.518,-2.4774,-2.436,-2.3959,0.0,0.0,0.0,-2.4095,-2.4095,-2.4095,-2.4118,-2.4264,-2.3594,-2.2911,-2.2223,-2.1862,-2.143,-2.1189,-2.1382,-2.1734,-2.1985,-2.2738,-2.3362,-2.3984,-2.4355,0.0,-2.5039,-2.5486,-2.5557,-2.5665,-2.6307,-2.6669,-2.7058,-2.7973,-2.8773,-2.9313,-2.9804,-3.0157,-3.0392,-3.0509,-3.0509,-3.0392,-3.0039,-3.0274,-3.0509,-3.0733,-3.1325,-3.1903,-3.2457,-3.3151,-3.3625,-3.3974,-3.4311,-3.4524,-3.4524,-3.4524,-3.4524,-3.4524,-3.4524,-3.4524,-3.4524,-3.4524,-3.4524,-3.4524,-3.4969,-3.5423,-3.5423,-3.6168,-3.6808,-3.7024,-3.737,-3.7797,-3.8303,-3.8724,-3.9129,-3.9699,-4.0147,-4.0465,-4.0718,-4.0769,-4.0743,-4.0653,-3.9816,-3.952,-3.9607,-3.9108,-3.9292,-4.0083,-4.0402,-4.0845,-1.5459,-1.5812,-1.6027,-1.6027,-1.6108,-1.6183,-1.6183,-1.6183,-1.632,-1.688,-1.7163,-1.759,-1.8573,-1.9267,-2.0237,-2.1741,-2.2983,-2.4088,-2.5442,-2.6122,-2.6398,-2.613,-2.5854,-2.5307,-2.4766,-2.4503,-2.4231,-2.3959,0.0,-2.4095,-2.4231,-2.4082,-2.3927,-2.3771,-2.2911,-2.2339,-2.1808,-2.1524,-2.1377,-2.1355,-2.1734,-2.2111,-2.2606,-2.3355,-2.386,-2.4355,-2.4487,0.0,-2.5124,-2.5305,-2.5494,-2.598,-2.6603,-2.7229,-2.7878,-2.8663,-2.9313,-2.9677,-3.003,-3.0157,-3.0157,-3.0039,-3.0039,-3.0039,-2.9804,-3.003,-3.0382,-3.0616,-3.1199,-3.1903,-3.2352,-3.2944,-3.3523,-3.3749,-3.4188,-3.4524,-3.4524,-3.4524,-3.4524,-3.4524,-3.4524,-3.4524,-3.4524,-3.4524,-3.4524,-3.4524,-3.4969,-3.5423,-3.5423,-3.6059,-3.67,-3.7024,-3.7251,-3.7572,-3.8092,-3.8409,-3.8724,-3.9013,-3.9233,-3.9453,-3.9531,-3.9556,-3.9534,-3.9436,-3.8827,-3.8646,-3.8639,-3.8345,-3.8575,-3.9305,-3.9706,-4.0229,-1.6037,-1.6183,-1.6183,-1.6183,-1.6183,-1.6183,-1.6183,-1.6325,-1.6461,-1.7168,-1.7449,-1.7872,-1.8708,-1.9262,-1.9947,0.0,-2.2291,-2.3529,-2.4887,-2.5846,-2.6391,-2.6525,-2.6249,0.0,-2.5315,-2.4909,0.0,-2.4231,0.0,0.0,-2.4402,-2.4102,-2.3769,-2.3301,-2.2503,-2.1842,-2.1585,-2.135,-2.1362,-2.1859,-2.2111,-2.2606,-2.3362,-2.3984,-2.4355,-2.461,-2.4734,0.0,0.0,-2.5179,-2.5638,-2.633,-2.7021,-2.7895,-2.8719,-2.9313,-2.9677,-3.0039,-3.0157,-3.0039,-2.9804,-2.945,-2.9568,-2.9804,-2.945,-2.9795,-3.0265,-3.0274,-3.0966,-3.1662,-3.2008,-3.2477,-3.3069,-3.3512,-3.3963,-3.4412,-3.4524,-3.4524,-3.4524,-3.4524,-3.4524,-3.4524,-3.4524,-3.4524,-3.4524,-3.4524,-3.4969,-3.5423,-3.5423,-3.595,-3.6495,-3.7024,-3.7131,-3.7346,-3.7986,-3.8198,-3.8303,-3.8303,-3.8526,-3.8631,-3.8631,-3.8631,-3.8583,-3.8324,-3.8091,-3.7837,-3.7763,-3.7645,-3.7821,-3.8408,-3.8997,-3.9339,-1.6037,-1.6183,-1.6183,-1.6183,-1.6183,-1.6183,-1.6183,-1.6457,-1.6734,-1.7168,-1.7872,-1.8293,-1.8433,-1.9128,0.0,0.0,0.0,-2.2284,-2.34,-2.4495,-2.5442,-2.6107,0.0,0.0,-2.6003,-2.5734,0.0,0.0,0.0,0.0,-2.408,-2.3772,-2.3342,-2.2671,-2.1954,-2.1655,-2.1649,-2.1628,-2.1859,-2.2487,-2.2856,-2.3362,-2.3984,-2.4363,-2.461,-2.461,-2.4857,0.0,0.0,-2.5633,-2.6175,-2.6645,-2.7929,-2.8746,-2.9303,-2.9677,-3.0039,-3.0274,-2.9795,-2.9568,-2.944,-2.9094,-2.9213,-2.945,-2.9094,-2.9331,-2.9677,-2.9922,-3.0372,-3.0946,-3.1285,-3.1872,-3.2467,-3.3399,-3.3861,-3.4199,-3.4412,-3.4524,-3.4524,-3.4524,-3.4524,-3.4524,-3.4524,-3.4524,-3.4524,-3.4524,-3.4969,-3.5423,-3.5423,-3.595,-3.6495,-3.7024,-3.7131,-3.7346,-3.7986,-3.7974,-3.8092,-3.8092,-3.8092,-3.808,-3.808,-3.8303,-3.827,-3.8042,-3.7816,-3.7554,-3.727,-3.6988,-3.7083,-3.7651,-3.7808,-3.816,-1.6183,-1.6183,-1.6183,-1.6183,-1.6183,-1.6183,-1.6183,-1.6457,-1.6875,-1.7585,-1.8007,-1.8573,-1.8988,-1.9401,0.0,0.0,0.0,0.0,-2.2578,-2.3672,-2.4631,-2.5307,-2.5846,0.0,0.0,0.0,-2.5734,0.0,0.0,0.0,-2.3772,-2.3498,-2.3025,-2.233,-2.1645,-2.1481,-2.1859,-2.1859,-2.2355,-2.3238,-2.3479,-2.3984,-2.4363,-2.4487,-2.4734,-2.4865,-2.461,0.0,0.0,-2.5888,-2.676,-2.7843,-2.8654,-2.9313,-2.9795,-3.003,-3.0039,-2.9795,-2.9558,-2.9331,-2.9094,-2.8755,-2.8755,-2.8865,-2.8755,-2.8737,-2.8966,-2.9213,-2.9677,-3.0128,-3.0597,-3.1526,-3.2342,-3.2924,-3.3399,-3.3861,-3.3963,-3.4086,-3.4311,-3.4311,-3.4412,-3.4524,-3.4524,-3.4524,-3.4524,-3.4524,-3.4969,-3.5423,-3.5423,-3.6059,-3.67,-3.7024,-3.7131,-3.7346,-3.7986,-3.7986,-3.7986,-3.7986,-3.7986,-3.7986,-3.7986,-3.8092,-3.7903,-3.7258,-3.7341,-3.7109,-3.6518,-3.6471,-3.6722,-3.6989,-3.7281,-3.7559,-1.6466,-1.6466,-1.6466,-1.6466,-1.6603,-1.6744,-1.6744,-1.7017,-1.7575,-1.8282,-1.8848,-1.9407,-1.9959,-2.0231,0.0,0.0,0.0,-2.149,-2.1897,-2.2853,-2.3816,-2.4631,0.0,-2.5712,0.0,-2.5734,0.0,0.0,0.0,0.0,-2.3325,-2.3081,-2.2632,-2.1943,-2.147,-2.1607,-2.223,-2.248,-2.2981,-2.386,-2.4239,-2.4487,-2.461,-2.461,-2.461,-2.4734,-2.4479,0.0,0.0,-2.6562,-2.7521,-2.8838,-2.9422,-2.9785,-3.0039,-3.0157,-2.9912,-2.945,-2.945,-2.9213,-2.8984,-2.8636,-2.8397,-2.8277,-2.8157,-2.8259,-2.837,-2.8489,-2.8728,-2.9194,-2.9903,-3.084,-3.1767,-3.2457,-3.2924,-3.3275,-3.3388,-3.3625,-3.3738,-3.3851,-3.3963,-3.4188,-3.43,-3.4412,-3.4412,-3.4646,-3.5091,-3.5423,-3.5533,-3.6168,-3.6808,-3.7024,-3.7143,-3.7465,-3.7986,-3.7986,-3.7986,-3.7986,-3.7986,-3.7986,-3.7986,-3.7986,-3.7585,-3.684,-3.703,-3.6702,-3.592,-3.6181,-3.637,-3.6546,-3.6734,-3.7015,-1.7308,-1.7308,-1.7308,-1.7308,-1.7585,-1.7861,-1.7861,-1.8428,-1.9128,-1.9396,-2.037,-2.1214,-2.1214,-2.176,0.0,0.0,0.0,0.0,-2.1214,-2.2173,-2.3133,0.0,0.0,-2.518,-2.5599,0.0,0.0,0.0,0.0,0.0,-2.2524,-2.2619,-2.2312,-2.1621,-2.1614,-2.1859,-2.2606,-2.323,-2.386,-2.461,-2.498,-2.4857,-2.461,-2.461,-2.4355,0.0,0.0,0.0,0.0,-2.7409,-2.848,-2.9422,-3.0147,-3.0382,-3.0392,-3.0039,-2.9686,-2.945,-2.9103,-2.8984,-2.8984,-2.8636,-2.8268,-2.79,-2.7315,-2.7547,-2.7891,-2.7642,-2.7771,-2.825,-2.9185,-2.9903,-3.0733,-3.1883,-3.2227,-3.2457,-3.3027,-3.2913,-3.2799,-3.314,-3.3264,-3.3388,-3.3974,-3.4086,-3.4311,-3.4869,-3.5202,-3.5533,-3.5742,-3.6277,-3.6808,-3.7024,-3.737,-3.7691,-3.7986,-3.7986,-3.7986,-3.7986,-3.7986,-3.7986,-3.7986,-3.7986,-3.7585,-3.684,-3.6816,-3.6392,-3.562,-3.5908,-3.6015,-3.6015,-3.6275,-3.6452,-1.7765,-1.7875,-1.8137,-1.8428,-1.8568,-1.8843,-1.9251,-1.9808,-2.0219,-2.0906,-2.1728,-2.2428,-2.2715,-2.3126,0.0,0.0,0.0,0.0,0.0,0.0,0.0,-2.3952,-2.4638,-2.5187,0.0,0.0,0.0,0.0,0.0,0.0,-2.2918,-2.2741,-2.2433,-2.1992,-2.2104,-2.2863,-2.3984,-2.3984,-2.4355,-2.5234,-2.5111,-2.4857,-2.461,-2.461,-2.461,0.0,0.0,0.0,0.0,-2.8379,-2.9203,-3.0147,-3.0265,-3.0265,-3.0039,-2.9686,-2.945,-2.9094,-2.8984,-2.8865,-2.8636,-2.8268,-2.79,-2.765,-2.7194,-2.7064,-2.7056,-2.6926,-2.7289,-2.7882,-2.86,-2.9431,-3.0274,-3.1073,-3.1305,-3.1411,-3.1777,-3.1767,-3.1872,-3.2123,-3.2342,-3.2685,-3.3037,-3.3378,-3.3614,-3.3963,-3.4646,-3.5312,-3.5708,-3.6472,-3.7143,-3.737,-3.7679,-3.788,-3.7986,-3.7986,-3.7986,-3.7986,-3.7986,-3.7986,-3.7986,-3.7986,-3.7597,-3.6524,-3.6715,-3.6293,-3.532,-3.562,-3.5812,-3.6015,-3.6275,-3.6358,-1.9122,-1.9329,-1.9525,-1.9813,-2.0154,-2.0497,-2.1044,-2.1459,-2.2009,-2.2696,-2.3243,-2.3795,-2.4224,-2.4495,0.0,0.0,0.0,0.0,0.0,0.0,0.0,-2.3933,0.0,0.0,0.0,0.0,0.0,0.0,0.0,0.0,-2.3249,-2.3199,-2.3192,-2.323,-2.323,-2.3728,-2.4718,-2.4726,-2.4988,-2.561,-2.5234,-2.4857,-2.461,-2.4487,-2.4726,0.0,0.0,0.0,0.0,-2.9094,-2.9804,-3.0635,-3.0509,-3.0157,-2.9922,-2.9568,-2.9331,-2.8984,-2.8984,-2.8746,-2.8397,-2.8148,-2.765,-2.7168,-2.6943,-2.6822,-2.6579,-2.67,-2.7056,-2.753,-2.8131,-2.8966,-2.9686,-3.0392,-3.0499,-3.0606,-3.085,-3.085,-3.084,-3.1199,-3.1431,-3.1652,-3.2102,-3.2457,-3.281,-3.3378,-3.4054,-3.4836,-3.5587,-3.6363,-3.6928,-3.737,-3.7679,-3.7892,-3.7986,-3.7986,-3.7986,-3.7986,-3.7986,-3.7986,-3.7986,-3.7986,-3.7481,-3.6423,-3.6614,-3.6081,-3.503,-3.5428,-3.5716,-3.6015,-3.6275,-3.6358,0.0,-2.1213,-2.1449,-2.1449,-2.2166,-2.2895,-2.2895,-2.3453,0.0,-2.4431,-2.4836,-2.5113,-2.5525,-2.5801,0.0,0.0,0.0,0.0,0.0,-2.3753,0.0,0.0,-2.44,0.0,0.0,0.0,0.0,0.0,0.0,0.0,-2.3581,-2.3908,-2.4471,-2.5194,-2.4595,-2.4595,-2.5194,-2.5472,-2.561,-2.561,-2.5234,-2.4865,-2.461,-2.4355,-2.4718,0.0,0.0,0.0,0.0,-2.9686,-3.0284,-3.0889,-3.0518,-3.0157,-2.9804,-2.9568,-2.9213,-2.8984,-2.8984,-2.8746,-2.8397,-2.8029,-2.7418,-2.6692,-2.6692,-2.6571,-2.6579,-2.6952,-2.7073,-2.7306,-2.79,-2.8498,-2.9103,-2.9686,-2.9804,-2.9922,-3.0265,-3.0039,-2.9922,-3.0265,-3.0392,-3.049,-3.1053,-3.1421,-3.2008,-3.2892,-3.3459,-3.4246,-3.5256,-3.5927,-3.6483,-3.7024,-3.737,-3.7691,-3.7986,-3.7986,-3.7986,-3.7986,-3.7986,-3.7986,-3.7986,-3.7986,-3.7481,-3.6423,-3.6338,-3.5809,-3.4823,-3.532,-3.5716,-3.592,-3.6275,-3.6358,-2.3184,0.0,-2.2599,-2.2856,-2.3043,-2.3356,0.0,-2.4291,-2.4429,-2.483,-2.5229,-2.5497,-2.5627,-2.5765,0.0,0.0,0.0,0.0,-2.4043,0.0,0.0,-2.4072,-2.4196,0.0,0.0,0.0,0.0,0.0,0.0,-2.4097,-2.4604,-2.4774,-2.5202,-2.5823,-2.57,-2.57,-2.5823,-2.5725,-2.548,-2.5234,-2.5111,-2.4734,-2.4232,-2.5218,-2.5815,0.0,0.0,0.0,-2.9686,-3.0157,-3.0392,-3.0509,-3.0157,-2.9804,-2.9568,-2.9213,-2.9103,-2.8984,-2.8984,-2.8627,-2.8029,-2.7427,-2.7297,-2.728,-2.728,-2.6805,-2.6327,-2.6571,-2.7056,-2.753,-2.79,-2.8498,-2.9103,-2.945,-2.945,-2.9331,-2.9686,-2.945,-2.9331,-2.9686,-2.9677,-2.9795,-3.0147,-3.0499,-3.0966,-3.1662,-3.2446,-3.347,-3.4591,-3.5367,-3.6254,-3.7024,-3.737,-3.7691,-3.7986,-3.7986,-3.7986,-3.7986,-3.7986,-3.7986,-3.7986,-3.7986,-3.7481,-3.6423,-3.5605,-3.5076,-3.4823,-3.5126,-3.5332,-3.5416,-3.5908,-3.6098,-2.4355,-2.4104,-2.3716,-2.3973,-2.422,-2.4461,-2.4857,-2.5115,-2.5365,-2.551,-2.5767,-2.5895,-2.5895,-2.5895,0.0,0.0,-2.4994,0.0,0.0,0.0,-2.4027,-2.3874,0.0,0.0,0.0,0.0,0.0,0.0,0.0,-2.5,-2.5746,-2.5806,-2.6075,-2.6571,-2.6571,-2.6449,-2.6327,-2.5847,-2.5488,-2.5357,-2.5111,-2.5103,-2.5087,-2.5937,-2.6658,0.0,0.0,0.0,-3.0157,-3.0382,-3.0382,-3.0392,-2.9922,-2.9686,-2.944,-2.9103,-2.8865,-2.8755,-2.8755,-2.8388,-2.79,-2.7418,-2.7539,-2.7771,-2.7771,-2.7409,-2.7047,-2.7177,-2.753,-2.7771,-2.79,-2.8388,-2.8874,-2.8984,-2.8984,-2.9103,-2.9213,-2.9094,-2.9103,-2.9213,-2.9213,-2.9331,-2.945,-2.9804,-3.0157,-3.0626,-3.1546,-3.2685,-3.3685,-3.4825,-3.5829,-3.6808,-3.7143,-3.7572,-3.7986,-3.7986,-3.7986,-3.7986,-3.7986,-3.8092,-3.8198,-3.8092,-3.7481,-3.6423,-3.5364,-3.4823,-3.4823,-3.503,-3.5223,-3.5223,-3.5716,-3.6015,-2.4988,-2.4945,-2.4669,-2.4669,-2.5138,-2.5482,-2.5482,-2.5738,-2.5985,-2.5985,-2.6112,-2.612,-2.612,-2.612,0.0,0.0,0.0,0.0,-2.4191,-2.4062,-2.3959,-2.3686,0.0,0.0,0.0,0.0,0.0,0.0,0.0,-2.6092,-2.6692,-2.6692,-2.67,-2.7073,-2.7073,-2.6952,-2.67,-2.6092,-2.5733,-2.561,-2.548,-2.5594,-2.6189,-2.665,-2.7495,-2.871,0.0,0.0,-3.0382,-3.0382,-3.0392,-3.0265,-2.9677,-2.945,-2.945,-2.9103,-2.8755,-2.8517,-2.8397,-2.8268,-2.79,-2.7642,-2.7771,-2.802,-2.802,-2.814,-2.814,-2.814,-2.814,-2.802,-2.802,-2.8268,-2.8636,-2.8636,-2.8746,-2.8984,-2.8984,-2.8984,-2.8984,-2.8984,-2.8984,-2.8984,-2.8984,-2.9213,-2.9568,-2.9804,-3.0859,-3.1998,-3.2903,-3.4166,-3.5412,-3.6483,-3.6916,-3.7346,-3.7986,-3.7986,-3.7986,-3.8092,-3.8092,-3.8198,-3.8409,-3.804,-3.7324,-3.6423,-3.5364,-3.4823,-3.4823,-3.503,-3.5126,-3.5126,-3.562,-3.592,-2.4988,-2.5028,-2.5067,-2.5067,-2.5107,-2.5146,-2.5146,-2.527,-2.527,-2.527,-2.5517,-2.5649,0.0,-2.5649,-2.5525,0.0,0.0,-2.426,0.0,0.0,0.0,0.0,0.0,0.0,0.0,0.0,0.0,0.0,0.0,-2.7064,-2.728,-2.6935,-2.67,-2.7073,-2.6822,-2.6822,-2.7073,-2.67,-2.6214,-2.561,-2.6092,-2.6432,-2.652,-2.7624,-2.8591,-2.9303,0.0,-3.0265,-3.0382,-3.0382,-3.0147,-2.9677,-2.9568,-2.9331,-2.9103,-2.8984,-2.8755,-2.8397,-2.8148,-2.802,-2.802,-2.7891,-2.8148,-2.8397,-2.8397,-2.8627,-2.8865,-2.8865,-2.8627,-2.8397,-2.8397,-2.8636,-2.8865,-2.8865,-2.8984,-2.8984,-2.8984,-2.8984,-2.8984,-2.8984,-2.8984,-2.8984,-2.8984,-2.9094,-2.9213,-2.9813,-3.049,-3.1401,-3.2571,-3.3808,-3.5046,-3.6266,-3.6808,-3.7346,-3.7986,-3.7986,-3.8092,-3.8303,-3.8303,-3.8409,-3.8409,-3.7442,-3.6783,-3.6411,-3.5364,-3.4823,-3.4823,-3.4823,-3.4823,-3.4835,-3.5223,-3.5416,-2.5111,-2.5111,-2.5111,-2.5111,-2.5111,-2.5111,-2.5357,-2.5357,-2.548,-2.5594,-2.5717,-2.5839,0.0,0.0,-2.5717,-2.548,0.0,-2.461,0.0,0.0,0.0,0.0,0.0,0.0,0.0,0.0,0.0,0.0,0.0,0.0,-2.7513,-2.6926,-2.6813,-2.7297,-2.7168,-2.7289,-2.79,-2.79,-2.7418,-2.6684,-2.7168,-2.753,-2.7873,-2.8838,-2.9558,-3.002,0.0,-3.0518,-3.0392,-3.0157,-2.9922,-2.944,-2.9331,-2.9103,-2.8984,-2.8746,-2.8636,-2.8397,-2.814,-2.814,-2.8268,-2.8268,-2.8517,-2.8755,-2.8755,-2.8865,-2.8984,-2.8984,-2.8865,-2.8755,-2.8755,-2.8865,-2.8984,-2.8984,-2.8984,-2.8984,-2.8984,-2.8984,-2.8984,-2.8984,-2.8984,-2.8984,-2.8984,-2.9094,-2.9331,-2.9686,-3.0499,-3.1421,-3.2342,-3.3685,-3.4925,-3.6157,-3.6808,-3.7346,-3.7986,-3.8092,-3.8303,-3.8409,-3.8526,-3.8526,-3.8421,-3.7387,-3.6715,-3.6411,-3.5364,-3.4823,-3.4823,-3.4823,-3.4823,-3.4835,-3.5126,-3.5223,-2.5234,-2.5234,-2.5234,-2.5357,-2.5357,-2.5357,-2.5602,-2.5733,-2.597,-2.6197,-2.6319,0.0,0.0,-2.6432,0.0,-2.6205,-2.5839,0.0,0.0,0.0,0.0,0.0,0.0,0.0,0.0,0.0,0.0,0.0,0.0,0.0,-2.7409,-2.6926,-2.6813,-2.7409,-2.7521,-2.7882,-2.8609,-2.8975,-2.8728,-2.7882,-2.8131,-2.8609,-2.9222,-2.9804,-3.0157,-3.0509,-3.0762,-3.0635,-3.0265,-2.9922,-2.9686,-2.9331,-2.9103,-2.8984,-2.8984,-2.8636,-2.8526,-2.8517,-2.8268,-2.8277,-2.8517,-2.8636,-2.8755,-2.8984,-2.8984,-2.8984,-2.8984,-2.8984,-2.8984,-2.8984,-2.8984,-2.8984,-2.8984,-2.8984,-2.8984,-2.8984,-2.8984,-2.8984,-2.8984,-2.8984,-2.8984,-2.8984,-2.9103,-2.9331,-2.9558,-2.9795,-3.0733,-3.1662,-3.2446,-3.3695,-3.5046,-3.6266,-3.6808,-3.7346,-3.8092,-3.8303,-3.8514,-3.8514,-3.8736,-3.8631,-3.8409,-3.7387,-3.6715,-3.6411,-3.5364,-3.4823,-3.4823,-3.4823,-3.4823,-3.4823,-3.503,-3.5126,-2.5488,-2.561,-2.5725,-2.6336,-2.597,-2.5602,-2.5961,-2.6327,-2.6579,-2.6935,-2.7168,-2.7401,0.0,-2.765,-2.79,-2.7779,-2.753,0.0,0.0,0.0,0.0,0.0,0.0,0.0,0.0,0.0,0.0,0.0,0.0,0.0,-2.7194,-2.6822,-2.6822,-2.7073,-2.7668,-2.8259,-2.8984,-2.9568,-2.9568,-2.8865,-2.9194,-2.9431,-2.9804,-3.0157,-3.0518,-3.0889,-3.0518,-3.0274,-2.9922,-2.9686,-2.9331,-2.8984,-2.8984,-2.8984,-2.8984,-2.8636,-2.8526,-2.8526,-2.8517,-2.8526,-2.8517,-2.8865,-2.8984,-2.8984,-2.8984,-2.8984,-2.8984,-2.8984,-2.8984,-2.8984,-2.8984,-2.8984,-2.8984,-2.8984,-2.8984,-2.8984,-2.8984,-2.8984,-2.8984,-2.8984,-2.8984,-2.9103,-2.945,-2.944,-2.9795,-3.0616,-3.1315,-3.2238,-3.3356,-3.4401,-3.5412,-3.6592,-3.6916,-3.7453,-3.8303,-3.8631,-3.8736,-3.8736,-3.8736,-3.8631,-3.8409,-3.7387,-3.6715,-3.6411,-3.5364,-3.4823,-3.4823,-3.4823,-3.4823,-3.4823,-3.4835,-3.4932,-2.6092,-2.6319,-2.6554,-2.7039,-2.7392,-2.7624,-2.728,-2.7521,-2.7891,-2.814,-2.8131,-2.8002,-2.7891,0.0,-2.837,-2.837,0.0,0.0,0.0,0.0,0.0,0.0,0.0,0.0,0.0,0.0,0.0,0.0,0.0,0.0,-2.6822,-2.6449,-2.6571,-2.7073,-2.7668,-2.837,-2.9203,-2.9912,-3.0167,-3.0176,-3.0039,-3.0157,-3.0528,-3.0645,-3.0762,-3.0889,-3.0518,-3.0157,-2.9922,-2.9558,-2.9331,-2.8984,-2.8984,-2.8984,-2.8984,-2.8874,-2.8865,-2.8865,-2.8865,-2.8636,-2.8526,-2.8636,-2.8507,-2.8379,-2.8379,-2.8379,-2.8379,-2.8636,-2.8636,-2.8755,-2.8984,-2.8984,-2.8984,-2.8984,-2.9213,-2.9331,-2.9331,-2.945,-2.9568,-2.9568,-2.9568,-2.9568,-2.9686,-2.9912,-3.0265,-3.085,-3.1546,-3.2457,-3.347,-3.4401,-3.5423,-3.6592,-3.7239,-3.788,-3.8409,-3.8514,-3.8526,-3.8526,-3.8736,-3.8631,-3.8409,-3.717,-3.65,-3.6411,-3.5364,-3.4823,-3.4823,-3.4823,-3.4823,-3.4823,-3.4823,-3.4823,-2.6579,-2.6918,-2.7263,-2.7993,-2.8701,-2.9294,-2.8957,-2.8966,-2.8966,-2.9213,-2.9094,-2.8847,-2.8609,0.0,0.0,0.0,0.0,0.0,0.0,0.0,0.0,0.0,0.0,0.0,0.0,0.0,0.0,0.0,0.0,0.0,0.0,-2.6197,-2.6327,-2.6822,-2.7418,-2.8241,-2.9066,-2.9903,-3.0401,-3.0762,-3.0635,-3.0645,-3.0889,-3.0889,-3.0889,-3.0762,-3.0401,-3.0039,-2.9804,-2.945,-2.9213,-2.8984,-2.8865,-2.8865,-2.8865,-2.8737,-2.8618,-2.8618,-2.8618,-2.8507,-2.8148,-2.8148,-2.79,-2.753,-2.7659,-2.7659,-2.765,-2.802,-2.8148,-2.8268,-2.8746,-2.8865,-2.8984,-2.9094,-2.9331,-2.9558,-2.9568,-2.9804,-2.9922,-2.9922,-2.9922,-2.9922,-3.0039,-3.0274,-3.0626,-3.1082,-3.1883,-3.2675,-3.3695,-3.4725,-3.573,-3.682,-3.756,-3.8092,-3.8409,-3.8409,-3.8409,-3.8409,-3.8514,-3.8514,-3.8303,-3.7067,-3.6411,-3.6411,-3.5364,-3.4823,-3.4823,-3.4823,-3.4823,-3.4823,-3.4823,-3.4823,-2.683,-2.7297,-2.7873,-2.9066,-2.9903,-3.0499,-3.085,-3.0392,-2.9922,-2.9931,-2.9922,-2.9922,-2.9922,-3.0157,0.0,0.0,0.0,0.0,0.0,0.0,0.0,0.0,0.0,0.0,0.0,0.0,0.0,0.0,0.0,0.0,0.0,-2.5961,-2.6067,-2.6067,-2.7039,-2.7753,-2.848,-2.944,-3.0039,-3.0382,-3.0762,-3.0889,-3.0889,-3.0889,-3.0762,-3.0382,-3.0039,-2.9804,-2.945,-2.9094,-2.8984,-2.8984,-2.8636,-2.8526,-2.8397,-2.814,-2.802,-2.802,-2.802,-2.7771,-2.7521,-2.7521,-2.7039,-2.6554,-2.6935,-2.6805,-2.6675,-2.728,-2.7521,-2.7642,-2.8268,-2.8746,-2.9103,-2.945,-2.944,-2.9568,-2.9804,-2.9931,-2.9931,-2.9931,-2.9931,-3.0039,-3.0392,-3.0382,-3.0743,-3.1672,-3.2352,-3.313,-3.4368,-3.5256,-3.6254,-3.7489,-3.7785,-3.8092,-3.8409,-3.8409,-3.8409,-3.8409,-3.8409,-3.8303,-3.7986,-3.6964,-3.6411,-3.6411,-3.5364,-3.4823,-3.4823,-3.4823,-3.4823,-3.4823,-3.4823,-3.4823,-2.8148,-2.8856,-2.944,-3.0255,0.0,-3.1662,-3.1325,-3.0976,-3.0743,-3.0392,-3.0274,-3.0157,-2.9922,-3.0157,0.0,0.0,0.0,0.0,0.0,0.0,0.0,0.0,0.0,0.0,0.0,0.0,0.0,0.0,0.0,0.0,0.0,-2.5725,-2.5594,-2.5349,-2.6319,-2.7039,-2.7383,-2.8471,-2.9322,-3.0039,-3.0401,-3.0635,-3.0889,-3.0645,-3.0509,-3.0392,-2.9804,-2.9558,-2.945,-2.8865,-2.8636,-2.8636,-2.8268,-2.8148,-2.8148,-2.7771,-2.7642,-2.7521,-2.7159,-2.6796,-2.6432,-2.5928,-2.557,-2.5218,-2.5218,-2.5218,-2.5333,-2.6311,-2.6554,-2.6805,-2.79,-2.8259,-2.8498,-2.9322,-2.9795,-3.0147,-3.0274,-3.0401,-3.0645,-3.0645,-3.0645,-3.0645,-3.0762,-3.0762,-3.0879,-3.1334,-3.2008,-3.2913,-3.4624,-3.5609,-3.6375,-3.6928,-3.737,-3.7797,-3.7797,-3.7998,-3.8092,-3.8092,-3.8092,-3.8092,-3.7986,-3.6757,-3.6093,-3.6093,-3.488,-3.4261,-3.4261,-3.4445,-3.4531,-3.4531,-3.4726,-3.4726,-2.8746,-2.9568,0.0,-3.085,-3.1672,-3.2133,-3.1672,0.0,0.0,0.0,-3.0635,-3.0518,-3.0284,-3.0518,0.0,0.0,0.0,0.0,0.0,0.0,0.0,0.0,0.0,0.0,0.0,0.0,0.0,0.0,0.0,0.0,0.0,-2.5234,-2.5111,-2.4865,-2.5472,-2.5945,-2.6286,-2.7254,-2.8104,-2.8957,-2.9431,-2.9804,-3.0176,-3.0274,-3.0157,-2.9804,-2.9203,-2.8847,-2.8847,-2.8259,-2.814,-2.8029,-2.7409,-2.7289,-2.7168,-2.6554,-2.6311,-2.6302,-2.5684,-2.5325,-2.5087,-2.4587,-2.4224,-2.3984,-2.4108,-2.4232,-2.4355,-2.5218,-2.5464,-2.5831,-2.6926,-2.753,-2.8131,-2.9322,-2.9922,-3.0274,-3.0518,-3.0762,-3.0889,-3.0889,-3.0889,-3.0889,-3.0889,-3.0889,-3.0995,-3.1218,-3.1998,-3.313,-3.4624,-3.5499,-3.6157,-3.6483,-3.6928,-3.7262,-3.7262,-3.7572,-3.7773,-3.7667,-3.7785,-3.7773,-3.7667,-3.6549,-3.5991,-3.5888,-3.4681,-3.4075,-3.4075,-3.4261,-3.4249,-3.4249,-3.4445,-3.4552,-2.8911,-2.9747,-3.0577,-3.1199,-3.1903,0.0,-3.1903,-3.1334,-3.0889,-3.0898,0.0,-3.0889,-3.0889,-3.0889,0.0,0.0,0.0,0.0,0.0,0.0,0.0,0.0,0.0,0.0,0.0,0.0,0.0,0.0,0.0,0.0,0.0,-2.4734,-2.461,-2.4487,-2.4479,-2.4595,-2.4949,-2.579,-2.6641,-2.7272,-2.7993,-2.8489,-2.8856,-2.9795,-2.9677,-2.8856,-2.814,-2.79,-2.79,-2.7521,-2.7392,-2.728,-2.6311,-2.5945,-2.5831,-2.4849,-2.4487,-2.4479,-2.4085,-2.3713,-2.3487,-2.3479,-2.3238,-2.3106,-2.3362,-2.3487,-2.3611,-2.4355,-2.4487,-2.4734,-2.5831,-2.6675,-2.7762,-2.9322,-2.9804,-3.0167,-3.0772,-3.0889,-3.0889,-3.0889,-3.0889,-3.0889,-3.0889,-3.0889,-3.0995,-3.1218,-3.2227,-3.3346,-3.4246,-3.4814,-3.5488,-3.6048,-3.6375,-3.6592,-3.6592,-3.7143,-3.737,-3.7024,-3.7262,-3.737,-3.6916,-3.6341,-3.5786,-3.558,-3.4593,-3.3977,-3.3965,-3.3977,-3.3977,-3.3977,-3.3977,-3.4234,-2.9671,-3.0456,0.0,-3.1927,-3.2133,-3.2248,-3.2248,-3.1682,-3.1102,-3.0889,-3.0889,-3.0889,-3.0889,-3.0889,0.0,0.0,0.0,0.0,0.0,0.0,0.0,0.0,0.0,0.0,0.0,0.0,0.0,0.0,0.0,0.0,-2.4734,-2.461,-2.4232,-2.3487,-2.3736,-2.3728,-2.3479,-2.4448,-2.5301,0.0,-2.6883,-2.7254,-2.7125,-2.8343,-2.848,-2.7762,-2.7409,-2.7177,-2.7177,-2.6684,-2.6432,-2.6311,-2.5341,-2.4972,-2.4849,-2.4108,-2.386,-2.3736,-2.3106,-2.2856,-2.2731,-2.2487,-2.2355,-2.2362,-2.2731,-2.2856,-2.2981,-2.3611,-2.386,-2.41,-2.5333,-2.5815,-2.6424,-2.8361,-2.9558,-3.0392,-3.0772,-3.0889,-3.0889,-3.0889,-3.0889,-3.0889,-3.0889,-3.0889,-3.0995,-3.1218,-3.1777,-3.2352,-3.3027,-3.3582,-3.4145,-3.4469,-3.5256,-3.5708,-3.5708,-3.6266,-3.6592,-3.6483,-3.6495,-3.6375,-3.5817,-3.549,-3.527,-3.4959,-3.3989,-3.3269,-3.2857,-3.3269,-3.3369,-3.3058,-3.3258,-3.341,-2.9956,0.0,0.0,-3.1666,0.0,-3.184,-3.1717,-3.1267,-3.0824,-3.0492,-3.0711,-3.0889,-3.0889,0.0,0.0,0.0,0.0,0.0,0.0,0.0,0.0,0.0,0.0,0.0,0.0,0.0,0.0,0.0,0.0,-2.498,-2.461,-2.4108,-2.3604,-2.3106,-2.2988,-2.2856,-2.2606,-2.3347,-2.3829,-2.4317,-2.5063,-2.5301,-2.5415,-2.6529,-2.6909,-2.6545,-2.6067,-2.5831,-2.5831,-2.521,-2.4841,-2.4841,-2.3976,-2.3604,-2.3611,-2.2856,-2.2606,-2.2606,-2.2111,-2.1985,-2.2111,-2.1859,-2.2111,-2.2355,-2.2606,-2.2738,-2.2863,-2.3238,-2.3362,-2.3604,-2.4471,-2.4956,-2.5692,-2.703,-2.86,-2.9922,-3.0518,-3.0772,-3.0889,-3.0889,-3.0889,-3.0889,-3.0889,-3.0889,-3.1005,-3.1112,-3.1334,-3.1787,-3.2238,-3.2685,-3.3016,-3.3346,-3.3909,-3.4246,-3.4246,-3.5035,-3.5256,-3.5035,-3.5367,-3.5156,-3.4252,-3.4196,-3.4215,-3.4227,-3.3368,-3.2656,-3.2229,-3.2443,-3.2342,-3.2026,-3.2247,-3.2509,-2.9998,0.0,-3.1011,-3.1371,-3.1371,0.0,-3.1001,-3.0681,-3.0369,-3.0036,-3.0384,-3.0664,0.0,0.0,0.0,0.0,0.0,0.0,0.0,0.0,0.0,0.0,0.0,0.0,0.0,0.0,0.0,0.0,0.0,-2.461,-2.4487,-2.3611,-2.3106,-2.2988,-2.2362,-2.1985,-2.1985,-2.2237,-2.2606,-2.2856,-2.3238,-2.3472,-2.3829,-2.4579,-2.5079,-2.5202,-2.4602,-2.4355,-2.4232,-2.3736,-2.3487,-2.3362,-2.2731,-2.2487,-2.2362,-2.1859,-2.1607,-2.1607,-2.1362,-2.1481,-2.1734,-2.1734,-2.2111,-2.2613,-2.2606,-2.2863,-2.3106,-2.3106,-2.3106,-2.3238,-2.3479,-2.4216,-2.5079,-2.5823,-2.728,-2.8856,-3.003,-3.0518,-3.0889,-3.0889,-3.0889,-3.0889,-3.0889,-3.0889,-3.0889,-3.0889,-3.1112,-3.1334,-3.1556,-3.1893,-3.2113,-3.2457,-3.2789,-3.2892,-3.2892,-3.3685,-3.4032,-3.347,-3.4134,-3.3917,-3.278,-3.2771,-3.2802,-3.2929,-3.2583,-3.2128,-3.171,-3.1516,-3.1343,-3.1109,-3.119,-3.155,-3.0089,0.0,-3.1371,0.0,-3.1141,-3.1011,0.0,0.0,-3.0026,0.0,-2.9892,0.0,0.0,0.0,0.0,0.0,0.0,0.0,0.0,0.0,0.0,0.0,0.0,0.0,0.0,0.0,0.0,0.0,-2.461,-2.4355,-2.3728,-2.3362,-2.2863,-2.2237,-2.1859,-2.1481,-2.1235,-2.1607,-2.1734,-2.1859,-2.2111,-2.248,-2.2856,-2.2606,-2.2981,-2.3852,-2.3479,-2.3355,-2.323,-2.2856,-2.2738,-2.2606,-2.1985,-2.1734,-2.1734,-2.1607,-2.1607,-2.1607,-2.1859,-2.1985,-2.2111,-2.2355,-2.2487,-2.2606,-2.2981,-2.3106,-2.3106,-2.3106,-2.3106,-2.3238,-2.3479,-2.3728,-2.41,-2.5333,-2.6067,-2.703,-2.9066,-3.003,-3.0518,-3.0889,-3.0889,-3.0889,-3.0889,-3.0889,-3.0889,-3.0889,-3.0889,-3.1005,-3.1005,-3.1218,-3.1441,-3.1441,-3.1998,-3.2332,-3.2332,-3.2685,-3.2913,-3.2799,-3.2903,-3.2591,-3.1809,-3.1667,-3.1231,-3.0622,-3.1374,-3.1311,-3.0588,-3.0795,-3.0789,-3.067,-3.0732,-3.0993,-2.9905,-3.011,-3.0381,0.0,-3.0038,-2.9931,-2.9931,0.0,-2.9075,-2.9075,0.0,0.0,0.0,0.0,0.0,0.0,0.0,0.0,0.0,0.0,0.0,0.0,0.0,0.0,0.0,0.0,0.0,0.0,-2.4192,-2.3779,-2.3347,-2.2856,-2.2355,-2.1859,-2.1481,-2.1235,-2.1109,-2.1235,-2.1362,-2.1362,-2.1318,-2.1361,-2.1479,-2.1183,-2.1658,-2.2724,-2.2302,-2.1976,-2.1962,-2.1423,-2.1328,-2.1486,-2.1237,-2.1339,-2.1607,-2.1607,-2.1734,-2.1859,-2.2111,-2.2237,-2.2362,-2.2606,-2.2738,-2.2863,-2.3113,-2.3106,-2.3106,-2.3106,-2.3106,-2.3113,-2.3238,-2.3487,-2.3728,-2.4348,-2.521,-2.6181,-2.7486,-2.882,-3.003,-3.0762,-3.0889,-3.0889,-3.0889,-3.0889,-3.0889,-3.0889,-3.0889,-3.0889,-3.0889,-3.0995,-3.1112,-3.1112,-3.1334,-3.1441,-3.1441,-3.1777,-3.1893,-3.1682,-3.2018,-3.1694,-3.0558,-3.0671,-3.0346,-2.9337,-3.0287,-3.0495,-2.9973,-3.0116,-3.014,-2.9934,-3.0189,-3.0508,0.0,0.0,-2.9343,-2.9026,-2.8814,-2.8708,0.0,0.0,-2.797,0.0,0.0,0.0,0.0,0.0,0.0,0.0,0.0,0.0,0.0,0.0,0.0,0.0,0.0,0.0,0.0,0.0,0.0,0.0,-2.3474,-2.3095,-2.2726,-2.2121,-2.1631,-2.1382,-2.1007,-2.0889,-2.0889,-2.0889,-2.0889,-2.0882,-2.0668,-2.0568,-2.0555,-2.0334,-2.0713,-2.1617,-2.1149,-2.0931,-2.091,-2.0449,-2.0361,-2.0568,-2.0772,-2.1051,-2.1505,-2.1832,-2.1985,-2.223,-2.2355,-2.248,-2.2738,-2.2738,-2.2856,-2.3106,-2.3106,-2.3106,-2.3106,-2.3106,-2.3106,-2.3106,-2.3106,-2.3238,-2.3479,-2.3611,-2.4348,-2.5439,-2.6762,-2.8343,-2.9785,-3.0645,-3.0889,-3.0889,-3.0889,-3.0889,-3.0889,-3.0889,-3.0889,-3.0889,-3.0889,-3.0889,-3.0889,-3.0889,-3.0889,-3.0889,-3.0889,-3.1112,-3.1112,-3.0889,-3.1344,-3.0938,-2.96,-2.9915,-2.9669,-2.8701,-2.9206,-2.9515,-2.9515,-2.9645,-2.9709,-2.9618,-3.0015,-3.0264,0.0,-2.9343,0.0,-2.8504,-2.8174,0.0,0.0,0.0,0.0,0.0,0.0,0.0,0.0,0.0,0.0,0.0,0.0,0.0,0.0,0.0,0.0,0.0,0.0,0.0,0.0,0.0,0.0,0.0,-2.2416,-2.2184,-2.1838,-2.1122,-2.0759,-2.0759,-2.0395,-2.0274,-2.0274,-2.0274,-2.0274,-2.0274,-2.0261,-2.0254,-2.0254,-2.0241,-2.0247,-2.0274,-2.0261,-2.0254,-2.0254,-2.0234,-2.0241,-2.0287,-2.0931,-2.1177,-2.1348,-2.2249,-2.2613,-2.2606,-2.2981,-2.3113,-2.3106,-2.3106,-2.3113,-2.3106,-2.3106,-2.3106,-2.3106,-2.3106,-2.3106,-2.3106,-2.3106,-2.3106,-2.3238,-2.3487,-2.3611,-2.4587,-2.7753,-2.9203,-2.9922,-3.0392,-3.0645,-3.0889,-3.0889,-3.0889,-3.0889,-3.0889,-3.0889,-3.0889,-3.0889,-3.0889,-3.0889,-3.0889,-3.0889,-3.0889,-3.0889,-3.0889,-3.0889,-3.0889,-3.0889,-3.0498,-2.9609,-2.9346,-2.892,-2.8487,-2.8229,-2.8568,-2.9362,-2.9382,-2.9688,-3.0137,-3.0176,-3.043,0.0,0.0,0.0,-2.707,-2.6654,-2.6327,-2.5972,-2.5762,0.0,0.0,0.0,0.0,0.0,0.0,0.0,0.0,0.0,0.0,0.0,0.0,0.0,0.0,0.0,0.0,0.0,0.0,0.0,0.0,0.0,-2.1453,-2.106,-2.0832,-2.0591,-2.0355,-2.0227,-2.0234,-2.0234,-2.0234,-2.0234,-2.0227,-2.0047,-1.9953,-1.9947,-1.9766,-1.9679,-1.9679,-1.9679,-1.978,-1.994,-1.9983,-2.0017,-2.0339,-2.0994,-2.1474,-2.1807,-2.2366,-2.2738,-2.2981,-2.3113,-2.3106,-2.3106,-2.3106,-2.3106,-2.3106,-2.3106,-2.3106,-2.3106,-2.3106,-2.3106,-2.3106,-2.3106,-2.2981,-2.2863,-2.2988,-2.3487,-2.4471,-2.6294,-2.7873,-2.9203,-2.9922,-3.0167,-3.0284,-3.0518,-3.0635,-3.0635,-3.0635,-3.0762,-3.0889,-3.0889,-3.0889,-3.0889,-3.0889,-3.0889,-3.0889,-3.0889,-3.0889,-3.0889,-3.0889,-3.0889,-3.0509,-2.9792,-2.965,-2.923,-2.8585,-2.8464,-2.8678,-2.9244,-2.9527,-2.9799,-3.0205,-3.0508,-3.0732,-2.7833,0.0,0.0,0.0,-2.5212,-2.477,-2.4411,0.0,0.0,0.0,0.0,0.0,0.0,0.0,0.0,0.0,0.0,0.0,0.0,0.0,0.0,0.0,0.0,0.0,0.0,0.0,0.0,0.0,0.0,0.0,-2.0159,-2.0053,-2.0053,-1.994,-1.994,-1.994,-1.994,-1.994,-1.994,-1.994,-1.9746,-1.9659,-1.9646,-1.9452,-1.9482,-1.9475,-1.9475,-1.9589,-1.975,-1.9781,-2.0048,-2.0386,-2.1033,-2.1555,-2.2026,-2.2704,-2.3113,-2.323,-2.323,-2.323,-2.323,-2.3113,-2.3106,-2.3106,-2.3106,-2.3106,-2.3106,-2.3106,-2.3106,-2.3106,-2.2988,-2.2738,-2.2487,-2.2487,-2.3106,-2.3976,-2.4964,-2.6788,-2.8609,-2.945,-2.9804,-2.9922,-3.0157,-3.0274,-3.0274,-3.0274,-3.0518,-3.0762,-3.0762,-3.0889,-3.0889,-3.0889,-3.0889,-3.0889,-3.0889,-3.0889,-3.0889,-3.0762,-3.0762,-3.0451,-2.9671,-2.9537,-2.9174,-2.8662,-2.8548,-2.8737,-2.9212,-2.9585,-2.9949,-3.0305,-3.0742,-3.0889,0.0,0.0,0.0,0.0,0.0,0.0,-2.2523,0.0,-2.2297,0.0,0.0,0.0,0.0,0.0,0.0,0.0,0.0,0.0,0.0,0.0,0.0,0.0,0.0,0.0,0.0,0.0,0.0,0.0,-1.8532,-1.8532,-1.8874,-1.8874,-1.8997,-1.9366,-1.9366,-1.9366,-1.9366,-1.9366,-1.9366,-1.9366,-1.9366,-1.9366,-1.9366,-1.9366,-1.9591,-1.9809,-1.9809,-1.9815,-1.9815,-1.9815,-2.004,-2.0449,-2.1306,-2.1668,-2.1867,-2.3118,-2.3611,-2.3611,-2.3611,-2.3611,-2.3479,-2.3238,-2.3106,-2.3106,-2.3106,-2.3106,-2.3106,-2.3106,-2.3106,-2.2988,-2.2613,-2.2362,-2.2111,-2.2111,-2.2613,-2.3238,-2.3984,-2.6067,-2.814,-2.8856,-2.945,-2.9804,-2.9922,-2.9931,-2.9931,-2.9931,-3.0157,-3.0392,-3.0392,-3.0645,-3.0889,-3.0889,-3.0889,-3.0889,-3.0889,-3.0889,-3.0762,-3.0382,-3.0392,-3.0092,-2.9354,-2.8969,-2.8844,-2.8844,-2.8514,-2.8716,-2.945,-2.964,-2.9997,-3.0392,-3.0762,-3.0889,-2.5093,0.0,0.0,0.0,0.0,0.0,-2.0952,-2.0945,-2.0831,0.0,0.0,0.0,0.0,0.0,0.0,0.0,0.0,0.0,0.0,0.0,0.0,0.0,0.0,0.0,0.0,0.0,0.0,0.0,-1.7232,-1.7467,-1.7467,-1.8175,-1.8648,-1.9004,-1.9243,-1.9366,-1.9366,-1.9366,-1.9366,-1.9366,-1.9366,-1.9482,-1.9707,-1.9707,-1.9815,-2.0162,-2.0162,-2.027,-2.0493,-2.0493,-2.0493,-2.0672,-2.1676,-2.2057,-2.2129,-2.3249,-2.3611,-2.3611,-2.3611,-2.3611,-2.3479,-2.3238,-2.3106,-2.3106,-2.3106,-2.3106,-2.3106,-2.3106,-2.2988,-2.2613,-2.1985,-2.1859,-2.1734,-2.1488,-2.1859,-2.2613,-2.3479,-2.5079,-2.6675,-2.8011,-2.8627,-2.8984,-2.9568,-2.9558,-2.9558,-2.9558,-2.9804,-3.0039,-3.0039,-3.0157,-3.0284,-3.0509,-3.0509,-3.0645,-3.0889,-3.0645,-3.0509,-3.0392,-3.0157,-2.9865,-2.9399,-2.9399,-2.9155,-2.8928,-2.8819,-2.8874,-2.9103,-2.9456,-2.9691,-3.0039,-3.0392,-3.0509,-2.3295,-2.2274,-2.1244,-2.0235,0.0,0.0,-1.9216,-1.9107,-1.8991,0.0,0.0,0.0,0.0,0.0,0.0,0.0,0.0,0.0,0.0,0.0,0.0,0.0,0.0,0.0,0.0,-1.5828,-1.5709,-1.5704,-1.6059,-1.629,-1.6644,-1.7355,-1.7941,-1.8298,-1.8887,-1.9243,-1.9243,-1.9366,-1.9366,-1.9366,-1.9475,-1.9707,-1.9815,-1.9924,-2.0155,-2.05,-2.05,-2.0615,-2.096,-2.096,-2.096,-2.1025,-2.1809,-2.2296,-2.249,-2.3495,-2.386,-2.3984,-2.386,-2.386,-2.3736,-2.323,-2.3106,-2.3106,-2.3106,-2.3106,-2.3106,-2.2988,-2.2606,-2.2111,-2.1734,-2.1481,-2.1355,-2.1109,-2.1488,-2.2111,-2.2981,-2.41,-2.557,-2.7401,-2.8148,-2.8636,-2.9213,-2.9331,-2.9331,-2.9331,-2.9568,-2.9686,-2.9686,-2.9804,-2.9922,-3.0157,-3.0157,-3.0274,-3.0411,-3.0274,-3.0157,-3.0039,-2.9804,-2.9568,-2.9331,-2.9331,-2.9213,-2.8984,-2.8984,-2.8984,-2.8984,-2.9331,-2.9686,-2.9922,-3.0157,-3.0274,-2.1699,-2.0558,-1.953,-1.8383,-1.7806,0.0,-1.7337,-1.7226,-1.712,-1.6873,0.0,0.0,0.0,0.0,0.0,0.0,0.0,0.0,0.0,0.0,0.0,0.0,0.0,0.0,-1.4997,-1.4764,-1.465,-1.4878,-1.4997,-1.5235,-1.5941,-1.6526,-1.6997,-1.7367,-1.8292,-1.8758,-1.8758,-1.9127,-1.9366,-1.9366,-1.97,-1.9815,-1.9924,-2.0155,-2.0493,-2.0723,-2.0831,-2.096,-2.1211,-2.1325,-2.1211,-2.1276,-2.1928,-2.2408,-2.2826,-2.3741,-2.4355,-2.4487,-2.4232,-2.4108,-2.3984,-2.3362,-2.3106,-2.3106,-2.3106,-2.3106,-2.2981,-2.2606,-2.2111,-2.1607,-2.1607,-2.1362,-2.1109,-2.1109,-2.1362,-2.1734,-2.2362,-2.3362,-2.4595,-2.6909,-2.7891,-2.8517,-2.8865,-2.8984,-2.8984,-2.8984,-2.9213,-2.944,-2.944,-2.9686,-2.9804,-2.9804,-2.9804,-2.9922,-2.9922,-2.9922,-2.9804,-2.9558,-2.945,-2.9331,-2.8984,-2.8984,-2.8984,-2.8984,-2.8984,-2.8984,-2.8984,-2.9331,-2.9568,-2.9804,-2.9804,-3.0039,0.0,-1.837,0.0,0.0,0.0,0.0,-1.5564,-1.5564,-1.5564,0.0,0.0,0.0,0.0,0.0,0.0,0.0,0.0,0.0,0.0,0.0,0.0,0.0,0.0,0.0,-1.4406,-1.4291,-1.4172,-1.4047,-1.4167,-1.4644,-1.5229,-1.5693,-1.6172,-1.6655,-1.7361,-1.7824,-1.8046,-1.8642,-1.912,-1.9359,-1.97,-2.004,-2.0493,-2.0601,-2.0845,-2.1089,-2.1432,-2.1546,-2.1668,-2.1888,-2.166,-2.1269,-2.226,-2.2632,-2.2826,-2.4109,-2.4355,-2.4232,-2.4108,-2.386,-2.3611,-2.3238,-2.3106,-2.3106,-2.3106,-2.2863,-2.2606,-2.1985,-2.1734,-2.1481,-2.1235,-2.1109,-2.1109,-2.1109,-2.1109,-2.1362,-2.2111,-2.2738,-2.3852,-2.557,-2.6909,-2.7891,-2.8517,-2.8874,-2.8984,-2.8984,-2.9103,-2.9103,-2.9103,-2.9103,-2.9331,-2.9568,-2.9568,-2.9686,-2.9922,-2.9686,-2.9568,-2.944,-2.9213,-2.9103,-2.8984,-2.8984,-2.8984,-2.8984,-2.8984,-2.8984,-2.8984,-2.9103,-2.9103,-2.9222,-2.945,-2.9686,0.0,0.0,0.0,-1.4381,0.0,0.0,0.0,-1.3412,-1.3412,-1.3287,0.0,0.0,0.0,0.0,0.0,0.0,0.0,0.0,0.0,0.0,0.0,0.0,0.0,0.0,-1.3688,-1.3688,-1.3688,-1.3688,-1.3813,-1.4047,-1.4401,-1.4867,-1.5219,-1.558,-1.6532,-1.7126,-1.7232,-1.8175,-1.8765,-1.912,-1.9693,-2.0263,-2.0716,-2.0845,-2.1089,-2.1439,-2.1668,-2.1782,-2.1896,-2.2002,-2.1888,-2.1728,-2.2606,-2.2982,-2.3303,-2.4231,-2.4479,-2.4355,-2.4108,-2.386,-2.3479,-2.3238,-2.3106,-2.3106,-2.2856,-2.2487,-2.1985,-2.1734,-2.1488,-2.1362,-2.1109,-2.1109,-2.1109,-2.1109,-2.1109,-2.1235,-2.1734,-2.2237,-2.3106,-2.4595,-2.5815,-2.6918,-2.8277,-2.8636,-2.8755,-2.8984,-2.8984,-2.8984,-2.8984,-2.8984,-2.9094,-2.9213,-2.9213,-2.9331,-2.9459,-2.9331,-2.9213,-2.9213,-2.9094,-2.8984,-2.8984,-2.8984,-2.8984,-2.8984,-2.8984,-2.8984,-2.8984,-2.8984,-2.8984,-2.8984,-2.9213,-2.945,0.0,0.0,0.0,0.0,0.0,-1.174,0.0,0.0,0.0,0.0,0.0,0.0,0.0,0.0,0.0,0.0,0.0,0.0,0.0,0.0,0.0,0.0,0.0,0.0,0.0,-1.3084,-1.3324,-1.3688,-1.3688,-1.3688,-1.3688,-1.4157,-1.451,-1.4515,-1.5585,-1.6177,-1.6301,-1.7479,-1.8415,-1.8758,-1.9693,-2.027,-2.0716,-2.0967,-2.1318,-2.1554,-2.1782,-2.1888,-2.2116,-2.2222,-2.2222,-2.2291,-2.2951,-2.3338,-2.3652,-2.4475,-2.461,-2.4487,-2.4232,-2.386,-2.3487,-2.323,-2.3113,-2.2988,-2.2487,-2.1985,-2.1614,-2.1481,-2.1362,-2.1109,-2.1109,-2.1109,-2.1109,-2.1109,-2.1109,-2.1109,-2.1481,-2.1734,-2.2362,-2.3611,-2.4718,-2.5945,-2.79,-2.8397,-2.8636,-2.8984,-2.8984,-2.8984,-2.8984,-2.8984,-2.8984,-2.8984,-2.8984,-2.8984,-2.8984,-2.8984,-2.8984,-2.8984,-2.8984,-2.8984,-2.8984,-2.8984,-2.8984,-2.8984,-2.8984,-2.8984,-2.8984,-2.8984,-2.8984,-2.8984,-2.8984,-2.9331,0.0,0.0,0.0,0.0,-1.0789,0.0,0.0,0.0,-0.9451,-0.9201,0.0,0.0,0.0,0.0,0.0,0.0,0.0,0.0,0.0,0.0,0.0,0.0,0.0,0.0,0.0,-1.284,-1.3324,-1.3688,-1.3688,-1.3688,-1.3688,-1.3808,-1.3928,-1.4291,-1.4634,-1.511,-1.5715,-1.6649,-1.759,-1.8415,-1.912,-1.9924,-2.0716,-2.0716,-2.096,-2.1325,-2.1774,-2.2108,-2.2108,-2.2675,-2.2901,-2.2972,-2.3419,-2.3574,-2.3779,-2.4719,-2.461,-2.4108,-2.4108,-2.3736,-2.3106,-2.3113,-2.2856,-2.248,-2.1859,-2.1607,-2.1481,-2.1235,-2.1109,-2.1109,-2.1109,-2.1109,-2.1109,-2.1109,-2.1109,-2.1109,-2.1109,-2.1355,-2.1985,-2.2988,-2.3736,-2.4964,-2.728,-2.8148,-2.8636,-2.8984,-2.8984,-2.8984,-2.8984,-2.8984,-2.8984,-2.8984,-2.8984,-2.8984,-2.8984,-2.8984,-2.8984,-2.8984,-2.8984,-2.8984,-2.8984,-2.8984,-2.8984,-2.8984,-2.8984,-2.8984,-2.8984,-2.8984,-2.8984,-2.8984,-2.8984,-2.9213,0.0,0.0,0.0,0.0,0.0,0.0,-0.836,0.0,-0.75,0.0,0.0,0.0,0.0,0.0,0.0,0.0,-0.6768,0.0,0.0,0.0,0.0,0.0,0.0,0.0,0.0,0.0,0.0,0.0,-1.3688,-1.3688,-1.3688,-1.3688,-1.3808,-1.3933,-1.4167,-1.4525,-1.4769,-1.5941,-1.6762,-1.7343,-1.8292,-1.9223,-1.9903,-2.0148,-2.05,-2.096,-2.1432,-2.1539,-2.1645,-2.2222,-2.2335,-2.2291,-2.3068,-2.3574,-2.4016,-2.4597,-2.4487,-2.4108,-2.386,-2.3487,-2.3106,-2.2856,-2.2487,-2.1985,-2.1734,-2.1481,-2.1235,-2.1109,-2.1109,-2.1109,-2.1109,-2.1109,-2.1109,-2.1109,-2.1109,-2.1109,-2.1109,-2.1235,-2.1607,-2.2362,-2.3113,-2.41,-2.5806,-2.7159,-2.814,-2.8636,-2.8865,-2.8984,-2.8984,-2.8984,-2.8984,-2.8984,-2.8984,-2.8984,-2.8984,-2.8984,-2.8984,-2.8984,-2.8984,-2.8984,-2.8984,-2.8984,-2.8984,-2.8984,-2.8984,-2.8984,-2.8984,-2.8984,-2.8984,-2.8984,-2.8984,-2.9213,-1.2835,0.0,0.0,0.0,0.0,0.0,0.0,0.0,0.0,0.0,0.0,0.0,0.0,0.0,0.0,0.0,0.0,-0.5792,0.0,0.0,0.0,0.0,0.0,0.0,0.0,0.0,0.0,-1.3444,-1.3688,-1.3688,-1.3688,-1.3688,-1.3688,-1.3688,-1.3933,-1.4052,-1.4172,-1.5229,-1.593,-1.6397,-1.7355,-1.8292,-1.91,-1.9455,-1.9802,-2.0371,-2.0852,-2.096,-2.0838,-2.1417,-2.1539,-2.1369,-2.2245,-2.2855,-2.3415,-2.4101,-2.4108,-2.3611,-2.3362,-2.3113,-2.2731,-2.2487,-2.1985,-2.1607,-2.1481,-2.1229,-2.1109,-2.1109,-2.1109,-2.1109,-2.1109,-2.1109,-2.1109,-2.1109,-2.1109,-2.1109,-2.1109,-2.1109,-2.1235,-2.1859,-2.2487,-2.323,-2.4332,-2.5928,-2.7401,-2.8148,-2.8379,-2.8618,-2.8737,-2.8746,-2.8746,-2.8746,-2.8865,-2.8865,-2.8865,-2.8984,-2.8984,-2.8984,-2.8984,-2.8984,-2.8984,-2.8984,-2.8984,-2.8984,-2.8984,-2.8984,-2.8865,-2.8865,-2.8865,-2.8737,-2.8856,-2.9094,0.0,0.0,0.0,-0.8961,0.0,0.0,0.0,0.0,-0.53,0.0,0.0,0.0,0.0,0.0,0.0,-0.4935,0.0,0.0,0.0,0.0,0.0,0.0,0.0,0.0,0.0,0.0,-1.2479,-1.3204,-1.3569,-1.3688,-1.3688,-1.3688,-1.3688,-1.3688,-1.3688,-1.3813,-1.4172,-1.4515,-1.5105,-1.6177,-1.6419,-1.7244,-1.8415,-1.8765,-1.91,-1.9441,-2.0371,-2.0378,-1.9924,-2.0493,-2.0608,-2.0449,-2.1068,-2.1307,-2.1506,-2.2995,-2.323,-2.2606,-2.2613,-2.2355,-2.2111,-2.1734,-2.1607,-2.1481,-2.1235,-2.1109,-2.1109,-2.1109,-2.1109,-2.1109,-2.1109,-2.1109,-2.1109,-2.1109,-2.1109,-2.1109,-2.1109,-2.1109,-2.1235,-2.1607,-2.1859,-2.2362,-2.2981,-2.4833,-2.6432,-2.7401,-2.7521,-2.7642,-2.802,-2.802,-2.802,-2.802,-2.8268,-2.8526,-2.8526,-2.8865,-2.8984,-2.8984,-2.8984,-2.8984,-2.8984,-2.8984,-2.8984,-2.8984,-2.8984,-2.8874,-2.8526,-2.8526,-2.8397,-2.802,-2.8737,-2.8984,0.0,0.0,-1.0304,-0.9332,0.0,0.0,0.0,0.0,0.0,0.0,0.0,0.0,0.0,0.0,0.0,-0.395,-0.4318,0.0,0.0,0.0,0.0,0.0,0.0,0.0,0.0,0.0,0.0,-1.284,-1.3444,-1.3688,-1.3688,-1.3688,-1.3688,-1.3688,-1.3688,-1.3808,-1.3813,-1.4167,-1.4644,-1.5121,-1.5596,-1.6301,-1.7126,-1.7473,-1.7818,-1.8175,-1.8629,-1.8635,-1.8298,-1.8978,-1.8978,-1.8803,-1.962,-1.96,-1.9421,-2.1237,-2.1971,-2.1985,-2.1985,-2.1734,-2.1488,-2.1607,-2.1481,-2.1235,-2.1109,-2.1109,-2.1109,-2.1109,-2.1109,-2.1109,-2.0862,-2.0736,-2.0729,-2.0482,-2.0482,-2.0482,-2.0482,-2.0482,-2.0482,-2.0609,-2.0862,-2.1235,-2.1734,-2.2473,-2.3713,-2.5684,-2.6302,-2.6675,-2.6918,-2.7159,-2.7392,-2.7642,-2.802,-2.8148,-2.8148,-2.8517,-2.8636,-2.8636,-2.8865,-2.8984,-2.8984,-2.8984,-2.8984,-2.8984,-2.8984,-2.8874,-2.8526,-2.8526,-2.8268,-2.7642,-2.7891,-2.8002,-1.3204,-1.1997,0.0,-0.9819,-0.848,0.0,-0.6276,0.0,0.0,0.0,0.0,0.0,0.0,0.0,0.0,-0.3579,-0.3701,0.0,0.0,-0.4316,0.0,0.0,0.0,0.0,0.0,0.0,-1.1756,-1.2479,-1.3084,-1.3569,0.0,0.0,-1.3688,-1.3688,-1.3688,-1.3688,-1.3688,-1.3933,-1.4172,-1.4655,-1.5007,-1.5601,-1.6425,-1.6649,-1.6885,-1.7126,-1.759,-1.7473,-1.7126,-1.7695,-1.7695,-1.728,-1.8052,-1.8012,-1.7702,-1.96,-2.0443,-2.0456,-2.0722,-2.0722,-2.0849,-2.1109,-2.1235,-2.1109,-2.1109,-2.1109,-2.1109,-2.0982,-2.0856,-2.0856,-2.0482,-2.0354,-2.0354,-2.0106,-2.0106,-2.0106,-2.0106,-2.0106,-2.0106,-2.0106,-2.0234,-2.0482,-2.0736,-2.0982,-2.1978,-2.3953,-2.4702,-2.5079,-2.5439,-2.5928,-2.6294,-2.6658,-2.7039,-2.7409,-2.7771,-2.8148,-2.8397,-2.8517,-2.8755,-2.8865,-2.8984,-2.8984,-2.8984,-2.8984,-2.8984,-2.8746,-2.8268,-2.8148,-2.765,-2.6788,-2.6796,-2.6675]}]]